<?xml version="1.0" encoding="UTF-8" standalone="no" ?>
<gpx xmlns="http://www.topografix.com/GPX/1/1" creator="MapSource 6.16.3" version="1.1" xmlns:xsi="http://www.w3.org/2001/XMLSchema-instance" xsi:schemaLocation="http://www.topografix.com/GPX/1/1 http://www.topografix.com/GPX/1/1/gpx.xsd">

  <metadata>
    <link href="http://www.garmin.com">
      <text>Garmin International</text>
    </link>
    <time>2016-09-15T12:21:54Z</time>
    <bounds maxlat="45.866529112681746" maxlon="7.733454164117575" minlat="45.807725116610527" minlon="7.668381845578551"/>
  </metadata>

  <wpt lat="45.816666930913925" lon="7.690515602007508">
    <ele>1740.098876953125</ele>
    <name>001</name>
    <cmt>08-AGO-04 10:46</cmt>
    <desc>08-AGO-04 10:46</desc>
    <sym>Waypoint</sym>
    <extensions>
      <gpxx:WaypointExtension xmlns:gpxx="http://www.garmin.com/xmlschemas/GpxExtensions/v3">
        <gpxx:DisplayMode>SymbolAndName</gpxx:DisplayMode>
      </gpxx:WaypointExtension>
    </extensions>
  </wpt>

  <wpt lat="45.808080090209842" lon="7.668410008773208">
    <ele>1999.89306640625</ele>
    <name>002</name>
    <cmt>08-AGO-04 12:17</cmt>
    <desc>08-AGO-04 12:17</desc>
    <sym>Waypoint</sym>
    <extensions>
      <gpxx:WaypointExtension xmlns:gpxx="http://www.garmin.com/xmlschemas/GpxExtensions/v3">
        <gpxx:DisplayMode>SymbolAndName</gpxx:DisplayMode>
      </gpxx:WaypointExtension>
    </extensions>
  </wpt>

  <wpt lat="45.831351270899177" lon="7.692313771694899">
    <ele>2005.4208984375</ele>
    <name>003</name>
    <cmt>08-AGO-04 13:21</cmt>
    <desc>08-AGO-04 13:21</desc>
    <sym>Waypoint</sym>
    <extensions>
      <gpxx:WaypointExtension xmlns:gpxx="http://www.garmin.com/xmlschemas/GpxExtensions/v3">
        <gpxx:DisplayMode>SymbolAndName</gpxx:DisplayMode>
      </gpxx:WaypointExtension>
    </extensions>
  </wpt>

  <wpt lat="45.86236615665257" lon="7.730583697557449">
    <ele>1734.090576171875</ele>
    <name>004</name>
    <cmt>08-AGO-04 14:53</cmt>
    <desc>08-AGO-04 14:53</desc>
    <sym>Waypoint</sym>
    <extensions>
      <gpxx:WaypointExtension xmlns:gpxx="http://www.garmin.com/xmlschemas/GpxExtensions/v3">
        <gpxx:DisplayMode>SymbolAndName</gpxx:DisplayMode>
      </gpxx:WaypointExtension>
    </extensions>
  </wpt>

  <wpt lat="45.833801804110408" lon="7.724730866029859">
    <ele>1622.09814453125</ele>
    <name>005</name>
    <cmt>08-AGO-04 15:32</cmt>
    <desc>08-AGO-04 15:32</desc>
    <sym>Waypoint</sym>
    <extensions>
      <gpxx:WaypointExtension xmlns:gpxx="http://www.garmin.com/xmlschemas/GpxExtensions/v3">
        <gpxx:DisplayMode>SymbolAndName</gpxx:DisplayMode>
      </gpxx:WaypointExtension>
    </extensions>
  </wpt>

  <trk>
    <name>ACTIVE LOG</name>
    <trkseg>
      <trkpt lat="45.816711019724607" lon="7.690504118800163">
        <ele>1741.0849609375</ele>
        <time>2004-08-08T08:45:27Z</time>
      </trkpt>
      <trkpt lat="45.816711857914925" lon="7.69042432308197">
        <ele>1740.123779296875</ele>
        <time>2004-08-08T08:47:07Z</time>
      </trkpt>
      <trkpt lat="45.816787295043468" lon="7.69034905359149">
        <ele>1741.0849609375</ele>
        <time>2004-08-08T08:47:12Z</time>
      </trkpt>
      <trkpt lat="45.816888464614749" lon="7.690275711938739">
        <ele>1742.527099609375</ele>
        <time>2004-08-08T08:47:18Z</time>
      </trkpt>
      <trkpt lat="45.816968847066164" lon="7.690196922048926">
        <ele>1743.007568359375</ele>
        <time>2004-08-08T08:47:23Z</time>
      </trkpt>
      <trkpt lat="45.817026430740952" lon="7.690094746649265">
        <ele>1743.968994140625</ele>
        <time>2004-08-08T08:47:28Z</time>
      </trkpt>
      <trkpt lat="45.817013271152973" lon="7.689948063343763">
        <ele>1744.93017578125</ele>
        <time>2004-08-08T08:47:33Z</time>
      </trkpt>
      <trkpt lat="45.8169583696872" lon="7.689841026440263">
        <ele>1745.8916015625</ele>
        <time>2004-08-08T08:47:37Z</time>
      </trkpt>
      <trkpt lat="45.816898858174682" lon="7.689736923202872">
        <ele>1746.372314453125</ele>
        <time>2004-08-08T08:47:41Z</time>
      </trkpt>
      <trkpt lat="45.816837335005403" lon="7.689635334536433">
        <ele>1746.852783203125</ele>
        <time>2004-08-08T08:47:45Z</time>
      </trkpt>
      <trkpt lat="45.816785870119929" lon="7.68952863290906">
        <ele>1746.852783203125</ele>
        <time>2004-08-08T08:47:49Z</time>
      </trkpt>
      <trkpt lat="45.816713785752654" lon="7.689408771693707">
        <ele>1747.33349609375</ele>
        <time>2004-08-08T08:47:54Z</time>
      </trkpt>
      <trkpt lat="45.816653436049819" lon="7.689289916306734">
        <ele>1748.294677734375</ele>
        <time>2004-08-08T08:47:59Z</time>
      </trkpt>
      <trkpt lat="45.816621500998735" lon="7.689161086454988">
        <ele>1747.814208984375</ele>
        <time>2004-08-08T08:48:04Z</time>
      </trkpt>
      <trkpt lat="45.816606245934963" lon="7.689014235511422">
        <ele>1748.775390625</ele>
        <time>2004-08-08T08:48:09Z</time>
      </trkpt>
      <trkpt lat="45.816584201529622" lon="7.688875515013933">
        <ele>1751.1787109375</ele>
        <time>2004-08-08T08:48:14Z</time>
      </trkpt>
      <trkpt lat="45.816513542085886" lon="7.688754564151168">
        <ele>1751.659423828125</ele>
        <time>2004-08-08T08:48:19Z</time>
      </trkpt>
      <trkpt lat="45.816418994218111" lon="7.688696645200253">
        <ele>1752.62060546875</ele>
        <time>2004-08-08T08:48:23Z</time>
      </trkpt>
      <trkpt lat="45.816316148266196" lon="7.688640905544162">
        <ele>1752.139892578125</ele>
        <time>2004-08-08T08:48:27Z</time>
      </trkpt>
      <trkpt lat="45.816236268728971" lon="7.688587261363864">
        <ele>1752.139892578125</ele>
        <time>2004-08-08T08:48:30Z</time>
      </trkpt>
      <trkpt lat="45.816140212118626" lon="7.688535461202264">
        <ele>1752.139892578125</ele>
        <time>2004-08-08T08:48:33Z</time>
      </trkpt>
      <trkpt lat="45.816031163558364" lon="7.68848936073482">
        <ele>1751.659423828125</ele>
        <time>2004-08-08T08:48:36Z</time>
      </trkpt>
      <trkpt lat="45.815913733094931" lon="7.688463376834989">
        <ele>1751.659423828125</ele>
        <time>2004-08-08T08:48:39Z</time>
      </trkpt>
      <trkpt lat="45.815796973183751" lon="7.688443344086409">
        <ele>1751.1787109375</ele>
        <time>2004-08-08T08:48:42Z</time>
      </trkpt>
      <trkpt lat="45.815672669559717" lon="7.688461281359196">
        <ele>1751.1787109375</ele>
        <time>2004-08-08T08:48:45Z</time>
      </trkpt>
      <trkpt lat="45.81554040312767" lon="7.688545938581228">
        <ele>1750.697998046875</ele>
        <time>2004-08-08T08:48:48Z</time>
      </trkpt>
      <trkpt lat="45.815421212464571" lon="7.688649874180555">
        <ele>1750.697998046875</ele>
        <time>2004-08-08T08:48:51Z</time>
      </trkpt>
      <trkpt lat="45.815337980166078" lon="7.688713409006596">
        <ele>1750.217529296875</ele>
        <time>2004-08-08T08:48:53Z</time>
      </trkpt>
      <trkpt lat="45.815243851393461" lon="7.688766550272703">
        <ele>1750.697998046875</ele>
        <time>2004-08-08T08:48:55Z</time>
      </trkpt>
      <trkpt lat="45.815140167251229" lon="7.688799072057009">
        <ele>1749.73681640625</ele>
        <time>2004-08-08T08:48:57Z</time>
      </trkpt>
      <trkpt lat="45.815029023215175" lon="7.68881474621594">
        <ele>1749.73681640625</ele>
        <time>2004-08-08T08:48:59Z</time>
      </trkpt>
      <trkpt lat="45.814910251647234" lon="7.688826732337475">
        <ele>1748.294677734375</ele>
        <time>2004-08-08T08:49:01Z</time>
      </trkpt>
      <trkpt lat="45.814786199480295" lon="7.688818518072367">
        <ele>1748.294677734375</ele>
        <time>2004-08-08T08:49:03Z</time>
      </trkpt>
      <trkpt lat="45.814660722389817" lon="7.68878985196352">
        <ele>1746.852783203125</ele>
        <time>2004-08-08T08:49:05Z</time>
      </trkpt>
      <trkpt lat="45.814535329118371" lon="7.68876981921494">
        <ele>1746.852783203125</ele>
        <time>2004-08-08T08:49:07Z</time>
      </trkpt>
      <trkpt lat="45.814413875341415" lon="7.688755318522453">
        <ele>1747.33349609375</ele>
        <time>2004-08-08T08:49:09Z</time>
      </trkpt>
      <trkpt lat="45.81430172547698" lon="7.688743164762855">
        <ele>1747.33349609375</ele>
        <time>2004-08-08T08:49:11Z</time>
      </trkpt>
      <trkpt lat="45.814196364954114" lon="7.688731597736478">
        <ele>1747.33349609375</ele>
        <time>2004-08-08T08:49:13Z</time>
      </trkpt>
      <trkpt lat="45.814099637791514" lon="7.688714247196913">
        <ele>1747.33349609375</ele>
        <time>2004-08-08T08:49:15Z</time>
      </trkpt>
      <trkpt lat="45.814007101580501" lon="7.688695387914777">
        <ele>1747.814208984375</ele>
        <time>2004-08-08T08:49:17Z</time>
      </trkpt>
      <trkpt lat="45.813876092433929" lon="7.688674097880721">
        <ele>1747.33349609375</ele>
        <time>2004-08-08T08:49:20Z</time>
      </trkpt>
      <trkpt lat="45.813749358057976" lon="7.688648868352175">
        <ele>1748.294677734375</ele>
        <time>2004-08-08T08:49:23Z</time>
      </trkpt>
      <trkpt lat="45.813623042777181" lon="7.688614670187235">
        <ele>1747.814208984375</ele>
        <time>2004-08-08T08:49:26Z</time>
      </trkpt>
      <trkpt lat="45.813503684476018" lon="7.6885767839849">
        <ele>1748.775390625</ele>
        <time>2004-08-08T08:49:29Z</time>
      </trkpt>
      <trkpt lat="45.813396731391549" lon="7.688521044328809">
        <ele>1748.294677734375</ele>
        <time>2004-08-08T08:49:32Z</time>
      </trkpt>
      <trkpt lat="45.813313750550151" lon="7.688450049608946">
        <ele>1747.814208984375</ele>
        <time>2004-08-08T08:49:35Z</time>
      </trkpt>
      <trkpt lat="45.81325214356184" lon="7.688339408487082">
        <ele>1748.775390625</ele>
        <time>2004-08-08T08:49:39Z</time>
      </trkpt>
      <trkpt lat="45.81332053989172" lon="7.68820982426405">
        <ele>1749.73681640625</ele>
        <time>2004-08-08T08:49:45Z</time>
      </trkpt>
      <trkpt lat="45.813421122729778" lon="7.688133716583252">
        <ele>1751.1787109375</ele>
        <time>2004-08-08T08:49:51Z</time>
      </trkpt>
      <trkpt lat="45.813516592606902" lon="7.688063140958548">
        <ele>1751.659423828125</ele>
        <time>2004-08-08T08:49:57Z</time>
      </trkpt>
      <trkpt lat="45.813617762178183" lon="7.687986111268401">
        <ele>1752.139892578125</ele>
        <time>2004-08-08T08:50:03Z</time>
      </trkpt>
      <trkpt lat="45.813722284510732" lon="7.687933808192611">
        <ele>1752.139892578125</ele>
        <time>2004-08-08T08:50:09Z</time>
      </trkpt>
      <trkpt lat="45.813822280615568" lon="7.687888629734516">
        <ele>1753.101318359375</ele>
        <time>2004-08-08T08:50:15Z</time>
      </trkpt>
      <trkpt lat="45.813924623653293" lon="7.68787270411849">
        <ele>1754.062744140625</ele>
        <time>2004-08-08T08:50:21Z</time>
      </trkpt>
      <trkpt lat="45.814030738547444" lon="7.687876308336854">
        <ele>1755.504638671875</ele>
        <time>2004-08-08T08:50:27Z</time>
      </trkpt>
      <trkpt lat="45.814125537872314" lon="7.687873123213649">
        <ele>1755.985107421875</ele>
        <time>2004-08-08T08:50:32Z</time>
      </trkpt>
      <trkpt lat="45.814222265034914" lon="7.687862142920494">
        <ele>1757.427490234375</ele>
        <time>2004-08-08T08:50:37Z</time>
      </trkpt>
      <trkpt lat="45.81431538797915" lon="7.687837835401297">
        <ele>1757.908203125</ele>
        <time>2004-08-08T08:50:42Z</time>
      </trkpt>
      <trkpt lat="45.814406918361783" lon="7.68782333470881">
        <ele>1757.908203125</ele>
        <time>2004-08-08T08:50:48Z</time>
      </trkpt>
      <trkpt lat="45.814507920295" lon="7.687793914228678">
        <ele>1758.388671875</ele>
        <time>2004-08-08T08:50:55Z</time>
      </trkpt>
      <trkpt lat="45.814597690477967" lon="7.687765834853053">
        <ele>1758.388671875</ele>
        <time>2004-08-08T08:51:01Z</time>
      </trkpt>
      <trkpt lat="45.814692573621869" lon="7.687727613374591">
        <ele>1758.869384765625</ele>
        <time>2004-08-08T08:51:07Z</time>
      </trkpt>
      <trkpt lat="45.814789468422532" lon="7.687686709687114">
        <ele>1759.35009765625</ele>
        <time>2004-08-08T08:51:13Z</time>
      </trkpt>
      <trkpt lat="45.814885357394814" lon="7.687644213438034">
        <ele>1759.35009765625</ele>
        <time>2004-08-08T08:51:19Z</time>
      </trkpt>
      <trkpt lat="45.814984599128366" lon="7.687659719958901">
        <ele>1759.83056640625</ele>
        <time>2004-08-08T08:51:25Z</time>
      </trkpt>
      <trkpt lat="45.815078476443887" lon="7.687685200944543">
        <ele>1760.7919921875</ele>
        <time>2004-08-08T08:51:31Z</time>
      </trkpt>
      <trkpt lat="45.815168833360076" lon="7.687726691365242">
        <ele>1761.272705078125</ele>
        <time>2004-08-08T08:51:37Z</time>
      </trkpt>
      <trkpt lat="45.815263297408819" lon="7.687744712457061">
        <ele>1762.23388671875</ele>
        <time>2004-08-08T08:51:43Z</time>
      </trkpt>
      <trkpt lat="45.815359940752387" lon="7.687744209542871">
        <ele>1762.714599609375</ele>
        <time>2004-08-08T08:51:49Z</time>
      </trkpt>
      <trkpt lat="45.815456667914987" lon="7.687730714678764">
        <ele>1763.1953125</ele>
        <time>2004-08-08T08:51:55Z</time>
      </trkpt>
      <trkpt lat="45.815549120306969" lon="7.687699031084776">
        <ele>1764.156494140625</ele>
        <time>2004-08-08T08:52:01Z</time>
      </trkpt>
      <trkpt lat="45.815645176917315" lon="7.687639938667417">
        <ele>1765.117919921875</ele>
        <time>2004-08-08T08:52:08Z</time>
      </trkpt>
      <trkpt lat="45.815724469721317" lon="7.687563495710492">
        <ele>1764.63720703125</ele>
        <time>2004-08-08T08:52:14Z</time>
      </trkpt>
      <trkpt lat="45.815798984840512" lon="7.687479425221682">
        <ele>1765.117919921875</ele>
        <time>2004-08-08T08:52:20Z</time>
      </trkpt>
      <trkpt lat="45.815878445282578" lon="7.687399294227362">
        <ele>1765.5986328125</ele>
        <time>2004-08-08T08:52:26Z</time>
      </trkpt>
      <trkpt lat="45.815965533256531" lon="7.687341123819351">
        <ele>1766.559814453125</ele>
        <time>2004-08-08T08:52:32Z</time>
      </trkpt>
      <trkpt lat="45.816059494391084" lon="7.687293095514178">
        <ele>1767.04052734375</ele>
        <time>2004-08-08T08:52:38Z</time>
      </trkpt>
      <trkpt lat="45.81614431925118" lon="7.687243642285466">
        <ele>1767.52099609375</ele>
        <time>2004-08-08T08:52:43Z</time>
      </trkpt>
      <trkpt lat="45.816240543499589" lon="7.68720181658864">
        <ele>1767.52099609375</ele>
        <time>2004-08-08T08:52:48Z</time>
      </trkpt>
      <trkpt lat="45.816333666443825" lon="7.687189746648073">
        <ele>1768.001708984375</ele>
        <time>2004-08-08T08:52:53Z</time>
      </trkpt>
      <trkpt lat="45.816421173512936" lon="7.687174407765269">
        <ele>1768.001708984375</ele>
        <time>2004-08-08T08:52:58Z</time>
      </trkpt>
      <trkpt lat="45.816509267315269" lon="7.68717298284173">
        <ele>1768.482421875</ele>
        <time>2004-08-08T08:53:03Z</time>
      </trkpt>
      <trkpt lat="45.816607587039471" lon="7.687184885144234">
        <ele>1768.963134765625</ele>
        <time>2004-08-08T08:53:09Z</time>
      </trkpt>
      <trkpt lat="45.816702218726277" lon="7.687208605930209">
        <ele>1770.405029296875</ele>
        <time>2004-08-08T08:53:15Z</time>
      </trkpt>
      <trkpt lat="45.816795928403735" lon="7.687241630628705">
        <ele>1770.405029296875</ele>
        <time>2004-08-08T08:53:21Z</time>
      </trkpt>
      <trkpt lat="45.816889638081193" lon="7.687286054715514">
        <ele>1770.8857421875</ele>
        <time>2004-08-08T08:53:27Z</time>
      </trkpt>
      <trkpt lat="45.81697597168386" lon="7.687323186546564">
        <ele>1771.3662109375</ele>
        <time>2004-08-08T08:53:33Z</time>
      </trkpt>
      <trkpt lat="45.817075632512569" lon="7.687356043606997">
        <ele>1772.327880859375</ele>
        <time>2004-08-08T08:53:40Z</time>
      </trkpt>
      <trkpt lat="45.817166492342949" lon="7.687383368611336">
        <ele>1773.769775390625</ele>
        <time>2004-08-08T08:53:46Z</time>
      </trkpt>
      <trkpt lat="45.817266823723912" lon="7.687424523755908">
        <ele>1774.25048828125</ele>
        <time>2004-08-08T08:53:53Z</time>
      </trkpt>
      <trkpt lat="45.817357432097197" lon="7.687453357502818">
        <ele>1775.211669921875</ele>
        <time>2004-08-08T08:53:59Z</time>
      </trkpt>
      <trkpt lat="45.817446112632751" lon="7.68748520873487">
        <ele>1776.65380859375</ele>
        <time>2004-08-08T08:54:05Z</time>
      </trkpt>
      <trkpt lat="45.817529764026403" lon="7.687534242868424">
        <ele>1777.134521484375</ele>
        <time>2004-08-08T08:54:11Z</time>
      </trkpt>
      <trkpt lat="45.817605033516884" lon="7.687610937282443">
        <ele>1777.614990234375</ele>
        <time>2004-08-08T08:54:17Z</time>
      </trkpt>
      <trkpt lat="45.817675609141588" lon="7.687699198722839">
        <ele>1778.095703125</ele>
        <time>2004-08-08T08:54:23Z</time>
      </trkpt>
      <trkpt lat="45.817736713215709" lon="7.687783101573587">
        <ele>1777.614990234375</ele>
        <time>2004-08-08T08:54:29Z</time>
      </trkpt>
      <trkpt lat="45.817803181707859" lon="7.687870524823666">
        <ele>1778.095703125</ele>
        <time>2004-08-08T08:54:36Z</time>
      </trkpt>
      <trkpt lat="45.817878283560276" lon="7.68795283511281">
        <ele>1779.056884765625</ele>
        <time>2004-08-08T08:54:43Z</time>
      </trkpt>
      <trkpt lat="45.817967467010021" lon="7.688031038269401">
        <ele>1780.018310546875</ele>
        <time>2004-08-08T08:54:50Z</time>
      </trkpt>
      <trkpt lat="45.818055812269449" lon="7.688106307759881">
        <ele>1780.4990234375</ele>
        <time>2004-08-08T08:54:57Z</time>
      </trkpt>
      <trkpt lat="45.818136781454086" lon="7.688170680776238">
        <ele>1782.421630859375</ele>
        <time>2004-08-08T08:55:03Z</time>
      </trkpt>
      <trkpt lat="45.81820635125041" lon="7.68824159167707">
        <ele>1782.421630859375</ele>
        <time>2004-08-08T08:55:09Z</time>
      </trkpt>
      <trkpt lat="45.81827231682837" lon="7.688339240849018">
        <ele>1782.902099609375</ele>
        <time>2004-08-08T08:55:16Z</time>
      </trkpt>
      <trkpt lat="45.818325541913509" lon="7.688438985496759">
        <ele>1783.3828125</ele>
        <time>2004-08-08T08:55:22Z</time>
      </trkpt>
      <trkpt lat="45.818377258256078" lon="7.688549626618624">
        <ele>1783.863525390625</ele>
        <time>2004-08-08T08:55:28Z</time>
      </trkpt>
      <trkpt lat="45.818426124751568" lon="7.68867451697588">
        <ele>1784.824951171875</ele>
        <time>2004-08-08T08:55:35Z</time>
      </trkpt>
      <trkpt lat="45.81847557798028" lon="7.688792031258345">
        <ele>1785.7861328125</ele>
        <time>2004-08-08T08:55:41Z</time>
      </trkpt>
      <trkpt lat="45.818522097542882" lon="7.688919100910425">
        <ele>1787.22802734375</ele>
        <time>2004-08-08T08:55:48Z</time>
      </trkpt>
      <trkpt lat="45.818626452237368" lon="7.689006356522441">
        <ele>1785.7861328125</ele>
        <time>2004-08-08T08:59:02Z</time>
      </trkpt>
      <trkpt lat="45.81869300454855" lon="7.68910157494247">
        <ele>1787.22802734375</ele>
        <time>2004-08-08T08:59:07Z</time>
      </trkpt>
      <trkpt lat="45.818767184391618" lon="7.689182376489043">
        <ele>1788.67041015625</ele>
        <time>2004-08-08T08:59:12Z</time>
      </trkpt>
      <trkpt lat="45.81884010694921" lon="7.689256556332111">
        <ele>1788.189697265625</ele>
        <time>2004-08-08T08:59:17Z</time>
      </trkpt>
      <trkpt lat="45.818920908495784" lon="7.689325623214245">
        <ele>1788.67041015625</ele>
        <time>2004-08-08T08:59:23Z</time>
      </trkpt>
      <trkpt lat="45.81900573335588" lon="7.689403826370835">
        <ele>1790.1123046875</ele>
        <time>2004-08-08T08:59:30Z</time>
      </trkpt>
      <trkpt lat="45.819090893492103" lon="7.689477670937777">
        <ele>1790.5927734375</ele>
        <time>2004-08-08T08:59:37Z</time>
      </trkpt>
      <trkpt lat="45.819171527400613" lon="7.689549587666988">
        <ele>1790.5927734375</ele>
        <time>2004-08-08T08:59:44Z</time>
      </trkpt>
      <trkpt lat="45.819250736385584" lon="7.689640866592526">
        <ele>1791.55419921875</ele>
        <time>2004-08-08T08:59:52Z</time>
      </trkpt>
      <trkpt lat="45.819321647286415" lon="7.689715716987848">
        <ele>1792.99609375</ele>
        <time>2004-08-08T08:59:59Z</time>
      </trkpt>
      <trkpt lat="45.819385852664709" lon="7.68981403671205">
        <ele>1793.476806640625</ele>
        <time>2004-08-08T09:00:06Z</time>
      </trkpt>
      <trkpt lat="45.819449052214622" lon="7.689927108585835">
        <ele>1794.43798828125</ele>
        <time>2004-08-08T09:00:13Z</time>
      </trkpt>
      <trkpt lat="45.819511413574219" lon="7.690035402774811">
        <ele>1794.918701171875</ele>
        <time>2004-08-08T09:00:19Z</time>
      </trkpt>
      <trkpt lat="45.819568829610944" lon="7.690136153250933">
        <ele>1795.880126953125</ele>
        <time>2004-08-08T09:00:25Z</time>
      </trkpt>
      <trkpt lat="45.81963462755084" lon="7.69024402834475">
        <ele>1795.880126953125</ele>
        <time>2004-08-08T09:00:32Z</time>
      </trkpt>
      <trkpt lat="45.819711992517114" lon="7.690348969772458">
        <ele>1795.880126953125</ele>
        <time>2004-08-08T09:00:39Z</time>
      </trkpt>
      <trkpt lat="45.819771587848663" lon="7.690472854301333">
        <ele>1796.36083984375</ele>
        <time>2004-08-08T09:00:46Z</time>
      </trkpt>
      <trkpt lat="45.819832691922784" lon="7.690595481544733">
        <ele>1797.322021484375</ele>
        <time>2004-08-08T09:00:52Z</time>
      </trkpt>
      <trkpt lat="45.819889437407255" lon="7.690711319446564">
        <ele>1797.322021484375</ele>
        <time>2004-08-08T09:00:58Z</time>
      </trkpt>
      <trkpt lat="45.819951044395566" lon="7.690810644999147">
        <ele>1797.802734375</ele>
        <time>2004-08-08T09:01:03Z</time>
      </trkpt>
      <trkpt lat="45.820044167339802" lon="7.690898906439543">
        <ele>1797.802734375</ele>
        <time>2004-08-08T09:01:08Z</time>
      </trkpt>
      <trkpt lat="45.82013787701726" lon="7.690976690500975">
        <ele>1797.802734375</ele>
        <time>2004-08-08T09:01:13Z</time>
      </trkpt>
      <trkpt lat="45.820227647200227" lon="7.691046176478267">
        <ele>1799.24462890625</ele>
        <time>2004-08-08T09:01:18Z</time>
      </trkpt>
      <trkpt lat="45.820323955267668" lon="7.691110130399466">
        <ele>1799.24462890625</ele>
        <time>2004-08-08T09:01:24Z</time>
      </trkpt>
      <trkpt lat="45.820410121232271" lon="7.691151201725006">
        <ele>1800.2060546875</ele>
        <time>2004-08-08T09:01:30Z</time>
      </trkpt>
      <trkpt lat="45.820509782060981" lon="7.69114650785923">
        <ele>1801.64794921875</ele>
        <time>2004-08-08T09:01:37Z</time>
      </trkpt>
      <trkpt lat="45.820596618577838" lon="7.691118596121669">
        <ele>1803.08984375</ele>
        <time>2004-08-08T09:01:44Z</time>
      </trkpt>
      <trkpt lat="45.820671133697033" lon="7.691045505926013">
        <ele>1803.570556640625</ele>
        <time>2004-08-08T09:01:51Z</time>
      </trkpt>
      <trkpt lat="45.820722095668316" lon="7.690928746014834">
        <ele>1804.531982421875</ele>
        <time>2004-08-08T09:01:59Z</time>
      </trkpt>
      <trkpt lat="45.82075260579586" lon="7.690799999982119">
        <ele>1806.935302734375</ele>
        <time>2004-08-08T09:02:07Z</time>
      </trkpt>
      <trkpt lat="45.82077213563025" lon="7.690665721893311">
        <ele>1807.416015625</ele>
        <time>2004-08-08T09:02:15Z</time>
      </trkpt>
      <trkpt lat="45.820766352117062" lon="7.690522642806172">
        <ele>1807.416015625</ele>
        <time>2004-08-08T09:02:23Z</time>
      </trkpt>
      <trkpt lat="45.820710109546781" lon="7.690421054139733">
        <ele>1808.85791015625</ele>
        <time>2004-08-08T09:02:30Z</time>
      </trkpt>
      <trkpt lat="45.820639617741108" lon="7.690329607576132">
        <ele>1810.2998046875</ele>
        <time>2004-08-08T09:02:38Z</time>
      </trkpt>
      <trkpt lat="45.820575077086687" lon="7.690236149355769">
        <ele>1811.26123046875</ele>
        <time>2004-08-08T09:02:46Z</time>
      </trkpt>
      <trkpt lat="45.820512045174837" lon="7.690133890137076">
        <ele>1811.741943359375</ele>
        <time>2004-08-08T09:02:54Z</time>
      </trkpt>
      <trkpt lat="45.82044230774045" lon="7.690032469108701">
        <ele>1813.183837890625</ele>
        <time>2004-08-08T09:03:02Z</time>
      </trkpt>
      <trkpt lat="45.820374330505729" lon="7.689929287880659">
        <ele>1813.183837890625</ele>
        <time>2004-08-08T09:03:10Z</time>
      </trkpt>
      <trkpt lat="45.820306520909071" lon="7.689830381423235">
        <ele>1815.1064453125</ele>
        <time>2004-08-08T09:03:18Z</time>
      </trkpt>
      <trkpt lat="45.820238962769508" lon="7.689738012850285">
        <ele>1816.067626953125</ele>
        <time>2004-08-08T09:03:26Z</time>
      </trkpt>
      <trkpt lat="45.82019068300724" lon="7.689619241282344">
        <ele>1817.029052734375</ele>
        <time>2004-08-08T09:03:34Z</time>
      </trkpt>
      <trkpt lat="45.820151036605239" lon="7.689503151923418">
        <ele>1817.509521484375</ele>
        <time>2004-08-08T09:03:42Z</time>
      </trkpt>
      <trkpt lat="45.820109797641635" lon="7.689372813329101">
        <ele>1817.990234375</ele>
        <time>2004-08-08T09:03:50Z</time>
      </trkpt>
      <trkpt lat="45.820071743801236" lon="7.689244654029608">
        <ele>1818.95166015625</ele>
        <time>2004-08-08T09:03:58Z</time>
      </trkpt>
      <trkpt lat="45.820033354684711" lon="7.68910794518888">
        <ele>1818.95166015625</ele>
        <time>2004-08-08T09:04:06Z</time>
      </trkpt>
      <trkpt lat="45.819993373006582" lon="7.688981797546148">
        <ele>1819.912841796875</ele>
        <time>2004-08-08T09:04:14Z</time>
      </trkpt>
      <trkpt lat="45.819951966404915" lon="7.688859337940812">
        <ele>1821.35498046875</ele>
        <time>2004-08-08T09:04:22Z</time>
      </trkpt>
      <trkpt lat="45.819911817088723" lon="7.68873168155551">
        <ele>1822.797119140625</ele>
        <time>2004-08-08T09:04:30Z</time>
      </trkpt>
      <trkpt lat="45.819870159029961" lon="7.688606455922127">
        <ele>1823.75830078125</ele>
        <time>2004-08-08T09:04:38Z</time>
      </trkpt>
      <trkpt lat="45.819821292534471" lon="7.688488019630313">
        <ele>1825.680908203125</ele>
        <time>2004-08-08T09:04:46Z</time>
      </trkpt>
      <trkpt lat="45.819790782406926" lon="7.688360614702106">
        <ele>1826.642333984375</ele>
        <time>2004-08-08T09:04:54Z</time>
      </trkpt>
      <trkpt lat="45.819764211773872" lon="7.688213679939508">
        <ele>1827.123046875</ele>
        <time>2004-08-08T09:05:03Z</time>
      </trkpt>
      <trkpt lat="45.819753566756845" lon="7.688070936128497">
        <ele>1827.603515625</ele>
        <time>2004-08-08T09:05:12Z</time>
      </trkpt>
      <trkpt lat="45.8197455201298" lon="7.687930539250374">
        <ele>1829.526123046875</ele>
        <time>2004-08-08T09:05:20Z</time>
      </trkpt>
      <trkpt lat="45.819743340834975" lon="7.687789723277092">
        <ele>1829.526123046875</ele>
        <time>2004-08-08T09:05:28Z</time>
      </trkpt>
      <trkpt lat="45.819730097427964" lon="7.687653517350555">
        <ele>1830.487548828125</ele>
        <time>2004-08-08T09:05:36Z</time>
      </trkpt>
      <trkpt lat="45.819717943668365" lon="7.687522005289793">
        <ele>1831.44873046875</ele>
        <time>2004-08-08T09:05:44Z</time>
      </trkpt>
      <trkpt lat="45.819701179862022" lon="7.687393175438047">
        <ele>1831.929443359375</ele>
        <time>2004-08-08T09:05:52Z</time>
      </trkpt>
      <trkpt lat="45.81967905163765" lon="7.687266357243061">
        <ele>1832.41015625</ele>
        <time>2004-08-08T09:06:00Z</time>
      </trkpt>
      <trkpt lat="45.819656923413277" lon="7.687134426087141">
        <ele>1833.371337890625</ele>
        <time>2004-08-08T09:06:08Z</time>
      </trkpt>
      <trkpt lat="45.8196419198066" lon="7.687003249302506">
        <ele>1834.8134765625</ele>
        <time>2004-08-08T09:06:16Z</time>
      </trkpt>
      <trkpt lat="45.819634208455682" lon="7.686865450814366">
        <ele>1836.255615234375</ele>
        <time>2004-08-08T09:06:24Z</time>
      </trkpt>
      <trkpt lat="45.819639069959521" lon="7.686723629012704">
        <ele>1837.697509765625</ele>
        <time>2004-08-08T09:06:32Z</time>
      </trkpt>
      <trkpt lat="45.819662287831306" lon="7.686594128608704">
        <ele>1838.17822265625</ele>
        <time>2004-08-08T09:06:40Z</time>
      </trkpt>
      <trkpt lat="45.819694055244327" lon="7.68646253272891">
        <ele>1838.17822265625</ele>
        <time>2004-08-08T09:06:48Z</time>
      </trkpt>
      <trkpt lat="45.819721547886729" lon="7.686339151114225">
        <ele>1839.139404296875</ele>
        <time>2004-08-08T09:06:55Z</time>
      </trkpt>
      <trkpt lat="45.819719620049" lon="7.686199592426419">
        <ele>1840.581298828125</ele>
        <time>2004-08-08T09:07:03Z</time>
      </trkpt>
      <trkpt lat="45.819680225104094" lon="7.686073947697878">
        <ele>1840.581298828125</ele>
        <time>2004-08-08T09:07:11Z</time>
      </trkpt>
      <trkpt lat="45.819621970877051" lon="7.685977220535278">
        <ele>1841.542724609375</ele>
        <time>2004-08-08T09:07:19Z</time>
      </trkpt>
      <trkpt lat="45.819560531526804" lon="7.685880744829774">
        <ele>1842.504150390625</ele>
        <time>2004-08-08T09:07:27Z</time>
      </trkpt>
      <trkpt lat="45.819505965337157" lon="7.685775719583035">
        <ele>1842.984619140625</ele>
        <time>2004-08-08T09:07:34Z</time>
      </trkpt>
      <trkpt lat="45.819492638111115" lon="7.685649823397398">
        <ele>1844.426513671875</ele>
        <time>2004-08-08T09:07:41Z</time>
      </trkpt>
      <trkpt lat="45.819503869861364" lon="7.685522502288222">
        <ele>1844.9072265625</ele>
        <time>2004-08-08T09:07:48Z</time>
      </trkpt>
      <trkpt lat="45.819530943408608" lon="7.685402724891901">
        <ele>1844.9072265625</ele>
        <time>2004-08-08T09:07:55Z</time>
      </trkpt>
      <trkpt lat="45.81955449655652" lon="7.685266183689237">
        <ele>1846.349365234375</ele>
        <time>2004-08-08T09:08:02Z</time>
      </trkpt>
      <trkpt lat="45.819538319483399" lon="7.685131821781397">
        <ele>1846.829833984375</ele>
        <time>2004-08-08T09:08:09Z</time>
      </trkpt>
      <trkpt lat="45.819478975608945" lon="7.684979774057865">
        <ele>1847.791259765625</ele>
        <time>2004-08-08T09:09:12Z</time>
      </trkpt>
      <trkpt lat="45.819409657269716" lon="7.684866031631827">
        <ele>1848.271728515625</ele>
        <time>2004-08-08T09:09:19Z</time>
      </trkpt>
      <trkpt lat="45.819334052503109" lon="7.684779698029161">
        <ele>1848.75244140625</ele>
        <time>2004-08-08T09:09:24Z</time>
      </trkpt>
      <trkpt lat="45.819257609546185" lon="7.684717923402786">
        <ele>1849.233154296875</ele>
        <time>2004-08-08T09:09:29Z</time>
      </trkpt>
      <trkpt lat="45.819151746109128" lon="7.684717085212469">
        <ele>1849.233154296875</ele>
        <time>2004-08-08T09:09:35Z</time>
      </trkpt>
      <trkpt lat="45.819064322859049" lon="7.684749271720648">
        <ele>1850.194580078125</ele>
        <time>2004-08-08T09:09:40Z</time>
      </trkpt>
      <trkpt lat="45.818975809961557" lon="7.684778943657875">
        <ele>1850.675048828125</ele>
        <time>2004-08-08T09:09:45Z</time>
      </trkpt>
      <trkpt lat="45.818874724209309" lon="7.68477525562048">
        <ele>1851.15576171875</ele>
        <time>2004-08-08T09:09:51Z</time>
      </trkpt>
      <trkpt lat="45.818772884085774" lon="7.68474742770195">
        <ele>1851.15576171875</ele>
        <time>2004-08-08T09:09:57Z</time>
      </trkpt>
      <trkpt lat="45.818686550483108" lon="7.684688335284591">
        <ele>1852.1171875</ele>
        <time>2004-08-08T09:10:03Z</time>
      </trkpt>
      <trkpt lat="45.818602899089456" lon="7.684610802680254">
        <ele>1852.1171875</ele>
        <time>2004-08-08T09:10:09Z</time>
      </trkpt>
      <trkpt lat="45.81852687522769" lon="7.684509884566069">
        <ele>1852.597900390625</ele>
        <time>2004-08-08T09:10:15Z</time>
      </trkpt>
      <trkpt lat="45.818463340401649" lon="7.684405529871583">
        <ele>1853.559326171875</ele>
        <time>2004-08-08T09:10:21Z</time>
      </trkpt>
      <trkpt lat="45.818396033719182" lon="7.684299247339368">
        <ele>1854.0400390625</ele>
        <time>2004-08-08T09:10:28Z</time>
      </trkpt>
      <trkpt lat="45.81832168623805" lon="7.684219367802143">
        <ele>1854.5205078125</ele>
        <time>2004-08-08T09:10:35Z</time>
      </trkpt>
      <trkpt lat="45.818237951025367" lon="7.684149127453566">
        <ele>1855.001220703125</ele>
        <time>2004-08-08T09:10:42Z</time>
      </trkpt>
      <trkpt lat="45.818150024861097" lon="7.684083748608828">
        <ele>1855.001220703125</ele>
        <time>2004-08-08T09:10:48Z</time>
      </trkpt>
      <trkpt lat="45.818062350153923" lon="7.684024404734373">
        <ele>1856.443115234375</ele>
        <time>2004-08-08T09:10:54Z</time>
      </trkpt>
      <trkpt lat="45.817975010722876" lon="7.683967407792807">
        <ele>1856.443115234375</ele>
        <time>2004-08-08T09:11:01Z</time>
      </trkpt>
      <trkpt lat="45.817887922748923" lon="7.683942848816514">
        <ele>1856.923828125</ele>
        <time>2004-08-08T09:11:07Z</time>
      </trkpt>
      <trkpt lat="45.817796811461449" lon="7.683928767219186">
        <ele>1857.88525390625</ele>
        <time>2004-08-08T09:11:13Z</time>
      </trkpt>
      <trkpt lat="45.817698072642088" lon="7.683903202414513">
        <ele>1858.36572265625</ele>
        <time>2004-08-08T09:11:19Z</time>
      </trkpt>
      <trkpt lat="45.817609392106533" lon="7.683885851874948">
        <ele>1859.3271484375</ele>
        <time>2004-08-08T09:11:24Z</time>
      </trkpt>
      <trkpt lat="45.817508641630411" lon="7.683854335919023">
        <ele>1858.846435546875</ele>
        <time>2004-08-08T09:11:30Z</time>
      </trkpt>
      <trkpt lat="45.817405292764306" lon="7.683836398646236">
        <ele>1860.76904296875</ele>
        <time>2004-08-08T09:11:36Z</time>
      </trkpt>
      <trkpt lat="45.817318288609385" lon="7.683805637061596">
        <ele>1860.288330078125</ele>
        <time>2004-08-08T09:11:41Z</time>
      </trkpt>
      <trkpt lat="45.817219465970993" lon="7.683784263208509">
        <ele>1861.73046875</ele>
        <time>2004-08-08T09:11:47Z</time>
      </trkpt>
      <trkpt lat="45.817124666646123" lon="7.683765320107341">
        <ele>1862.2109375</ele>
        <time>2004-08-08T09:11:53Z</time>
      </trkpt>
      <trkpt lat="45.817028610035777" lon="7.683730367571116">
        <ele>1861.73046875</ele>
        <time>2004-08-08T09:11:59Z</time>
      </trkpt>
      <trkpt lat="45.816938001662493" lon="7.683711592108011">
        <ele>1862.2109375</ele>
        <time>2004-08-08T09:12:05Z</time>
      </trkpt>
      <trkpt lat="45.816838340833783" lon="7.683680159971118">
        <ele>1862.691650390625</ele>
        <time>2004-08-08T09:12:12Z</time>
      </trkpt>
      <trkpt lat="45.816739769652486" lon="7.683654678985477">
        <ele>1863.65283203125</ele>
        <time>2004-08-08T09:12:19Z</time>
      </trkpt>
      <trkpt lat="45.816646981984377" lon="7.683647722005844">
        <ele>1865.094970703125</ele>
        <time>2004-08-08T09:12:26Z</time>
      </trkpt>
      <trkpt lat="45.816548075526953" lon="7.683646799996495">
        <ele>1866.05615234375</ele>
        <time>2004-08-08T09:12:34Z</time>
      </trkpt>
      <trkpt lat="45.816451432183385" lon="7.683650739490986">
        <ele>1867.017578125</ele>
        <time>2004-08-08T09:12:42Z</time>
      </trkpt>
      <trkpt lat="45.816361242905259" lon="7.683658618479967">
        <ele>1867.978759765625</ele>
        <time>2004-08-08T09:12:50Z</time>
      </trkpt>
      <trkpt lat="45.816270802170038" lon="7.683678651228547">
        <ele>1868.459716796875</ele>
        <time>2004-08-08T09:12:58Z</time>
      </trkpt>
      <trkpt lat="45.816165274009109" lon="7.683704299852252">
        <ele>1868.9404296875</ele>
        <time>2004-08-08T09:13:06Z</time>
      </trkpt>
      <trkpt lat="45.816072151064873" lon="7.68373204395175">
        <ele>1869.901611328125</ele>
        <time>2004-08-08T09:13:13Z</time>
      </trkpt>
      <trkpt lat="45.815975423902273" lon="7.683739671483636">
        <ele>1871.343505859375</ele>
        <time>2004-08-08T09:13:21Z</time>
      </trkpt>
      <trkpt lat="45.815870733931661" lon="7.68372324295342">
        <ele>1871.82421875</ele>
        <time>2004-08-08T09:13:29Z</time>
      </trkpt>
      <trkpt lat="45.815779203549027" lon="7.683695079758763">
        <ele>1872.78564453125</ele>
        <time>2004-08-08T09:13:36Z</time>
      </trkpt>
      <trkpt lat="45.81569236703217" lon="7.683640765026212">
        <ele>1872.78564453125</ele>
        <time>2004-08-08T09:13:43Z</time>
      </trkpt>
      <trkpt lat="45.815607206895947" lon="7.683568429201841">
        <ele>1873.746826171875</ele>
        <time>2004-08-08T09:13:50Z</time>
      </trkpt>
      <trkpt lat="45.815522465854883" lon="7.683504894375801">
        <ele>1874.2275390625</ele>
        <time>2004-08-08T09:13:57Z</time>
      </trkpt>
      <trkpt lat="45.815440658479929" lon="7.683443455025554">
        <ele>1874.2275390625</ele>
        <time>2004-08-08T09:14:04Z</time>
      </trkpt>
      <trkpt lat="45.815354157239199" lon="7.683381261304021">
        <ele>1875.188720703125</ele>
        <time>2004-08-08T09:14:11Z</time>
      </trkpt>
      <trkpt lat="45.81527017056942" lon="7.683332143351436">
        <ele>1875.188720703125</ele>
        <time>2004-08-08T09:14:17Z</time>
      </trkpt>
      <trkpt lat="45.815176963806152" lon="7.683291072025895">
        <ele>1875.188720703125</ele>
        <time>2004-08-08T09:14:24Z</time>
      </trkpt>
      <trkpt lat="45.815081829205155" lon="7.683243965730071">
        <ele>1876.150146484375</ele>
        <time>2004-08-08T09:14:31Z</time>
      </trkpt>
      <trkpt lat="45.814992226660252" lon="7.683208594098687">
        <ele>1876.630859375</ele>
        <time>2004-08-08T09:14:37Z</time>
      </trkpt>
      <trkpt lat="45.814899941906333" lon="7.683177916333079">
        <ele>1877.111572265625</ele>
        <time>2004-08-08T09:14:43Z</time>
      </trkpt>
      <trkpt lat="45.814803885295987" lon="7.683143215253949">
        <ele>1877.111572265625</ele>
        <time>2004-08-08T09:14:49Z</time>
      </trkpt>
      <trkpt lat="45.814704224467278" lon="7.683114297688007">
        <ele>1877.592041015625</ele>
        <time>2004-08-08T09:14:55Z</time>
      </trkpt>
      <trkpt lat="45.814618393778801" lon="7.683086302131414">
        <ele>1878.553466796875</ele>
        <time>2004-08-08T09:15:00Z</time>
      </trkpt>
      <trkpt lat="45.814525103196502" lon="7.683059312403202">
        <ele>1879.033935546875</ele>
        <time>2004-08-08T09:15:06Z</time>
      </trkpt>
      <trkpt lat="45.814433321356773" lon="7.683031819760799">
        <ele>1879.5146484375</ele>
        <time>2004-08-08T09:15:12Z</time>
      </trkpt>
      <trkpt lat="45.814337516203523" lon="7.683002231642604">
        <ele>1880.47607421875</ele>
        <time>2004-08-08T09:15:19Z</time>
      </trkpt>
      <trkpt lat="45.81423768773675" lon="7.682969709858298">
        <ele>1880.956787109375</ele>
        <time>2004-08-08T09:15:26Z</time>
      </trkpt>
      <trkpt lat="45.814147749915719" lon="7.682938948273659">
        <ele>1882.398681640625</ele>
        <time>2004-08-08T09:15:32Z</time>
      </trkpt>
      <trkpt lat="45.814049514010549" lon="7.682908521965146">
        <ele>1882.398681640625</ele>
        <time>2004-08-08T09:15:39Z</time>
      </trkpt>
      <trkpt lat="45.813949769362807" lon="7.682876922190189">
        <ele>1882.879150390625</ele>
        <time>2004-08-08T09:15:46Z</time>
      </trkpt>
      <trkpt lat="45.813845163211226" lon="7.682879352942109">
        <ele>1883.35986328125</ele>
        <time>2004-08-08T09:15:53Z</time>
      </trkpt>
      <trkpt lat="45.813749106600881" lon="7.682916820049286">
        <ele>1884.80224609375</ele>
        <time>2004-08-08T09:16:00Z</time>
      </trkpt>
      <trkpt lat="45.813701162114739" lon="7.682818751782179">
        <ele>1885.28271484375</ele>
        <time>2004-08-08T09:16:08Z</time>
      </trkpt>
      <trkpt lat="45.81370267085731" lon="7.682644827291369">
        <ele>1885.28271484375</ele>
        <time>2004-08-08T09:16:48Z</time>
      </trkpt>
      <trkpt lat="45.813706945627928" lon="7.682513985782862">
        <ele>1886.244140625</ele>
        <time>2004-08-08T09:16:53Z</time>
      </trkpt>
      <trkpt lat="45.813755560666323" lon="7.682399824261665">
        <ele>1886.724609375</ele>
        <time>2004-08-08T09:17:00Z</time>
      </trkpt>
      <trkpt lat="45.813848013058305" lon="7.682372499257326">
        <ele>1888.166748046875</ele>
        <time>2004-08-08T09:18:12Z</time>
      </trkpt>
      <trkpt lat="45.813952032476664" lon="7.682386413216591">
        <ele>1889.1279296875</ele>
        <time>2004-08-08T09:18:21Z</time>
      </trkpt>
      <trkpt lat="45.814053202047944" lon="7.682406529784203">
        <ele>1889.1279296875</ele>
        <time>2004-08-08T09:18:30Z</time>
      </trkpt>
      <trkpt lat="45.814150935038924" lon="7.682421030476689">
        <ele>1889.608642578125</ele>
        <time>2004-08-08T09:18:40Z</time>
      </trkpt>
      <trkpt lat="45.814246321097016" lon="7.682434022426605">
        <ele>1890.56982421875</ele>
        <time>2004-08-08T09:18:48Z</time>
      </trkpt>
      <trkpt lat="45.814337432384491" lon="7.682443493977189">
        <ele>1890.56982421875</ele>
        <time>2004-08-08T09:18:56Z</time>
      </trkpt>
      <trkpt lat="45.814434411004186" lon="7.682452378794551">
        <ele>1891.53125</ele>
        <time>2004-08-08T09:19:04Z</time>
      </trkpt>
      <trkpt lat="45.814526360481977" lon="7.682463442906737">
        <ele>1892.011962890625</ele>
        <time>2004-08-08T09:19:12Z</time>
      </trkpt>
      <trkpt lat="45.814599702134728" lon="7.682464364916086">
        <ele>1892.011962890625</ele>
        <time>2004-08-08T09:19:26Z</time>
      </trkpt>
      <trkpt lat="45.814691735431552" lon="7.682500658556819">
        <ele>1894.4150390625</ele>
        <time>2004-08-08T09:26:45Z</time>
      </trkpt>
      <trkpt lat="45.814781337976456" lon="7.682494036853313">
        <ele>1894.4150390625</ele>
        <time>2004-08-08T09:26:50Z</time>
      </trkpt>
      <trkpt lat="45.814866414293647" lon="7.682451792061329">
        <ele>1894.895751953125</ele>
        <time>2004-08-08T09:26:55Z</time>
      </trkpt>
      <trkpt lat="45.814923662692308" lon="7.682352215051651">
        <ele>1895.37646484375</ele>
        <time>2004-08-08T09:27:00Z</time>
      </trkpt>
      <trkpt lat="45.814934056252241" lon="7.68221634440124">
        <ele>1896.337890625</ele>
        <time>2004-08-08T09:27:05Z</time>
      </trkpt>
      <trkpt lat="45.814904468134046" lon="7.682074354961515">
        <ele>1895.857177734375</ele>
        <time>2004-08-08T09:27:10Z</time>
      </trkpt>
      <trkpt lat="45.814866833388805" lon="7.681933958083391">
        <ele>1896.818359375</ele>
        <time>2004-08-08T09:27:15Z</time>
      </trkpt>
      <trkpt lat="45.814824420958757" lon="7.681803535670042">
        <ele>1896.818359375</ele>
        <time>2004-08-08T09:27:20Z</time>
      </trkpt>
      <trkpt lat="45.814771112054586" lon="7.68167395144701">
        <ele>1895.857177734375</ele>
        <time>2004-08-08T09:27:26Z</time>
      </trkpt>
      <trkpt lat="45.814698105677962" lon="7.681502792984247">
        <ele>1896.818359375</ele>
        <time>2004-08-08T09:30:29Z</time>
      </trkpt>
      <trkpt lat="45.814650915563107" lon="7.681386284530163">
        <ele>1897.77978515625</ele>
        <time>2004-08-08T09:30:37Z</time>
      </trkpt>
      <trkpt lat="45.814601629972458" lon="7.681261394172907">
        <ele>1898.740966796875</ele>
        <time>2004-08-08T09:30:44Z</time>
      </trkpt>
      <trkpt lat="45.814549494534731" lon="7.681170534342527">
        <ele>1899.2216796875</ele>
        <time>2004-08-08T09:30:51Z</time>
      </trkpt>
      <trkpt lat="45.814475147053599" lon="7.681102473288775">
        <ele>1900.183349609375</ele>
        <time>2004-08-08T09:30:58Z</time>
      </trkpt>
      <trkpt lat="45.814406834542751" lon="7.681047488003969">
        <ele>1900.183349609375</ele>
        <time>2004-08-08T09:31:04Z</time>
      </trkpt>
      <trkpt lat="45.814329469576478" lon="7.680996526032686">
        <ele>1901.14453125</ele>
        <time>2004-08-08T09:31:10Z</time>
      </trkpt>
      <trkpt lat="45.814251434057951" lon="7.68095176666975">
        <ele>1902.105712890625</ele>
        <time>2004-08-08T09:31:16Z</time>
      </trkpt>
      <trkpt lat="45.814176164567471" lon="7.680886304005981">
        <ele>1903.5478515625</ele>
        <time>2004-08-08T09:31:23Z</time>
      </trkpt>
      <trkpt lat="45.814087064936757" lon="7.680824445560575">
        <ele>1904.509033203125</ele>
        <time>2004-08-08T09:31:30Z</time>
      </trkpt>
      <trkpt lat="45.814010705798864" lon="7.680763509124517">
        <ele>1904.98974609375</ele>
        <time>2004-08-08T09:31:36Z</time>
      </trkpt>
      <trkpt lat="45.813923114910722" lon="7.680715480819345">
        <ele>1905.470458984375</ele>
        <time>2004-08-08T09:31:42Z</time>
      </trkpt>
      <trkpt lat="45.813834853470325" lon="7.680710703134537">
        <ele>1906.912353515625</ele>
        <time>2004-08-08T09:31:48Z</time>
      </trkpt>
      <trkpt lat="45.813745083287358" lon="7.680780021473765">
        <ele>1909.315673828125</ele>
        <time>2004-08-08T09:31:55Z</time>
      </trkpt>
      <trkpt lat="45.813665371388197" lon="7.680859649553895">
        <ele>1909.796142578125</ele>
        <time>2004-08-08T09:32:01Z</time>
      </trkpt>
      <trkpt lat="45.813580295071006" lon="7.680932655930519">
        <ele>1911.718994140625</ele>
        <time>2004-08-08T09:32:08Z</time>
      </trkpt>
      <trkpt lat="45.813488932326436" lon="7.680971883237362">
        <ele>1911.718994140625</ele>
        <time>2004-08-08T09:32:15Z</time>
      </trkpt>
      <trkpt lat="45.813392037525773" lon="7.680979175493121">
        <ele>1912.68017578125</ele>
        <time>2004-08-08T09:32:22Z</time>
      </trkpt>
      <trkpt lat="45.813299585133791" lon="7.680952437222004">
        <ele>1913.160888671875</ele>
        <time>2004-08-08T09:32:29Z</time>
      </trkpt>
      <trkpt lat="45.813215598464012" lon="7.680895440280438">
        <ele>1913.160888671875</ele>
        <time>2004-08-08T09:32:36Z</time>
      </trkpt>
      <trkpt lat="45.813125828281045" lon="7.680825116112828">
        <ele>1913.641357421875</ele>
        <time>2004-08-08T09:32:44Z</time>
      </trkpt>
      <trkpt lat="45.813042679801583" lon="7.680744733661413">
        <ele>1914.602783203125</ele>
        <time>2004-08-08T09:32:51Z</time>
      </trkpt>
      <trkpt lat="45.812953915446997" lon="7.680662926286459">
        <ele>1915.564208984375</ele>
        <time>2004-08-08T09:32:58Z</time>
      </trkpt>
      <trkpt lat="45.812872359529138" lon="7.680572485551238">
        <ele>1915.08349609375</ele>
        <time>2004-08-08T09:33:05Z</time>
      </trkpt>
      <trkpt lat="45.812796419486403" lon="7.68049051053822">
        <ele>1916.044921875</ele>
        <time>2004-08-08T09:33:11Z</time>
      </trkpt>
      <trkpt lat="45.812723999843001" lon="7.680411217734218">
        <ele>1915.564208984375</ele>
        <time>2004-08-08T09:33:17Z</time>
      </trkpt>
      <trkpt lat="45.81264914944768" lon="7.680326895788312">
        <ele>1916.044921875</ele>
        <time>2004-08-08T09:33:23Z</time>
      </trkpt>
      <trkpt lat="45.812580250203609" lon="7.680239640176296">
        <ele>1917.00634765625</ele>
        <time>2004-08-08T09:33:29Z</time>
      </trkpt>
      <trkpt lat="45.812511937692761" lon="7.680120030418038">
        <ele>1917.48681640625</ele>
        <time>2004-08-08T09:33:35Z</time>
      </trkpt>
      <trkpt lat="45.812448067590594" lon="7.68001995049417">
        <ele>1918.928955078125</ele>
        <time>2004-08-08T09:33:41Z</time>
      </trkpt>
      <trkpt lat="45.812377156689763" lon="7.67993344925344">
        <ele>1919.40966796875</ele>
        <time>2004-08-08T09:33:47Z</time>
      </trkpt>
      <trkpt lat="45.812300713732839" lon="7.679866142570972">
        <ele>1919.89013671875</ele>
        <time>2004-08-08T09:33:53Z</time>
      </trkpt>
      <trkpt lat="45.812207087874413" lon="7.679803613573313">
        <ele>1920.370849609375</ele>
        <time>2004-08-08T09:34:00Z</time>
      </trkpt>
      <trkpt lat="45.812115976586938" lon="7.679740078747273">
        <ele>1921.33203125</ele>
        <time>2004-08-08T09:34:07Z</time>
      </trkpt>
      <trkpt lat="45.812034420669079" lon="7.679671179503202">
        <ele>1922.774169921875</ele>
        <time>2004-08-08T09:34:13Z</time>
      </trkpt>
      <trkpt lat="45.811974909156561" lon="7.679557101801038">
        <ele>1924.69677734375</ele>
        <time>2004-08-08T09:34:19Z</time>
      </trkpt>
      <trkpt lat="45.811943393200636" lon="7.679418381303549">
        <ele>1925.657958984375</ele>
        <time>2004-08-08T09:34:25Z</time>
      </trkpt>
      <trkpt lat="45.811917996034026" lon="7.679275721311569">
        <ele>1926.138671875</ele>
        <time>2004-08-08T09:34:31Z</time>
      </trkpt>
      <trkpt lat="45.811895281076431" lon="7.679129289463162">
        <ele>1926.138671875</ele>
        <time>2004-08-08T09:34:37Z</time>
      </trkpt>
      <trkpt lat="45.811868375167251" lon="7.678983276709914">
        <ele>1927.58056640625</ele>
        <time>2004-08-08T09:34:43Z</time>
      </trkpt>
      <trkpt lat="45.811833338811994" lon="7.678859476000071">
        <ele>1928.061279296875</ele>
        <time>2004-08-08T09:34:49Z</time>
      </trkpt>
      <trkpt lat="45.811803750693798" lon="7.678710445761681">
        <ele>1929.0224609375</ele>
        <time>2004-08-08T09:34:56Z</time>
      </trkpt>
      <trkpt lat="45.811784472316504" lon="7.678565019741654">
        <ele>1930.464599609375</ele>
        <time>2004-08-08T09:35:02Z</time>
      </trkpt>
      <trkpt lat="45.811743987724185" lon="7.67843920737505">
        <ele>1929.98388671875</ele>
        <time>2004-08-08T09:35:08Z</time>
      </trkpt>
      <trkpt lat="45.811699563637376" lon="7.678319178521633">
        <ele>1929.503173828125</ele>
        <time>2004-08-08T09:35:13Z</time>
      </trkpt>
      <trkpt lat="45.81164063885808" lon="7.678213650360704">
        <ele>1929.98388671875</ele>
        <time>2004-08-08T09:35:18Z</time>
      </trkpt>
      <trkpt lat="45.811576182022691" lon="7.678103428333998">
        <ele>1930.464599609375</ele>
        <time>2004-08-08T09:35:23Z</time>
      </trkpt>
      <trkpt lat="45.811514491215348" lon="7.677998319268227">
        <ele>1931.42578125</ele>
        <time>2004-08-08T09:35:28Z</time>
      </trkpt>
      <trkpt lat="45.811455147340894" lon="7.677875692024827">
        <ele>1930.9453125</ele>
        <time>2004-08-08T09:35:33Z</time>
      </trkpt>
      <trkpt lat="45.811391780152917" lon="7.677761530503631">
        <ele>1932.387451171875</ele>
        <time>2004-08-08T09:35:38Z</time>
      </trkpt>
      <trkpt lat="45.811325227841735" lon="7.677660780027509">
        <ele>1932.387451171875</ele>
        <time>2004-08-08T09:35:43Z</time>
      </trkpt>
      <trkpt lat="45.811239061877131" lon="7.677580900490284">
        <ele>1932.387451171875</ele>
        <time>2004-08-08T09:35:49Z</time>
      </trkpt>
      <trkpt lat="45.811145603656769" lon="7.67751032486558">
        <ele>1932.867919921875</ele>
        <time>2004-08-08T09:35:54Z</time>
      </trkpt>
      <trkpt lat="45.811060611158609" lon="7.677418626844883">
        <ele>1932.867919921875</ele>
        <time>2004-08-08T09:35:59Z</time>
      </trkpt>
      <trkpt lat="45.810983078554273" lon="7.677341597154737">
        <ele>1932.867919921875</ele>
        <time>2004-08-08T09:36:04Z</time>
      </trkpt>
      <trkpt lat="45.8108901232481" lon="7.677274625748396">
        <ele>1932.867919921875</ele>
        <time>2004-08-08T09:37:20Z</time>
      </trkpt>
      <trkpt lat="45.810799850150943" lon="7.677213018760085">
        <ele>1933.3486328125</ele>
        <time>2004-08-08T09:37:29Z</time>
      </trkpt>
      <trkpt lat="45.810714103281498" lon="7.67711746506393">
        <ele>1932.867919921875</ele>
        <time>2004-08-08T09:37:35Z</time>
      </trkpt>
      <trkpt lat="45.810620225965977" lon="7.677041357383132">
        <ele>1932.867919921875</ele>
        <time>2004-08-08T09:37:40Z</time>
      </trkpt>
      <trkpt lat="45.810524253174663" lon="7.676997352391481">
        <ele>1932.387451171875</ele>
        <time>2004-08-08T09:37:45Z</time>
      </trkpt>
      <trkpt lat="45.810410929843783" lon="7.676971033215523">
        <ele>1931.906494140625</ele>
        <time>2004-08-08T09:37:51Z</time>
      </trkpt>
      <trkpt lat="45.810311604291201" lon="7.676927866414189">
        <ele>1931.42578125</ele>
        <time>2004-08-08T09:37:56Z</time>
      </trkpt>
      <trkpt lat="45.810213955119252" lon="7.676914539188147">
        <ele>1930.9453125</ele>
        <time>2004-08-08T09:38:01Z</time>
      </trkpt>
      <trkpt lat="45.810131728649139" lon="7.676864163950086">
        <ele>1929.98388671875</ele>
        <time>2004-08-08T09:38:07Z</time>
      </trkpt>
      <trkpt lat="45.810051849111915" lon="7.676820326596499">
        <ele>1928.5419921875</ele>
        <time>2004-08-08T09:41:46Z</time>
      </trkpt>
      <trkpt lat="45.809952775016427" lon="7.676822505891323">
        <ele>1928.5419921875</ele>
        <time>2004-08-08T09:41:52Z</time>
      </trkpt>
      <trkpt lat="45.80986836925149" lon="7.676802724599838">
        <ele>1929.0224609375</ele>
        <time>2004-08-08T09:41:59Z</time>
      </trkpt>
      <trkpt lat="45.809761499986053" lon="7.676720079034567">
        <ele>1927.10009765625</ele>
        <time>2004-08-08T09:45:28Z</time>
      </trkpt>
      <trkpt lat="45.809724451974034" lon="7.676589237526059">
        <ele>1926.619384765625</ele>
        <time>2004-08-08T09:45:32Z</time>
      </trkpt>
      <trkpt lat="45.809703916311264" lon="7.676416905596852">
        <ele>1926.619384765625</ele>
        <time>2004-08-08T09:45:36Z</time>
      </trkpt>
      <trkpt lat="45.809689750894904" lon="7.676299056038261">
        <ele>1927.10009765625</ele>
        <time>2004-08-08T09:45:39Z</time>
      </trkpt>
      <trkpt lat="45.80967927351594" lon="7.676186319440603">
        <ele>1927.58056640625</ele>
        <time>2004-08-08T09:45:45Z</time>
      </trkpt>
      <trkpt lat="45.809730822220445" lon="7.676094705238938">
        <ele>1927.10009765625</ele>
        <time>2004-08-08T09:46:09Z</time>
      </trkpt>
      <trkpt lat="45.809727134183049" lon="7.675962187349796">
        <ele>1927.10009765625</ele>
        <time>2004-08-08T09:46:16Z</time>
      </trkpt>
      <trkpt lat="45.809706430882215" lon="7.675829753279686">
        <ele>1927.58056640625</ele>
        <time>2004-08-08T09:46:23Z</time>
      </trkpt>
      <trkpt lat="45.809694863855839" lon="7.675679381936789">
        <ele>1929.503173828125</ele>
        <time>2004-08-08T09:46:31Z</time>
      </trkpt>
      <trkpt lat="45.809689834713936" lon="7.675540577620268">
        <ele>1929.503173828125</ele>
        <time>2004-08-08T09:46:38Z</time>
      </trkpt>
      <trkpt lat="45.809669382870197" lon="7.675401270389557">
        <ele>1929.98388671875</ele>
        <time>2004-08-08T09:46:45Z</time>
      </trkpt>
      <trkpt lat="45.809672735631466" lon="7.675264393910766">
        <ele>1931.42578125</ele>
        <time>2004-08-08T09:46:53Z</time>
      </trkpt>
      <trkpt lat="45.809640968218446" lon="7.675120644271374">
        <ele>1933.829345703125</ele>
        <time>2004-08-08T09:47:01Z</time>
      </trkpt>
      <trkpt lat="45.809591179713607" lon="7.675003297626972">
        <ele>1933.3486328125</ele>
        <time>2004-08-08T09:47:08Z</time>
      </trkpt>
      <trkpt lat="45.809538625180721" lon="7.674886453896761">
        <ele>1934.31005859375</ele>
        <time>2004-08-08T09:47:16Z</time>
      </trkpt>
      <trkpt lat="45.809479113668203" lon="7.674774639308453">
        <ele>1933.829345703125</ele>
        <time>2004-08-08T09:47:22Z</time>
      </trkpt>
      <trkpt lat="45.809429241344333" lon="7.674665255472064">
        <ele>1934.31005859375</ele>
        <time>2004-08-08T09:47:27Z</time>
      </trkpt>
      <trkpt lat="45.80938464961946" lon="7.674562577158213">
        <ele>1935.271240234375</ele>
        <time>2004-08-08T09:47:36Z</time>
      </trkpt>
      <trkpt lat="45.809311894699931" lon="7.67451454885304">
        <ele>1935.751953125</ele>
        <time>2004-08-08T09:48:08Z</time>
      </trkpt>
      <trkpt lat="45.809225477278233" lon="7.674543214961886">
        <ele>1936.713134765625</ele>
        <time>2004-08-08T09:49:52Z</time>
      </trkpt>
      <trkpt lat="45.809150040149689" lon="7.67445201985538">
        <ele>1938.635986328125</ele>
        <time>2004-08-08T09:50:05Z</time>
      </trkpt>
      <trkpt lat="45.809099581092596" lon="7.67434062436223">
        <ele>1940.077880859375</ele>
        <time>2004-08-08T09:50:25Z</time>
      </trkpt>
      <trkpt lat="45.809070914983749" lon="7.674220846965909">
        <ele>1942.481201171875</ele>
        <time>2004-08-08T09:50:41Z</time>
      </trkpt>
      <trkpt lat="45.809021964669228" lon="7.674095621332526">
        <ele>1944.403564453125</ele>
        <time>2004-08-08T09:50:59Z</time>
      </trkpt>
      <trkpt lat="45.808975277468562" lon="7.673965953290463">
        <ele>1946.806884765625</ele>
        <time>2004-08-08T09:51:16Z</time>
      </trkpt>
      <trkpt lat="45.808933200314641" lon="7.673856150358915">
        <ele>1949.691162109375</ele>
        <time>2004-08-08T09:51:31Z</time>
      </trkpt>
      <trkpt lat="45.808863462880254" lon="7.673741485923529">
        <ele>1952.09423828125</ele>
        <time>2004-08-08T09:51:49Z</time>
      </trkpt>
      <trkpt lat="45.808791378512979" lon="7.673654900863767">
        <ele>1954.978271484375</ele>
        <time>2004-08-08T09:52:05Z</time>
      </trkpt>
      <trkpt lat="45.808751229196787" lon="7.673551719635725">
        <ele>1955.939453125</ele>
        <time>2004-08-08T09:52:18Z</time>
      </trkpt>
      <trkpt lat="45.808765394613147" lon="7.673429427668452">
        <ele>1957.381591796875</ele>
        <time>2004-08-08T09:52:36Z</time>
      </trkpt>
      <trkpt lat="45.808774866163731" lon="7.673295484855771">
        <ele>1958.823486328125</ele>
        <time>2004-08-08T09:52:58Z</time>
      </trkpt>
      <trkpt lat="45.808784756809473" lon="7.673172438517213">
        <ele>1960.265380859375</ele>
        <time>2004-08-08T09:53:15Z</time>
      </trkpt>
      <trkpt lat="45.808809315785766" lon="7.672976050525904">
        <ele>1960.265380859375</ele>
        <time>2004-08-08T09:53:44Z</time>
      </trkpt>
      <trkpt lat="45.808801185339689" lon="7.672810340300202">
        <ele>1961.226806640625</ele>
        <time>2004-08-08T09:53:51Z</time>
      </trkpt>
      <trkpt lat="45.808798586949706" lon="7.672648737207055">
        <ele>1962.18798828125</ele>
        <time>2004-08-08T09:54:00Z</time>
      </trkpt>
      <trkpt lat="45.80879875458777" lon="7.672493001446128">
        <ele>1963.6298828125</ele>
        <time>2004-08-08T09:54:08Z</time>
      </trkpt>
      <trkpt lat="45.808807639405131" lon="7.672349503263831">
        <ele>1964.591552734375</ele>
        <time>2004-08-08T09:54:16Z</time>
      </trkpt>
      <trkpt lat="45.808794563636184" lon="7.672213548794389">
        <ele>1966.033447265625</ele>
        <time>2004-08-08T09:54:24Z</time>
      </trkpt>
      <trkpt lat="45.808748546987772" lon="7.672091089189053">
        <ele>1966.994873046875</ele>
        <time>2004-08-08T09:54:31Z</time>
      </trkpt>
      <trkpt lat="45.808719294145703" lon="7.671954045072198">
        <ele>1967.475341796875</ele>
        <time>2004-08-08T09:54:39Z</time>
      </trkpt>
      <trkpt lat="45.808689203113317" lon="7.671827478334308">
        <ele>1967.9560546875</ele>
        <time>2004-08-08T09:54:47Z</time>
      </trkpt>
      <trkpt lat="45.808648467063904" lon="7.6716966368258">
        <ele>1968.91748046875</ele>
        <time>2004-08-08T09:54:55Z</time>
      </trkpt>
      <trkpt lat="45.808620722964406" lon="7.67155590467155">
        <ele>1968.91748046875</ele>
        <time>2004-08-08T09:55:02Z</time>
      </trkpt>
      <trkpt lat="45.808600857853889" lon="7.671431768685579">
        <ele>1969.878662109375</ele>
        <time>2004-08-08T09:55:09Z</time>
      </trkpt>
      <trkpt lat="45.808596331626177" lon="7.671305872499943">
        <ele>1971.320556640625</ele>
        <time>2004-08-08T09:55:16Z</time>
      </trkpt>
      <trkpt lat="45.808563139289618" lon="7.671169498935342">
        <ele>1971.80126953125</ele>
        <time>2004-08-08T09:55:24Z</time>
      </trkpt>
      <trkpt lat="45.808514608070254" lon="7.671061791479588">
        <ele>1972.7626953125</ele>
        <time>2004-08-08T09:55:32Z</time>
      </trkpt>
      <trkpt lat="45.808447804301977" lon="7.670958358794451">
        <ele>1973.723876953125</ele>
        <time>2004-08-08T09:55:41Z</time>
      </trkpt>
      <trkpt lat="45.808363147079945" lon="7.670868840068579">
        <ele>1974.20458984375</ele>
        <time>2004-08-08T09:55:50Z</time>
      </trkpt>
      <trkpt lat="45.808292152360082" lon="7.670766413211823">
        <ele>1975.165771484375</ele>
        <time>2004-08-08T09:55:57Z</time>
      </trkpt>
      <trkpt lat="45.808225348591805" lon="7.670663818717003">
        <ele>1976.127197265625</ele>
        <time>2004-08-08T09:56:04Z</time>
      </trkpt>
      <trkpt lat="45.808161562308669" lon="7.670571366325021">
        <ele>1978.0498046875</ele>
        <time>2004-08-08T09:56:11Z</time>
      </trkpt>
      <trkpt lat="45.808084700256586" lon="7.670481093227863">
        <ele>1979.010986328125</ele>
        <time>2004-08-08T09:56:19Z</time>
      </trkpt>
      <trkpt lat="45.808017896488309" lon="7.67037782818079">
        <ele>1979.49169921875</ele>
        <time>2004-08-08T09:56:28Z</time>
      </trkpt>
      <trkpt lat="45.807971879839897" lon="7.670255620032549">
        <ele>1979.49169921875</ele>
        <time>2004-08-08T09:56:37Z</time>
      </trkpt>
      <trkpt lat="45.807953607290983" lon="7.670134920626879">
        <ele>1980.453369140625</ele>
        <time>2004-08-08T09:57:10Z</time>
      </trkpt>
      <trkpt lat="45.807933574542403" lon="7.670120755210519">
        <ele>1982.8564453125</ele>
        <time>2004-08-08T10:13:37Z</time>
      </trkpt>
      <trkpt lat="45.807886552065611" lon="7.669962588697672">
        <ele>1983.337158203125</ele>
        <time>2004-08-08T10:13:54Z</time>
      </trkpt>
      <trkpt lat="45.807842630892992" lon="7.66983350738883">
        <ele>1984.779296875</ele>
        <time>2004-08-08T10:14:02Z</time>
      </trkpt>
      <trkpt lat="45.807814132422209" lon="7.669690679758787">
        <ele>1984.779296875</ele>
        <time>2004-08-08T10:14:09Z</time>
      </trkpt>
      <trkpt lat="45.807788651436567" lon="7.669549360871315">
        <ele>1986.22119140625</ele>
        <time>2004-08-08T10:14:16Z</time>
      </trkpt>
      <trkpt lat="45.807776413857937" lon="7.669409047812223">
        <ele>1988.143798828125</ele>
        <time>2004-08-08T10:14:23Z</time>
      </trkpt>
      <trkpt lat="45.807752357795835" lon="7.669275021180511">
        <ele>1989.10498046875</ele>
        <time>2004-08-08T10:14:30Z</time>
      </trkpt>
      <trkpt lat="45.80774431116879" lon="7.669137138873339">
        <ele>1990.546875</ele>
        <time>2004-08-08T10:14:37Z</time>
      </trkpt>
      <trkpt lat="45.807739365845919" lon="7.669004369527102">
        <ele>1991.989013671875</ele>
        <time>2004-08-08T10:14:44Z</time>
      </trkpt>
      <trkpt lat="45.807727044448256" lon="7.668877299875021">
        <ele>1993.430908203125</ele>
        <time>2004-08-08T10:14:51Z</time>
      </trkpt>
      <trkpt lat="45.807725116610527" lon="7.6687350589782">
        <ele>1994.872802734375</ele>
        <time>2004-08-08T10:14:59Z</time>
      </trkpt>
      <trkpt lat="45.807769792154431" lon="7.66863388940692">
        <ele>1996.795654296875</ele>
        <time>2004-08-08T10:15:07Z</time>
      </trkpt>
      <trkpt lat="45.80782687291503" lon="7.668534563854337">
        <ele>1996.795654296875</ele>
        <time>2004-08-08T10:15:27Z</time>
      </trkpt>
      <trkpt lat="45.807878756895661" lon="7.668485613539815">
        <ele>1997.757080078125</ele>
        <time>2004-08-08T10:15:42Z</time>
      </trkpt>
      <trkpt lat="45.807963749393821" lon="7.668381845578551">
        <ele>2000.160400390625</ele>
        <time>2004-08-08T10:16:05Z</time>
      </trkpt>
      <trkpt lat="45.808161059394479" lon="7.668433310464025">
        <ele>2000.160400390625</ele>
        <time>2004-08-08T10:17:44Z</time>
      </trkpt>
      <trkpt lat="45.808236328884959" lon="7.668595919385552">
        <ele>2000.640869140625</ele>
        <time>2004-08-08T10:17:51Z</time>
      </trkpt>
      <trkpt lat="45.808308999985456" lon="7.668714104220271">
        <ele>2002.082763671875</ele>
        <time>2004-08-08T10:17:58Z</time>
      </trkpt>
      <trkpt lat="45.808389550074935" lon="7.668807897716761">
        <ele>2001.12158203125</ele>
        <time>2004-08-08T10:18:05Z</time>
      </trkpt>
      <trkpt lat="45.808494742959738" lon="7.668869839981198">
        <ele>2001.602294921875</ele>
        <time>2004-08-08T10:18:12Z</time>
      </trkpt>
      <trkpt lat="45.808591721579432" lon="7.668910324573517">
        <ele>2001.602294921875</ele>
        <time>2004-08-08T10:18:18Z</time>
      </trkpt>
      <trkpt lat="45.808704122900963" lon="7.668965142220259">
        <ele>2002.082763671875</ele>
        <time>2004-08-08T10:18:24Z</time>
      </trkpt>
      <trkpt lat="45.808820966631174" lon="7.669022642076016">
        <ele>2002.5634765625</ele>
        <time>2004-08-08T10:18:31Z</time>
      </trkpt>
      <trkpt lat="45.808934206143022" lon="7.669054325670004">
        <ele>2002.082763671875</ele>
        <time>2004-08-08T10:18:37Z</time>
      </trkpt>
      <trkpt lat="45.809045769274235" lon="7.669043010100722">
        <ele>2002.082763671875</ele>
        <time>2004-08-08T10:18:43Z</time>
      </trkpt>
      <trkpt lat="45.80916621722281" lon="7.669039824977517">
        <ele>2002.082763671875</ele>
        <time>2004-08-08T10:18:49Z</time>
      </trkpt>
      <trkpt lat="45.809289179742336" lon="7.669055499136448">
        <ele>2001.602294921875</ele>
        <time>2004-08-08T10:18:56Z</time>
      </trkpt>
      <trkpt lat="45.809401581063867" lon="7.669085087254643">
        <ele>2001.602294921875</ele>
        <time>2004-08-08T10:19:03Z</time>
      </trkpt>
      <trkpt lat="45.809507612138987" lon="7.669118950143457">
        <ele>2002.5634765625</ele>
        <time>2004-08-08T10:19:10Z</time>
      </trkpt>
      <trkpt lat="45.809637950733304" lon="7.669143425300717">
        <ele>2003.044189453125</ele>
        <time>2004-08-08T10:19:17Z</time>
      </trkpt>
      <trkpt lat="45.809755716472864" lon="7.669172426685691">
        <ele>2003.52490234375</ele>
        <time>2004-08-08T10:19:23Z</time>
      </trkpt>
      <trkpt lat="45.809859987348318" lon="7.669199500232935">
        <ele>2003.044189453125</ele>
        <time>2004-08-08T10:19:28Z</time>
      </trkpt>
      <trkpt lat="45.809965766966343" lon="7.669226322323084">
        <ele>2004.005615234375</ele>
        <time>2004-08-08T10:19:33Z</time>
      </trkpt>
      <trkpt lat="45.810073977336287" lon="7.669265298172832">
        <ele>2004.005615234375</ele>
        <time>2004-08-08T10:19:38Z</time>
      </trkpt>
      <trkpt lat="45.810181349515915" lon="7.669321456924081">
        <ele>2003.52490234375</ele>
        <time>2004-08-08T10:19:43Z</time>
      </trkpt>
      <trkpt lat="45.810306072235107" lon="7.66936001367867">
        <ele>2004.486083984375</ele>
        <time>2004-08-08T10:19:48Z</time>
      </trkpt>
      <trkpt lat="45.810400284826756" lon="7.6693981513381">
        <ele>2004.486083984375</ele>
        <time>2004-08-08T10:19:52Z</time>
      </trkpt>
      <trkpt lat="45.810503214597702" lon="7.669444754719734">
        <ele>2004.486083984375</ele>
        <time>2004-08-08T10:19:56Z</time>
      </trkpt>
      <trkpt lat="45.810607401654124" lon="7.669490268453956">
        <ele>2004.966796875</ele>
        <time>2004-08-08T10:20:00Z</time>
      </trkpt>
      <trkpt lat="45.810705972835422" lon="7.669525891542435">
        <ele>2004.966796875</ele>
        <time>2004-08-08T10:20:04Z</time>
      </trkpt>
      <trkpt lat="45.810809321701527" lon="7.669565621763468">
        <ele>2004.966796875</ele>
        <time>2004-08-08T10:20:08Z</time>
      </trkpt>
      <trkpt lat="45.810907306149602" lon="7.669602502137423">
        <ele>2005.927978515625</ele>
        <time>2004-08-08T10:20:12Z</time>
      </trkpt>
      <trkpt lat="45.811003781855106" lon="7.669658996164799">
        <ele>2004.486083984375</ele>
        <time>2004-08-08T10:20:16Z</time>
      </trkpt>
      <trkpt lat="45.811115009710193" lon="7.669726219028235">
        <ele>2005.447509765625</ele>
        <time>2004-08-08T10:20:21Z</time>
      </trkpt>
      <trkpt lat="45.81121601164341" lon="7.669789670035243">
        <ele>2005.447509765625</ele>
        <time>2004-08-08T10:20:26Z</time>
      </trkpt>
      <trkpt lat="45.811314499005675" lon="7.669857982546091">
        <ele>2005.447509765625</ele>
        <time>2004-08-08T10:20:31Z</time>
      </trkpt>
      <trkpt lat="45.811428241431713" lon="7.669924534857273">
        <ele>2004.966796875</ele>
        <time>2004-08-08T10:20:36Z</time>
      </trkpt>
      <trkpt lat="45.81152823753655" lon="7.670002989470959">
        <ele>2005.447509765625</ele>
        <time>2004-08-08T10:20:42Z</time>
      </trkpt>
      <trkpt lat="45.811613146215677" lon="7.670121090486646">
        <ele>2005.927978515625</ele>
        <time>2004-08-08T10:20:48Z</time>
      </trkpt>
      <trkpt lat="45.811669304966927" lon="7.670253440737724">
        <ele>2005.447509765625</ele>
        <time>2004-08-08T10:20:53Z</time>
      </trkpt>
      <trkpt lat="45.811731163412333" lon="7.670392747968435">
        <ele>2005.447509765625</ele>
        <time>2004-08-08T10:20:58Z</time>
      </trkpt>
      <trkpt lat="45.811807019636035" lon="7.670495258644223">
        <ele>2006.40869140625</ele>
        <time>2004-08-08T10:21:03Z</time>
      </trkpt>
      <trkpt lat="45.811890419572592" lon="7.670573377981782">
        <ele>2005.447509765625</ele>
        <time>2004-08-08T10:21:08Z</time>
      </trkpt>
      <trkpt lat="45.811975160613656" lon="7.670665662735701">
        <ele>2004.966796875</ele>
        <time>2004-08-08T10:21:13Z</time>
      </trkpt>
      <trkpt lat="45.812055543065071" lon="7.670748727396131">
        <ele>2005.927978515625</ele>
        <time>2004-08-08T10:21:18Z</time>
      </trkpt>
      <trkpt lat="45.812123268842697" lon="7.670856099575758">
        <ele>2006.40869140625</ele>
        <time>2004-08-08T10:21:23Z</time>
      </trkpt>
      <trkpt lat="45.812194850295782" lon="7.670970680192113">
        <ele>2005.927978515625</ele>
        <time>2004-08-08T10:21:29Z</time>
      </trkpt>
      <trkpt lat="45.812276490032673" lon="7.671079896390438">
        <ele>2006.40869140625</ele>
        <time>2004-08-08T10:21:35Z</time>
      </trkpt>
      <trkpt lat="45.812295852228999" lon="7.671180898323655">
        <ele>2005.447509765625</ele>
        <time>2004-08-08T10:22:57Z</time>
      </trkpt>
      <trkpt lat="45.812077755108476" lon="7.67115474678576">
        <ele>1994.39208984375</ele>
        <time>2004-08-08T10:27:29Z</time>
      </trkpt>
      <trkpt lat="45.811944231390953" lon="7.671115603297949">
        <ele>1993.91162109375</ele>
        <time>2004-08-08T10:27:36Z</time>
      </trkpt>
      <trkpt lat="45.811842391267419" lon="7.671115687116981">
        <ele>1991.027587890625</ele>
        <time>2004-08-08T10:27:42Z</time>
      </trkpt>
      <trkpt lat="45.811733258888125" lon="7.671132115647197">
        <ele>1987.6630859375</ele>
        <time>2004-08-08T10:27:48Z</time>
      </trkpt>
      <trkpt lat="45.811626389622688" lon="7.671154160052538">
        <ele>1985.740478515625</ele>
        <time>2004-08-08T10:27:54Z</time>
      </trkpt>
      <trkpt lat="45.811521112918854" lon="7.671205289661884">
        <ele>1985.740478515625</ele>
        <time>2004-08-08T10:28:00Z</time>
      </trkpt>
      <trkpt lat="45.811496553942561" lon="7.671510558575392">
        <ele>1985.259765625</ele>
        <time>2004-08-08T10:28:45Z</time>
      </trkpt>
      <trkpt lat="45.811571152880788" lon="7.67173427157104">
        <ele>1984.298583984375</ele>
        <time>2004-08-08T10:29:43Z</time>
      </trkpt>
      <trkpt lat="45.812053447589278" lon="7.671222137287259">
        <ele>1984.779296875</ele>
        <time>2004-08-08T10:30:50Z</time>
      </trkpt>
      <trkpt lat="45.811730576679111" lon="7.671965276822448">
        <ele>1984.298583984375</ele>
        <time>2004-08-08T10:34:55Z</time>
      </trkpt>
      <trkpt lat="45.811990248039365" lon="7.672153282910585">
        <ele>1985.259765625</ele>
        <time>2004-08-08T10:35:56Z</time>
      </trkpt>
      <trkpt lat="45.812118072062731" lon="7.672142051160336">
        <ele>1986.70166015625</ele>
        <time>2004-08-08T10:36:03Z</time>
      </trkpt>
      <trkpt lat="45.812651915475726" lon="7.672557374462485">
        <ele>1986.22119140625</ele>
        <time>2004-08-08T10:36:09Z</time>
      </trkpt>
      <trkpt lat="45.812747552990913" lon="7.672578496858478">
        <ele>1985.740478515625</ele>
        <time>2004-08-08T10:36:16Z</time>
      </trkpt>
      <trkpt lat="45.812837658450007" lon="7.672576317563653">
        <ele>1985.259765625</ele>
        <time>2004-08-08T10:36:23Z</time>
      </trkpt>
      <trkpt lat="45.813086098060012" lon="7.672648821026087">
        <ele>1985.259765625</ele>
        <time>2004-08-08T10:36:30Z</time>
      </trkpt>
      <trkpt lat="45.813174359500408" lon="7.672696765512228">
        <ele>1985.740478515625</ele>
        <time>2004-08-08T10:36:36Z</time>
      </trkpt>
      <trkpt lat="45.813262620940804" lon="7.672744709998369">
        <ele>1984.298583984375</ele>
        <time>2004-08-08T10:36:42Z</time>
      </trkpt>
      <trkpt lat="45.813350798562169" lon="7.67279265448451">
        <ele>1985.259765625</ele>
        <time>2004-08-08T10:36:48Z</time>
      </trkpt>
      <trkpt lat="45.813439060002565" lon="7.67284051515162">
        <ele>1984.298583984375</ele>
        <time>2004-08-08T10:36:54Z</time>
      </trkpt>
      <trkpt lat="45.81351256929338" lon="7.672880496829748">
        <ele>1984.779296875</ele>
        <time>2004-08-08T10:37:00Z</time>
      </trkpt>
      <trkpt lat="45.813378877937794" lon="7.673413502052426">
        <ele>1987.182373046875</ele>
        <time>2004-08-08T10:37:41Z</time>
      </trkpt>
      <trkpt lat="45.813538888469338" lon="7.673673341050744">
        <ele>1986.22119140625</ele>
        <time>2004-08-08T10:38:11Z</time>
      </trkpt>
      <trkpt lat="45.813566464930773" lon="7.67426191829145">
        <ele>1986.70166015625</ele>
        <time>2004-08-08T10:38:34Z</time>
      </trkpt>
      <trkpt lat="45.813599657267332" lon="7.674267534166575">
        <ele>1987.182373046875</ele>
        <time>2004-08-08T10:38:48Z</time>
      </trkpt>
      <trkpt lat="45.813546683639288" lon="7.674604235216975">
        <ele>1987.6630859375</ele>
        <time>2004-08-08T10:38:57Z</time>
      </trkpt>
      <trkpt lat="45.813563112169504" lon="7.67475645057857">
        <ele>1987.182373046875</ele>
        <time>2004-08-08T10:39:10Z</time>
      </trkpt>
      <trkpt lat="45.813652966171503" lon="7.674867259338498">
        <ele>1988.143798828125</ele>
        <time>2004-08-08T10:39:26Z</time>
      </trkpt>
      <trkpt lat="45.813756566494703" lon="7.675002375617623">
        <ele>1987.182373046875</ele>
        <time>2004-08-08T10:39:44Z</time>
      </trkpt>
      <trkpt lat="45.81384340301156" lon="7.675130954012275">
        <ele>1987.182373046875</ele>
        <time>2004-08-08T10:39:50Z</time>
      </trkpt>
      <trkpt lat="45.813922192901373" lon="7.675258526578546">
        <ele>1986.70166015625</ele>
        <time>2004-08-08T10:39:57Z</time>
      </trkpt>
      <trkpt lat="45.813988661393523" lon="7.675386602059007">
        <ele>1986.70166015625</ele>
        <time>2004-08-08T10:40:04Z</time>
      </trkpt>
      <trkpt lat="45.814051777124405" lon="7.675746940076351">
        <ele>1987.182373046875</ele>
        <time>2004-08-08T10:41:21Z</time>
      </trkpt>
      <trkpt lat="45.814130147919059" lon="7.675812151283026">
        <ele>1987.6630859375</ele>
        <time>2004-08-08T10:41:29Z</time>
      </trkpt>
      <trkpt lat="45.814365176483989" lon="7.675643842667341">
        <ele>1988.62451171875</ele>
        <time>2004-08-08T10:48:18Z</time>
      </trkpt>
      <trkpt lat="45.814475566148758" lon="7.675674688071013">
        <ele>1988.62451171875</ele>
        <time>2004-08-08T10:48:22Z</time>
      </trkpt>
      <trkpt lat="45.814508255571127" lon="7.67581039108336">
        <ele>1988.143798828125</ele>
        <time>2004-08-08T10:48:25Z</time>
      </trkpt>
      <trkpt lat="45.814487719908357" lon="7.675958164036274">
        <ele>1989.10498046875</ele>
        <time>2004-08-08T10:48:33Z</time>
      </trkpt>
      <trkpt lat="45.814532563090324" lon="7.676082467660308">
        <ele>1986.70166015625</ele>
        <time>2004-08-08T10:48:45Z</time>
      </trkpt>
      <trkpt lat="45.814609341323376" lon="7.676191097125411">
        <ele>1987.182373046875</ele>
        <time>2004-08-08T10:48:53Z</time>
      </trkpt>
      <trkpt lat="45.814688466489315" lon="7.676294529810548">
        <ele>1987.182373046875</ele>
        <time>2004-08-08T10:48:57Z</time>
      </trkpt>
      <trkpt lat="45.814743787050247" lon="7.6764817815274">
        <ele>1988.143798828125</ele>
        <time>2004-08-08T10:49:01Z</time>
      </trkpt>
      <trkpt lat="45.814770944416523" lon="7.676622765138745">
        <ele>1988.143798828125</ele>
        <time>2004-08-08T10:49:04Z</time>
      </trkpt>
      <trkpt lat="45.814794916659594" lon="7.676767269149423">
        <ele>1988.62451171875</ele>
        <time>2004-08-08T10:49:07Z</time>
      </trkpt>
      <trkpt lat="45.814832132309675" lon="7.676883609965444">
        <ele>1988.62451171875</ele>
        <time>2004-08-08T10:49:10Z</time>
      </trkpt>
      <trkpt lat="45.814844956621528" lon="7.677046721801162">
        <ele>1989.585693359375</ele>
        <time>2004-08-08T10:49:14Z</time>
      </trkpt>
      <trkpt lat="45.814848644658923" lon="7.677182592451572">
        <ele>1988.62451171875</ele>
        <time>2004-08-08T10:49:17Z</time>
      </trkpt>
      <trkpt lat="45.814844621345401" lon="7.677319971844554">
        <ele>1988.143798828125</ele>
        <time>2004-08-08T10:49:20Z</time>
      </trkpt>
      <trkpt lat="45.814831797033548" lon="7.67745416611433">
        <ele>1988.62451171875</ele>
        <time>2004-08-08T10:49:23Z</time>
      </trkpt>
      <trkpt lat="45.814800281077623" lon="7.677597664296627">
        <ele>1987.6630859375</ele>
        <time>2004-08-08T10:49:26Z</time>
      </trkpt>
      <trkpt lat="45.814778152853251" lon="7.677722973749042">
        <ele>1988.62451171875</ele>
        <time>2004-08-08T10:49:29Z</time>
      </trkpt>
      <trkpt lat="45.81477957777679" lon="7.677859431132674">
        <ele>1989.585693359375</ele>
        <time>2004-08-08T10:49:33Z</time>
      </trkpt>
      <trkpt lat="45.814822409301996" lon="7.677972670644522">
        <ele>1990.546875</ele>
        <time>2004-08-08T10:49:37Z</time>
      </trkpt>
      <trkpt lat="45.814897511154413" lon="7.678065709769726">
        <ele>1989.585693359375</ele>
        <time>2004-08-08T10:49:41Z</time>
      </trkpt>
      <trkpt lat="45.814976636320353" lon="7.678134273737669">
        <ele>1989.10498046875</ele>
        <time>2004-08-08T10:49:45Z</time>
      </trkpt>
      <trkpt lat="45.815063556656241" lon="7.678192360326648">
        <ele>1990.06640625</ele>
        <time>2004-08-08T10:49:50Z</time>
      </trkpt>
      <trkpt lat="45.815128181129694" lon="7.678283220157027">
        <ele>1990.546875</ele>
        <time>2004-08-08T10:49:55Z</time>
      </trkpt>
      <trkpt lat="45.815176460891962" lon="7.678397884592414">
        <ele>1990.546875</ele>
        <time>2004-08-08T10:50:01Z</time>
      </trkpt>
      <trkpt lat="45.815268326550722" lon="7.678463766351342">
        <ele>1990.546875</ele>
        <time>2004-08-08T10:50:56Z</time>
      </trkpt>
      <trkpt lat="45.815307050943375" lon="7.678615311160684">
        <ele>1990.06640625</ele>
        <time>2004-08-08T10:51:01Z</time>
      </trkpt>
      <trkpt lat="45.815321300178766" lon="7.678782027214766">
        <ele>1990.546875</ele>
        <time>2004-08-08T10:51:05Z</time>
      </trkpt>
      <trkpt lat="45.815334878861904" lon="7.678932063281536">
        <ele>1990.546875</ele>
        <time>2004-08-08T10:51:09Z</time>
      </trkpt>
      <trkpt lat="45.81534837372601" lon="7.679074723273516">
        <ele>1990.06640625</ele>
        <time>2004-08-08T10:51:13Z</time>
      </trkpt>
      <trkpt lat="45.815364383161068" lon="7.679212437942624">
        <ele>1990.546875</ele>
        <time>2004-08-08T10:51:17Z</time>
      </trkpt>
      <trkpt lat="45.815381733700633" lon="7.679355936124921">
        <ele>1991.027587890625</ele>
        <time>2004-08-08T10:51:21Z</time>
      </trkpt>
      <trkpt lat="45.815400090068579" lon="7.679501362144947">
        <ele>1990.546875</ele>
        <time>2004-08-08T10:51:25Z</time>
      </trkpt>
      <trkpt lat="45.815449124202132" lon="7.679633125662804">
        <ele>1991.027587890625</ele>
        <time>2004-08-08T10:51:29Z</time>
      </trkpt>
      <trkpt lat="45.815537888556719" lon="7.679736725986004">
        <ele>1991.50830078125</ele>
        <time>2004-08-08T10:51:33Z</time>
      </trkpt>
      <trkpt lat="45.815599076449871" lon="7.679831860587001">
        <ele>1991.50830078125</ele>
        <time>2004-08-08T10:51:39Z</time>
      </trkpt>
      <trkpt lat="45.815699156373739" lon="7.679924229159951">
        <ele>1991.027587890625</ele>
        <time>2004-08-08T10:51:54Z</time>
      </trkpt>
      <trkpt lat="45.815739054232836" lon="7.680055322125554">
        <ele>1990.546875</ele>
        <time>2004-08-08T10:52:03Z</time>
      </trkpt>
      <trkpt lat="45.815786244347692" lon="7.680184571072459">
        <ele>1990.546875</ele>
        <time>2004-08-08T10:52:12Z</time>
      </trkpt>
      <trkpt lat="45.81584868952632" lon="7.680288590490818">
        <ele>1990.546875</ele>
        <time>2004-08-08T10:52:22Z</time>
      </trkpt>
      <trkpt lat="45.81595279276371" lon="7.680339217185974">
        <ele>1990.546875</ele>
        <time>2004-08-08T10:52:33Z</time>
      </trkpt>
      <trkpt lat="45.816080113872886" lon="7.680389257147908">
        <ele>1990.546875</ele>
        <time>2004-08-08T10:52:51Z</time>
      </trkpt>
      <trkpt lat="45.816218918189406" lon="7.680434184148908">
        <ele>1990.06640625</ele>
        <time>2004-08-08T10:53:09Z</time>
      </trkpt>
      <trkpt lat="45.816360572353005" lon="7.680421695113182">
        <ele>1991.50830078125</ele>
        <time>2004-08-08T10:53:19Z</time>
      </trkpt>
      <trkpt lat="45.816448079422116" lon="7.680402752012014">
        <ele>1991.50830078125</ele>
        <time>2004-08-08T10:53:27Z</time>
      </trkpt>
      <trkpt lat="45.816613286733627" lon="7.680370984598994">
        <ele>1991.027587890625</ele>
        <time>2004-08-08T10:53:36Z</time>
      </trkpt>
      <trkpt lat="45.816757874563336" lon="7.680354891344905">
        <ele>1991.989013671875</ele>
        <time>2004-08-08T10:53:45Z</time>
      </trkpt>
      <trkpt lat="45.816868431866169" lon="7.680323207750917">
        <ele>1991.989013671875</ele>
        <time>2004-08-08T10:53:54Z</time>
      </trkpt>
      <trkpt lat="45.816962393000722" lon="7.680295212194324">
        <ele>1992.4697265625</ele>
        <time>2004-08-08T10:54:02Z</time>
      </trkpt>
      <trkpt lat="45.817067166790366" lon="7.680253302678466">
        <ele>1992.9501953125</ele>
        <time>2004-08-08T10:54:11Z</time>
      </trkpt>
      <trkpt lat="45.817193649709225" lon="7.680207034572959">
        <ele>1992.4697265625</ele>
        <time>2004-08-08T10:54:19Z</time>
      </trkpt>
      <trkpt lat="45.817323569208384" lon="7.680149450898171">
        <ele>1992.9501953125</ele>
        <time>2004-08-08T10:54:27Z</time>
      </trkpt>
      <trkpt lat="45.817430354654789" lon="7.680158503353596">
        <ele>1992.4697265625</ele>
        <time>2004-08-08T10:54:37Z</time>
      </trkpt>
      <trkpt lat="45.817552311345935" lon="7.680210554972291">
        <ele>1993.430908203125</ele>
        <time>2004-08-08T10:54:54Z</time>
      </trkpt>
      <trkpt lat="45.817641913890839" lon="7.680247183889151">
        <ele>1993.430908203125</ele>
        <time>2004-08-08T10:55:07Z</time>
      </trkpt>
      <trkpt lat="45.817697066813707" lon="7.680269731208682">
        <ele>1992.9501953125</ele>
        <time>2004-08-08T10:55:16Z</time>
      </trkpt>
      <trkpt lat="45.818342305719852" lon="7.680836683139205">
        <ele>1993.91162109375</ele>
        <time>2004-08-08T10:55:36Z</time>
      </trkpt>
      <trkpt lat="45.818833149969578" lon="7.68069620244205">
        <ele>1992.9501953125</ele>
        <time>2004-08-08T10:55:44Z</time>
      </trkpt>
      <trkpt lat="45.818881010636687" lon="7.680722018703818">
        <ele>1993.430908203125</ele>
        <time>2004-08-08T10:55:48Z</time>
      </trkpt>
      <trkpt lat="45.81898620352149" lon="7.680741799995303">
        <ele>1993.430908203125</ele>
        <time>2004-08-08T10:55:53Z</time>
      </trkpt>
      <trkpt lat="45.819091396406293" lon="7.680761581286788">
        <ele>1993.91162109375</ele>
        <time>2004-08-08T10:55:58Z</time>
      </trkpt>
      <trkpt lat="45.819196589291096" lon="7.680781362578273">
        <ele>1993.430908203125</ele>
        <time>2004-08-08T10:56:03Z</time>
      </trkpt>
      <trkpt lat="45.819221064448357" lon="7.680899128317833">
        <ele>1993.430908203125</ele>
        <time>2004-08-08T10:56:09Z</time>
      </trkpt>
      <trkpt lat="45.819258196279407" lon="7.681045811623335">
        <ele>1992.9501953125</ele>
        <time>2004-08-08T10:56:19Z</time>
      </trkpt>
      <trkpt lat="45.819295411929488" lon="7.681240607053042">
        <ele>1992.9501953125</ele>
        <time>2004-08-08T10:56:30Z</time>
      </trkpt>
      <trkpt lat="45.819456931203604" lon="7.681246306747198">
        <ele>1991.989013671875</ele>
        <time>2004-08-08T10:56:43Z</time>
      </trkpt>
      <trkpt lat="45.819600094109774" lon="7.681239852681756">
        <ele>1992.9501953125</ele>
        <time>2004-08-08T10:57:01Z</time>
      </trkpt>
      <trkpt lat="45.819733450189233" lon="7.681120075285435">
        <ele>1992.4697265625</ele>
        <time>2004-08-08T10:57:12Z</time>
      </trkpt>
      <trkpt lat="45.819850880652666" lon="7.680958891287446">
        <ele>1992.4697265625</ele>
        <time>2004-08-08T10:57:21Z</time>
      </trkpt>
      <trkpt lat="45.820009130984545" lon="7.680840874090791">
        <ele>1993.430908203125</ele>
        <time>2004-08-08T10:57:38Z</time>
      </trkpt>
      <trkpt lat="45.820116000249982" lon="7.68089166842401">
        <ele>1992.4697265625</ele>
        <time>2004-08-08T10:57:50Z</time>
      </trkpt>
      <trkpt lat="45.820192946121097" lon="7.680976744741201">
        <ele>1993.91162109375</ele>
        <time>2004-08-08T10:58:00Z</time>
      </trkpt>
      <trkpt lat="45.820233598351479" lon="7.681108340620995">
        <ele>1994.39208984375</ele>
        <time>2004-08-08T10:58:10Z</time>
      </trkpt>
      <trkpt lat="45.820315154269338" lon="7.681225100532174">
        <ele>1994.39208984375</ele>
        <time>2004-08-08T10:58:22Z</time>
      </trkpt>
      <trkpt lat="45.820438619703054" lon="7.681214287877083">
        <ele>1994.39208984375</ele>
        <time>2004-08-08T10:58:31Z</time>
      </trkpt>
      <trkpt lat="45.820555463433266" lon="7.681174725294113">
        <ele>1993.91162109375</ele>
        <time>2004-08-08T10:58:40Z</time>
      </trkpt>
      <trkpt lat="45.820686388760805" lon="7.68110959790647">
        <ele>1994.39208984375</ele>
        <time>2004-08-08T10:58:48Z</time>
      </trkpt>
      <trkpt lat="45.820799712091684" lon="7.681055869907141">
        <ele>1994.39208984375</ele>
        <time>2004-08-08T10:58:56Z</time>
      </trkpt>
      <trkpt lat="45.82088939845562" lon="7.681001471355557">
        <ele>1993.91162109375</ele>
        <time>2004-08-08T10:59:03Z</time>
      </trkpt>
      <trkpt lat="45.8210095949471" lon="7.680927123874426">
        <ele>1994.39208984375</ele>
        <time>2004-08-08T10:59:12Z</time>
      </trkpt>
      <trkpt lat="45.821091067045927" lon="7.680807011201978">
        <ele>1993.430908203125</ele>
        <time>2004-08-08T10:59:22Z</time>
      </trkpt>
      <trkpt lat="45.821189219132066" lon="7.680775914341211">
        <ele>1993.91162109375</ele>
        <time>2004-08-08T10:59:34Z</time>
      </trkpt>
      <trkpt lat="45.821254597976804" lon="7.680911030620337">
        <ele>1993.430908203125</ele>
        <time>2004-08-08T10:59:47Z</time>
      </trkpt>
      <trkpt lat="45.821335399523377" lon="7.680978169664741">
        <ele>1993.430908203125</ele>
        <time>2004-08-08T10:59:54Z</time>
      </trkpt>
      <trkpt lat="45.821362221613526" lon="7.6811149623245">
        <ele>1993.430908203125</ele>
        <time>2004-08-08T11:00:05Z</time>
      </trkpt>
      <trkpt lat="45.821371106430888" lon="7.681257706135511">
        <ele>1993.430908203125</ele>
        <time>2004-08-08T11:00:15Z</time>
      </trkpt>
      <trkpt lat="45.82139415666461" lon="7.681383853778243">
        <ele>1993.430908203125</ele>
        <time>2004-08-08T11:00:21Z</time>
      </trkpt>
      <trkpt lat="45.821431372314692" lon="7.681515282019973">
        <ele>1993.430908203125</ele>
        <time>2004-08-08T11:00:28Z</time>
      </trkpt>
      <trkpt lat="45.821488704532385" lon="7.681620726361871">
        <ele>1992.9501953125</ele>
        <time>2004-08-08T11:00:36Z</time>
      </trkpt>
      <trkpt lat="45.821564728394151" lon="7.681695995852351">
        <ele>1993.91162109375</ele>
        <time>2004-08-08T11:00:45Z</time>
      </trkpt>
      <trkpt lat="45.821642177179456" lon="7.681758860126138">
        <ele>1993.91162109375</ele>
        <time>2004-08-08T11:00:54Z</time>
      </trkpt>
      <trkpt lat="45.821727169677615" lon="7.681815605610609">
        <ele>1993.91162109375</ele>
        <time>2004-08-08T11:01:03Z</time>
      </trkpt>
      <trkpt lat="45.821830099448562" lon="7.681876877322793">
        <ele>1994.39208984375</ele>
        <time>2004-08-08T11:01:14Z</time>
      </trkpt>
      <trkpt lat="45.821944596245885" lon="7.681924318894744">
        <ele>1994.39208984375</ele>
        <time>2004-08-08T11:01:24Z</time>
      </trkpt>
      <trkpt lat="45.822023302316666" lon="7.682009311392903">
        <ele>1993.91162109375</ele>
        <time>2004-08-08T11:01:35Z</time>
      </trkpt>
      <trkpt lat="45.82214224152267" lon="7.682041833177209">
        <ele>1994.872802734375</ele>
        <time>2004-08-08T11:01:42Z</time>
      </trkpt>
      <trkpt lat="45.82227123901248" lon="7.682147528976202">
        <ele>1993.430908203125</ele>
        <time>2004-08-08T11:01:55Z</time>
      </trkpt>
      <trkpt lat="45.822391351684928" lon="7.682257415726781">
        <ele>1993.91162109375</ele>
        <time>2004-08-08T11:02:07Z</time>
      </trkpt>
      <trkpt lat="45.822513392195106" lon="7.682299911975861">
        <ele>1993.91162109375</ele>
        <time>2004-08-08T11:02:17Z</time>
      </trkpt>
      <trkpt lat="45.822637695819139" lon="7.682415498420596">
        <ele>1994.39208984375</ele>
        <time>2004-08-08T11:03:02Z</time>
      </trkpt>
      <trkpt lat="45.822692345827818" lon="7.682509459555149">
        <ele>1994.872802734375</ele>
        <time>2004-08-08T11:03:14Z</time>
      </trkpt>
      <trkpt lat="45.822770465165377" lon="7.682636780664325">
        <ele>1994.872802734375</ele>
        <time>2004-08-08T11:03:29Z</time>
      </trkpt>
      <trkpt lat="45.822849338874221" lon="7.682751277461648">
        <ele>1994.872802734375</ele>
        <time>2004-08-08T11:03:33Z</time>
      </trkpt>
      <trkpt lat="45.8229401987046" lon="7.682814812287688">
        <ele>1995.353515625</ele>
        <time>2004-08-08T11:03:38Z</time>
      </trkpt>
      <trkpt lat="45.823003062978387" lon="7.682913970202208">
        <ele>1994.872802734375</ele>
        <time>2004-08-08T11:03:43Z</time>
      </trkpt>
      <trkpt lat="45.823087720200419" lon="7.683001141995192">
        <ele>1993.430908203125</ele>
        <time>2004-08-08T11:03:49Z</time>
      </trkpt>
      <trkpt lat="45.82316835410893" lon="7.68309636041522">
        <ele>1993.430908203125</ele>
        <time>2004-08-08T11:04:11Z</time>
      </trkpt>
      <trkpt lat="45.823261057958007" lon="7.683154447004199">
        <ele>1993.430908203125</ele>
        <time>2004-08-08T11:04:25Z</time>
      </trkpt>
      <trkpt lat="45.823342949151993" lon="7.683227621018887">
        <ele>1993.430908203125</ele>
        <time>2004-08-08T11:04:33Z</time>
      </trkpt>
      <trkpt lat="45.823444873094559" lon="7.683253269642592">
        <ele>1993.91162109375</ele>
        <time>2004-08-08T11:04:42Z</time>
      </trkpt>
      <trkpt lat="45.823537996038795" lon="7.683297106996179">
        <ele>1993.430908203125</ele>
        <time>2004-08-08T11:04:53Z</time>
      </trkpt>
      <trkpt lat="45.823633214458823" lon="7.683358881622553">
        <ele>1991.989013671875</ele>
        <time>2004-08-08T11:05:05Z</time>
      </trkpt>
      <trkpt lat="45.823749136179686" lon="7.683414705097675">
        <ele>1994.39208984375</ele>
        <time>2004-08-08T11:05:48Z</time>
      </trkpt>
      <trkpt lat="45.823834966868162" lon="7.683552168309689">
        <ele>1994.872802734375</ele>
        <time>2004-08-08T11:06:00Z</time>
      </trkpt>
      <trkpt lat="45.823975531384349" lon="7.683824580162764">
        <ele>1994.872802734375</ele>
        <time>2004-08-08T11:06:23Z</time>
      </trkpt>
      <trkpt lat="45.824039066210389" lon="7.684023063629866">
        <ele>1994.872802734375</ele>
        <time>2004-08-08T11:06:34Z</time>
      </trkpt>
      <trkpt lat="45.824090028181672" lon="7.684209812432528">
        <ele>1994.39208984375</ele>
        <time>2004-08-08T11:06:45Z</time>
      </trkpt>
      <trkpt lat="45.824144259095192" lon="7.684378959238529">
        <ele>1995.353515625</ele>
        <time>2004-08-08T11:06:53Z</time>
      </trkpt>
      <trkpt lat="45.824190778657794" lon="7.684517009183765">
        <ele>1995.353515625</ele>
        <time>2004-08-08T11:06:59Z</time>
      </trkpt>
      <trkpt lat="45.824252553284168" lon="7.684665620326996">
        <ele>1995.353515625</ele>
        <time>2004-08-08T11:07:06Z</time>
      </trkpt>
      <trkpt lat="45.82429907284677" lon="7.684815237298608">
        <ele>1995.353515625</ele>
        <time>2004-08-08T11:07:14Z</time>
      </trkpt>
      <trkpt lat="45.824331678450108" lon="7.684959741309285">
        <ele>1994.872802734375</ele>
        <time>2004-08-08T11:07:21Z</time>
      </trkpt>
      <trkpt lat="45.82434399984777" lon="7.685091588646174">
        <ele>1995.353515625</ele>
        <time>2004-08-08T11:07:27Z</time>
      </trkpt>
      <trkpt lat="45.824357997626066" lon="7.685243804007769">
        <ele>1995.353515625</ele>
        <time>2004-08-08T11:07:34Z</time>
      </trkpt>
      <trkpt lat="45.824432261288166" lon="7.685342626646161">
        <ele>1995.353515625</ele>
        <time>2004-08-08T11:07:41Z</time>
      </trkpt>
      <trkpt lat="45.824494790285826" lon="7.68545251339674">
        <ele>1994.872802734375</ele>
        <time>2004-08-08T11:07:47Z</time>
      </trkpt>
      <trkpt lat="45.824551954865456" lon="7.685591904446483">
        <ele>1994.872802734375</ele>
        <time>2004-08-08T11:07:57Z</time>
      </trkpt>
      <trkpt lat="45.82459419965744" lon="7.685745963826776">
        <ele>1995.353515625</ele>
        <time>2004-08-08T11:08:01Z</time>
      </trkpt>
      <trkpt lat="45.824631582945585" lon="7.685881583020091">
        <ele>1994.872802734375</ele>
        <time>2004-08-08T11:08:04Z</time>
      </trkpt>
      <trkpt lat="45.82465773448348" lon="7.686017537489533">
        <ele>1994.872802734375</ele>
        <time>2004-08-08T11:08:07Z</time>
      </trkpt>
      <trkpt lat="45.824709450826049" lon="7.686170926317573">
        <ele>1994.872802734375</ele>
        <time>2004-08-08T11:08:11Z</time>
      </trkpt>
      <trkpt lat="45.824759490787983" lon="7.68627779558301">
        <ele>1995.353515625</ele>
        <time>2004-08-08T11:08:14Z</time>
      </trkpt>
      <trkpt lat="45.824860660359263" lon="7.686339234933257">
        <ele>1994.39208984375</ele>
        <time>2004-08-08T11:08:18Z</time>
      </trkpt>
      <trkpt lat="45.824972139671445" lon="7.686402015388012">
        <ele>1994.872802734375</ele>
        <time>2004-08-08T11:08:22Z</time>
      </trkpt>
      <trkpt lat="45.825049839913845" lon="7.686477871611714">
        <ele>1995.353515625</ele>
        <time>2004-08-08T11:08:25Z</time>
      </trkpt>
      <trkpt lat="45.825118822976947" lon="7.686580214649439">
        <ele>1995.353515625</ele>
        <time>2004-08-08T11:08:29Z</time>
      </trkpt>
      <trkpt lat="45.825211443006992" lon="7.686651796102524">
        <ele>1995.834228515625</ele>
        <time>2004-08-08T11:08:34Z</time>
      </trkpt>
      <trkpt lat="45.825310768559575" lon="7.68669311888516">
        <ele>1996.315185546875</ele>
        <time>2004-08-08T11:08:39Z</time>
      </trkpt>
      <trkpt lat="45.82541755400598" lon="7.686699070036411">
        <ele>1995.353515625</ele>
        <time>2004-08-08T11:08:43Z</time>
      </trkpt>
      <trkpt lat="45.825501875951886" lon="7.686665207147598">
        <ele>1995.353515625</ele>
        <time>2004-08-08T11:08:47Z</time>
      </trkpt>
      <trkpt lat="45.825578654184937" lon="7.686588848009706">
        <ele>1996.795654296875</ele>
        <time>2004-08-08T11:08:51Z</time>
      </trkpt>
      <trkpt lat="45.825679069384933" lon="7.686527157202363">
        <ele>1996.795654296875</ele>
        <time>2004-08-08T11:08:55Z</time>
      </trkpt>
      <trkpt lat="45.825769258663058" lon="7.686461191624403">
        <ele>1996.795654296875</ele>
        <time>2004-08-08T11:08:58Z</time>
      </trkpt>
      <trkpt lat="45.825849641114473" lon="7.686402183026075">
        <ele>1997.2763671875</ele>
        <time>2004-08-08T11:09:01Z</time>
      </trkpt>
      <trkpt lat="45.825914852321148" lon="7.686297995969653">
        <ele>1996.795654296875</ele>
        <time>2004-08-08T11:09:05Z</time>
      </trkpt>
      <trkpt lat="45.825998336076736" lon="7.686259020119906">
        <ele>1997.2763671875</ele>
        <time>2004-08-08T11:09:10Z</time>
      </trkpt>
      <trkpt lat="45.826081233099103" lon="7.686318699270487">
        <ele>1996.315185546875</ele>
        <time>2004-08-08T11:09:27Z</time>
      </trkpt>
      <trkpt lat="45.826175194233656" lon="7.68638919107616">
        <ele>1996.795654296875</ele>
        <time>2004-08-08T11:09:37Z</time>
      </trkpt>
      <trkpt lat="45.826293798163533" lon="7.686492539942265">
        <ele>1998.237548828125</ele>
        <time>2004-08-08T11:10:44Z</time>
      </trkpt>
      <trkpt lat="45.826385663822293" lon="7.68657292239368">
        <ele>1999.198974609375</ele>
        <time>2004-08-08T11:10:55Z</time>
      </trkpt>
      <trkpt lat="45.826469399034977" lon="7.686632098630071">
        <ele>1999.198974609375</ele>
        <time>2004-08-08T11:10:59Z</time>
      </trkpt>
      <trkpt lat="45.826559672132134" lon="7.686680546030402">
        <ele>2000.160400390625</ele>
        <time>2004-08-08T11:11:03Z</time>
      </trkpt>
      <trkpt lat="45.826656734570861" lon="7.686727484688163">
        <ele>2000.160400390625</ele>
        <time>2004-08-08T11:11:06Z</time>
      </trkpt>
      <trkpt lat="45.826760418713093" lon="7.686810297891498">
        <ele>2000.160400390625</ele>
        <time>2004-08-08T11:11:09Z</time>
      </trkpt>
      <trkpt lat="45.826823534443974" lon="7.686934098601341">
        <ele>1999.6796875</ele>
        <time>2004-08-08T11:11:12Z</time>
      </trkpt>
      <trkpt lat="45.826855888590217" lon="7.687067789956927">
        <ele>1999.198974609375</ele>
        <time>2004-08-08T11:11:15Z</time>
      </trkpt>
      <trkpt lat="45.826894361525774" lon="7.687197960913181">
        <ele>2000.160400390625</ele>
        <time>2004-08-08T11:11:19Z</time>
      </trkpt>
      <trkpt lat="45.82691959105432" lon="7.687340872362256">
        <ele>1999.6796875</ele>
        <time>2004-08-08T11:11:23Z</time>
      </trkpt>
      <trkpt lat="45.826900564134121" lon="7.68750180490315">
        <ele>1999.6796875</ele>
        <time>2004-08-08T11:11:27Z</time>
      </trkpt>
      <trkpt lat="45.826863097026944" lon="7.687649661675096">
        <ele>1999.6796875</ele>
        <time>2004-08-08T11:11:31Z</time>
      </trkpt>
      <trkpt lat="45.826799059286714" lon="7.687760218977928">
        <ele>2000.160400390625</ele>
        <time>2004-08-08T11:11:35Z</time>
      </trkpt>
      <trkpt lat="45.826740805059671" lon="7.687878990545869">
        <ele>1999.6796875</ele>
        <time>2004-08-08T11:11:39Z</time>
      </trkpt>
      <trkpt lat="45.826682969927788" lon="7.68800706602633">
        <ele>2000.160400390625</ele>
        <time>2004-08-08T11:11:43Z</time>
      </trkpt>
      <trkpt lat="45.826649609953165" lon="7.688132124021649">
        <ele>2000.160400390625</ele>
        <time>2004-08-08T11:11:47Z</time>
      </trkpt>
      <trkpt lat="45.82668992690742" lon="7.688265731558204">
        <ele>1999.6796875</ele>
        <time>2004-08-08T11:11:51Z</time>
      </trkpt>
      <trkpt lat="45.826739128679037" lon="7.688374863937497">
        <ele>2000.160400390625</ele>
        <time>2004-08-08T11:11:54Z</time>
      </trkpt>
      <trkpt lat="45.826788917183876" lon="7.688492126762867">
        <ele>2000.160400390625</ele>
        <time>2004-08-08T11:11:57Z</time>
      </trkpt>
      <trkpt lat="45.826860750094056" lon="7.688578460365534">
        <ele>2000.160400390625</ele>
        <time>2004-08-08T11:12:00Z</time>
      </trkpt>
      <trkpt lat="45.826946496963501" lon="7.688629925251007">
        <ele>2000.160400390625</ele>
        <time>2004-08-08T11:12:03Z</time>
      </trkpt>
      <trkpt lat="45.827037775889039" lon="7.688676360994577">
        <ele>2000.160400390625</ele>
        <time>2004-08-08T11:12:07Z</time>
      </trkpt>
      <trkpt lat="45.827126037329435" lon="7.688705865293741">
        <ele>1999.6796875</ele>
        <time>2004-08-08T11:12:11Z</time>
      </trkpt>
      <trkpt lat="45.827218154445291" lon="7.688764790073037">
        <ele>1999.6796875</ele>
        <time>2004-08-08T11:12:15Z</time>
      </trkpt>
      <trkpt lat="45.82729141227901" lon="7.68885288387537">
        <ele>1999.6796875</ele>
        <time>2004-08-08T11:12:19Z</time>
      </trkpt>
      <trkpt lat="45.827351761981845" lon="7.688960172235966">
        <ele>1999.6796875</ele>
        <time>2004-08-08T11:12:24Z</time>
      </trkpt>
      <trkpt lat="45.827416386455297" lon="7.6890585757792">
        <ele>2000.160400390625</ele>
        <time>2004-08-08T11:12:30Z</time>
      </trkpt>
      <trkpt lat="45.827508503571153" lon="7.689124876633287">
        <ele>2000.160400390625</ele>
        <time>2004-08-08T11:12:37Z</time>
      </trkpt>
      <trkpt lat="45.827593244612217" lon="7.689221184700728">
        <ele>2000.160400390625</ele>
        <time>2004-08-08T11:12:43Z</time>
      </trkpt>
      <trkpt lat="45.827670441940427" lon="7.689337525516748">
        <ele>2000.640869140625</ele>
        <time>2004-08-08T11:12:48Z</time>
      </trkpt>
      <trkpt lat="45.827751411125064" lon="7.689453028142452">
        <ele>2000.640869140625</ele>
        <time>2004-08-08T11:12:53Z</time>
      </trkpt>
      <trkpt lat="45.827816789969802" lon="7.689564842730761">
        <ele>2000.640869140625</ele>
        <time>2004-08-08T11:12:57Z</time>
      </trkpt>
      <trkpt lat="45.827881414443254" lon="7.689682692289352">
        <ele>2000.640869140625</ele>
        <time>2004-08-08T11:13:01Z</time>
      </trkpt>
      <trkpt lat="45.827954085543752" lon="7.6897993683815">
        <ele>2000.640869140625</ele>
        <time>2004-08-08T11:13:05Z</time>
      </trkpt>
      <trkpt lat="45.828014854341745" lon="7.689926438033581">
        <ele>2001.12158203125</ele>
        <time>2004-08-08T11:13:09Z</time>
      </trkpt>
      <trkpt lat="45.828043855726719" lon="7.690083598718047">
        <ele>2001.602294921875</ele>
        <time>2004-08-08T11:13:13Z</time>
      </trkpt>
      <trkpt lat="45.828083166852593" lon="7.690231706947088">
        <ele>2001.602294921875</ele>
        <time>2004-08-08T11:13:17Z</time>
      </trkpt>
      <trkpt lat="45.82814360037446" lon="7.690376378595829">
        <ele>2001.12158203125</ele>
        <time>2004-08-08T11:13:21Z</time>
      </trkpt>
      <trkpt lat="45.828217696398497" lon="7.690490456297994">
        <ele>2001.12158203125</ele>
        <time>2004-08-08T11:13:25Z</time>
      </trkpt>
      <trkpt lat="45.828302605077624" lon="7.69059875048697">
        <ele>2000.640869140625</ele>
        <time>2004-08-08T11:13:29Z</time>
      </trkpt>
      <trkpt lat="45.828375527635217" lon="7.690710984170437">
        <ele>2001.12158203125</ele>
        <time>2004-08-08T11:13:33Z</time>
      </trkpt>
      <trkpt lat="45.828442918136716" lon="7.690831515938044">
        <ele>2001.12158203125</ele>
        <time>2004-08-08T11:13:37Z</time>
      </trkpt>
      <trkpt lat="45.828526066616178" lon="7.690936625003815">
        <ele>2002.082763671875</ele>
        <time>2004-08-08T11:13:41Z</time>
      </trkpt>
      <trkpt lat="45.828599240630865" lon="7.691020108759403">
        <ele>2001.602294921875</ele>
        <time>2004-08-08T11:13:45Z</time>
      </trkpt>
      <trkpt lat="45.82869965583086" lon="7.691102921962738">
        <ele>2002.082763671875</ele>
        <time>2004-08-08T11:13:50Z</time>
      </trkpt>
      <trkpt lat="45.8287822175771" lon="7.691155727952719">
        <ele>2002.082763671875</ele>
        <time>2004-08-08T11:13:54Z</time>
      </trkpt>
      <trkpt lat="45.828881710767746" lon="7.691202750429511">
        <ele>2002.082763671875</ele>
        <time>2004-08-08T11:13:59Z</time>
      </trkpt>
      <trkpt lat="45.82898011431098" lon="7.691238541156054">
        <ele>2002.082763671875</ele>
        <time>2004-08-08T11:14:04Z</time>
      </trkpt>
      <trkpt lat="45.829077763482928" lon="7.691274918615818">
        <ele>2002.5634765625</ele>
        <time>2004-08-08T11:14:09Z</time>
      </trkpt>
      <trkpt lat="45.829173987731338" lon="7.691311631351709">
        <ele>2002.082763671875</ele>
        <time>2004-08-08T11:14:14Z</time>
      </trkpt>
      <trkpt lat="45.829273983836174" lon="7.691333256661892">
        <ele>2003.044189453125</ele>
        <time>2004-08-08T11:14:19Z</time>
      </trkpt>
      <trkpt lat="45.829366687685251" lon="7.691365526989102">
        <ele>2002.5634765625</ele>
        <time>2004-08-08T11:14:23Z</time>
      </trkpt>
      <trkpt lat="45.829451261088252" lon="7.691404419019818">
        <ele>2002.5634765625</ele>
        <time>2004-08-08T11:14:27Z</time>
      </trkpt>
      <trkpt lat="45.829557962715626" lon="7.691451692953706">
        <ele>2002.5634765625</ele>
        <time>2004-08-08T11:14:32Z</time>
      </trkpt>
      <trkpt lat="45.82964857108891" lon="7.691469630226493">
        <ele>2002.5634765625</ele>
        <time>2004-08-08T11:14:36Z</time>
      </trkpt>
      <trkpt lat="45.829743035137653" lon="7.691480275243521">
        <ele>2003.044189453125</ele>
        <time>2004-08-08T11:14:41Z</time>
      </trkpt>
      <trkpt lat="45.829830961301923" lon="7.691518245264888">
        <ele>2003.044189453125</ele>
        <time>2004-08-08T11:14:48Z</time>
      </trkpt>
      <trkpt lat="45.829946547746658" lon="7.691539619117975">
        <ele>2002.5634765625</ele>
        <time>2004-08-08T11:14:52Z</time>
      </trkpt>
      <trkpt lat="45.830035144463181" lon="7.691546911373735">
        <ele>2002.5634765625</ele>
        <time>2004-08-08T11:14:56Z</time>
      </trkpt>
      <trkpt lat="45.830138912424445" lon="7.691548755392432">
        <ele>2002.5634765625</ele>
        <time>2004-08-08T11:15:15Z</time>
      </trkpt>
      <trkpt lat="45.830254666507244" lon="7.69158286973834">
        <ele>2003.044189453125</ele>
        <time>2004-08-08T11:20:43Z</time>
      </trkpt>
      <trkpt lat="45.830356506630778" lon="7.691606422886252">
        <ele>2002.5634765625</ele>
        <time>2004-08-08T11:20:48Z</time>
      </trkpt>
      <trkpt lat="45.830460526049137" lon="7.691627042368054">
        <ele>2002.5634765625</ele>
        <time>2004-08-08T11:20:52Z</time>
      </trkpt>
      <trkpt lat="45.830575106665492" lon="7.691603405401111">
        <ele>2002.5634765625</ele>
        <time>2004-08-08T11:20:56Z</time>
      </trkpt>
      <trkpt lat="45.830656746402383" lon="7.691558981314302">
        <ele>2002.082763671875</ele>
        <time>2004-08-08T11:21:00Z</time>
      </trkpt>
      <trkpt lat="45.830746768042445" lon="7.691552108153701">
        <ele>2002.082763671875</ele>
        <time>2004-08-08T11:21:05Z</time>
      </trkpt>
      <trkpt lat="45.830847602337599" lon="7.69159996882081">
        <ele>2001.602294921875</ele>
        <time>2004-08-08T11:21:10Z</time>
      </trkpt>
      <trkpt lat="45.830915160477161" lon="7.691681524738669">
        <ele>2002.082763671875</ele>
        <time>2004-08-08T11:21:15Z</time>
      </trkpt>
      <trkpt lat="45.830986490473151" lon="7.69177439622581">
        <ele>2002.5634765625</ele>
        <time>2004-08-08T11:21:20Z</time>
      </trkpt>
      <trkpt lat="45.83106804639101" lon="7.691872380673885">
        <ele>2002.5634765625</ele>
        <time>2004-08-08T11:21:25Z</time>
      </trkpt>
      <trkpt lat="45.831151027232409" lon="7.69198402762413">
        <ele>2002.5634765625</ele>
        <time>2004-08-08T11:21:30Z</time>
      </trkpt>
      <trkpt lat="45.831231493502855" lon="7.692096596583724">
        <ele>2003.044189453125</ele>
        <time>2004-08-08T11:21:35Z</time>
      </trkpt>
      <trkpt lat="45.831272983923554" lon="7.692223079502583">
        <ele>2003.52490234375</ele>
        <time>2004-08-08T11:21:41Z</time>
      </trkpt>
      <trkpt lat="45.831335345283151" lon="7.692305557429791">
        <ele>2004.486083984375</ele>
        <time>2004-08-08T11:21:47Z</time>
      </trkpt>
      <trkpt lat="45.831396533176303" lon="7.692316537722945">
        <ele>2004.966796875</ele>
        <time>2004-08-08T11:22:14Z</time>
      </trkpt>
      <trkpt lat="45.831476496532559" lon="7.692287536337972">
        <ele>2006.889404296875</ele>
        <time>2004-08-08T11:22:24Z</time>
      </trkpt>
      <trkpt lat="45.831557800993323" lon="7.69229088909924">
        <ele>2008.331298828125</ele>
        <time>2004-08-08T11:22:34Z</time>
      </trkpt>
      <trkpt lat="45.831642122939229" lon="7.692329529672861">
        <ele>2011.21533203125</ele>
        <time>2004-08-08T11:22:47Z</time>
      </trkpt>
      <trkpt lat="45.831748154014349" lon="7.692438075318933">
        <ele>2011.696044921875</ele>
        <time>2004-08-08T11:23:17Z</time>
      </trkpt>
      <trkpt lat="45.831807665526867" lon="7.692521642893553">
        <ele>2013.13818359375</ele>
        <time>2004-08-08T11:26:02Z</time>
      </trkpt>
      <trkpt lat="45.831877151504159" lon="7.692603198811412">
        <ele>2013.61865234375</ele>
        <time>2004-08-08T11:26:08Z</time>
      </trkpt>
      <trkpt lat="45.831952756270766" lon="7.692691711708903">
        <ele>2013.13818359375</ele>
        <time>2004-08-08T11:26:14Z</time>
      </trkpt>
      <trkpt lat="45.83201302215457" lon="7.69279707223177">
        <ele>2012.657470703125</ele>
        <time>2004-08-08T11:26:19Z</time>
      </trkpt>
      <trkpt lat="45.832076724618673" lon="7.692924225702882">
        <ele>2013.13818359375</ele>
        <time>2004-08-08T11:26:25Z</time>
      </trkpt>
      <trkpt lat="45.832136906683445" lon="7.693035956472158">
        <ele>2014.580078125</ele>
        <time>2004-08-08T11:26:31Z</time>
      </trkpt>
      <trkpt lat="45.832216618582606" lon="7.693135449662805">
        <ele>2015.060791015625</ele>
        <time>2004-08-08T11:26:39Z</time>
      </trkpt>
      <trkpt lat="45.832302197813988" lon="7.693191440775991">
        <ele>2015.54150390625</ele>
        <time>2004-08-08T11:26:45Z</time>
      </trkpt>
      <trkpt lat="45.832378473132849" lon="7.69327643327415">
        <ele>2015.54150390625</ele>
        <time>2004-08-08T11:26:51Z</time>
      </trkpt>
      <trkpt lat="45.832437900826335" lon="7.693381626158953">
        <ele>2016.02197265625</ele>
        <time>2004-08-08T11:26:57Z</time>
      </trkpt>
      <trkpt lat="45.832493891939521" lon="7.693498134613037">
        <ele>2016.502685546875</ele>
        <time>2004-08-08T11:27:03Z</time>
      </trkpt>
      <trkpt lat="45.832544015720487" lon="7.693612044677138">
        <ele>2017.4638671875</ele>
        <time>2004-08-08T11:27:09Z</time>
      </trkpt>
      <trkpt lat="45.832588188350201" lon="7.693746238946915">
        <ele>2018.906005859375</ele>
        <time>2004-08-08T11:27:16Z</time>
      </trkpt>
      <trkpt lat="45.832631606608629" lon="7.693882193416357">
        <ele>2018.906005859375</ele>
        <time>2004-08-08T11:27:23Z</time>
      </trkpt>
      <trkpt lat="45.832676701247692" lon="7.693995432928205">
        <ele>2019.8671875</ele>
        <time>2004-08-08T11:27:29Z</time>
      </trkpt>
      <trkpt lat="45.832731267437339" lon="7.694107079878449">
        <ele>2019.8671875</ele>
        <time>2004-08-08T11:27:35Z</time>
      </trkpt>
      <trkpt lat="45.832787929102778" lon="7.694240603595972">
        <ele>2020.347900390625</ele>
        <time>2004-08-08T11:27:41Z</time>
      </trkpt>
      <trkpt lat="45.832840148359537" lon="7.694357866421342">
        <ele>2020.347900390625</ele>
        <time>2004-08-08T11:27:47Z</time>
      </trkpt>
      <trkpt lat="45.832889853045344" lon="7.694476051256061">
        <ele>2020.347900390625</ele>
        <time>2004-08-08T11:27:53Z</time>
      </trkpt>
      <trkpt lat="45.832945089787245" lon="7.694601360708475">
        <ele>2020.82861328125</ele>
        <time>2004-08-08T11:27:59Z</time>
      </trkpt>
      <trkpt lat="45.833013486117125" lon="7.694721389561892">
        <ele>2020.82861328125</ele>
        <time>2004-08-08T11:28:05Z</time>
      </trkpt>
      <trkpt lat="45.8330665435642" lon="7.694831024855375">
        <ele>2021.30908203125</ele>
        <time>2004-08-08T11:28:10Z</time>
      </trkpt>
      <trkpt lat="45.833125552162528" lon="7.694952981546521">
        <ele>2021.789794921875</ele>
        <time>2004-08-08T11:28:15Z</time>
      </trkpt>
      <trkpt lat="45.833170227706432" lon="7.695078877732158">
        <ele>2022.751220703125</ele>
        <time>2004-08-08T11:28:20Z</time>
      </trkpt>
      <trkpt lat="45.83319797180593" lon="7.695225393399596">
        <ele>2024.193115234375</ele>
        <time>2004-08-08T11:28:26Z</time>
      </trkpt>
      <trkpt lat="45.833227979019284" lon="7.695350451394916">
        <ele>2025.635009765625</ele>
        <time>2004-08-08T11:28:31Z</time>
      </trkpt>
      <trkpt lat="45.833258405327797" lon="7.695474671199918">
        <ele>2025.154296875</ele>
        <time>2004-08-08T11:28:36Z</time>
      </trkpt>
      <trkpt lat="45.83327516913414" lon="7.69560668617487">
        <ele>2026.11572265625</ele>
        <time>2004-08-08T11:28:41Z</time>
      </trkpt>
      <trkpt lat="45.833278940990567" lon="7.695747250691056">
        <ele>2026.596435546875</ele>
        <time>2004-08-08T11:28:46Z</time>
      </trkpt>
      <trkpt lat="45.833312720060349" lon="7.695886893197894">
        <ele>2026.596435546875</ele>
        <time>2004-08-08T11:28:52Z</time>
      </trkpt>
      <trkpt lat="45.833343984559178" lon="7.696007592603564">
        <ele>2027.0771484375</ele>
        <time>2004-08-08T11:28:57Z</time>
      </trkpt>
      <trkpt lat="45.833351779729128" lon="7.696161484345794">
        <ele>2027.5576171875</ele>
        <time>2004-08-08T11:29:03Z</time>
      </trkpt>
      <trkpt lat="45.833370806649327" lon="7.696304395794869">
        <ele>2028.999755859375</ele>
        <time>2004-08-08T11:29:10Z</time>
      </trkpt>
      <trkpt lat="45.83336896263063" lon="7.696442361921072">
        <ele>2029.48046875</ele>
        <time>2004-08-08T11:29:17Z</time>
      </trkpt>
      <trkpt lat="45.833382206037641" lon="7.696581920608878">
        <ele>2029.961181640625</ele>
        <time>2004-08-08T11:29:24Z</time>
      </trkpt>
      <trkpt lat="45.833382289856672" lon="7.696718964725733">
        <ele>2030.922607421875</ele>
        <time>2004-08-08T11:29:31Z</time>
      </trkpt>
      <trkpt lat="45.833387318998575" lon="7.696848632767797">
        <ele>2030.922607421875</ele>
        <time>2004-08-08T11:29:38Z</time>
      </trkpt>
      <trkpt lat="45.833381116390228" lon="7.69700420089066">
        <ele>2031.8837890625</ele>
        <time>2004-08-08T11:29:46Z</time>
      </trkpt>
      <trkpt lat="45.833364771679044" lon="7.69713269546628">
        <ele>2033.32568359375</ele>
        <time>2004-08-08T11:29:53Z</time>
      </trkpt>
      <trkpt lat="45.833361921831965" lon="7.697268733754754">
        <ele>2033.32568359375</ele>
        <time>2004-08-08T11:30:01Z</time>
      </trkpt>
      <trkpt lat="45.833341218531132" lon="7.697418350726366">
        <ele>2034.287109375</ele>
        <time>2004-08-08T11:30:08Z</time>
      </trkpt>
      <trkpt lat="45.833342140540481" lon="7.697566542774439">
        <ele>2034.767822265625</ele>
        <time>2004-08-08T11:30:15Z</time>
      </trkpt>
      <trkpt lat="45.833320766687393" lon="7.697709789499641">
        <ele>2034.767822265625</ele>
        <time>2004-08-08T11:30:21Z</time>
      </trkpt>
      <trkpt lat="45.833309283480048" lon="7.697854461148381">
        <ele>2034.767822265625</ele>
        <time>2004-08-08T11:30:28Z</time>
      </trkpt>
      <trkpt lat="45.833306349813938" lon="7.698003156110644">
        <ele>2036.209716796875</ele>
        <time>2004-08-08T11:30:35Z</time>
      </trkpt>
      <trkpt lat="45.833331914618611" lon="7.698158053681254">
        <ele>2037.1708984375</ele>
        <time>2004-08-08T11:30:43Z</time>
      </trkpt>
      <trkpt lat="45.833407687023282" lon="7.698207423090935">
        <ele>2038.13232421875</ele>
        <time>2004-08-08T11:30:50Z</time>
      </trkpt>
      <trkpt lat="45.833495780825615" lon="7.698189904913306">
        <ele>2038.13232421875</ele>
        <time>2004-08-08T11:30:57Z</time>
      </trkpt>
      <trkpt lat="45.833584293723106" lon="7.698166184127331">
        <ele>2037.651611328125</ele>
        <time>2004-08-08T11:31:02Z</time>
      </trkpt>
      <trkpt lat="45.833668867126107" lon="7.698165513575077">
        <ele>2037.651611328125</ele>
        <time>2004-08-08T11:31:06Z</time>
      </trkpt>
      <trkpt lat="45.833763247355819" lon="7.698179678991437">
        <ele>2038.13232421875</ele>
        <time>2004-08-08T11:31:11Z</time>
      </trkpt>
      <trkpt lat="45.833851089701056" lon="7.698205327615142">
        <ele>2037.651611328125</ele>
        <time>2004-08-08T11:31:15Z</time>
      </trkpt>
      <trkpt lat="45.833938764408231" lon="7.698230724781752">
        <ele>2038.13232421875</ele>
        <time>2004-08-08T11:31:20Z</time>
      </trkpt>
      <trkpt lat="45.834040604531765" lon="7.69825117662549">
        <ele>2037.651611328125</ele>
        <time>2004-08-08T11:31:24Z</time>
      </trkpt>
      <trkpt lat="45.834139008074999" lon="7.698287470266223">
        <ele>2037.651611328125</ele>
        <time>2004-08-08T11:31:28Z</time>
      </trkpt>
      <trkpt lat="45.834246715530753" lon="7.698337594047189">
        <ele>2037.1708984375</ele>
        <time>2004-08-08T11:31:32Z</time>
      </trkpt>
      <trkpt lat="45.834332965314388" lon="7.698387885466218">
        <ele>2037.1708984375</ele>
        <time>2004-08-08T11:31:35Z</time>
      </trkpt>
      <trkpt lat="45.834415443241596" lon="7.698476566001773">
        <ele>2037.1708984375</ele>
        <time>2004-08-08T11:31:38Z</time>
      </trkpt>
      <trkpt lat="45.834479229524732" lon="7.698548482730985">
        <ele>2037.1708984375</ele>
        <time>2004-08-08T11:31:41Z</time>
      </trkpt>
      <trkpt lat="45.834511248394847" lon="7.698680749163032">
        <ele>2038.13232421875</ele>
        <time>2004-08-08T11:31:45Z</time>
      </trkpt>
      <trkpt lat="45.834513511508703" lon="7.698810752481222">
        <ele>2038.613037109375</ele>
        <time>2004-08-08T11:31:49Z</time>
      </trkpt>
      <trkpt lat="45.834508901461959" lon="7.698956178501248">
        <ele>2039.57421875</ele>
        <time>2004-08-08T11:31:54Z</time>
      </trkpt>
      <trkpt lat="45.834512338042259" lon="7.699100850149989">
        <ele>2040.054931640625</ele>
        <time>2004-08-08T11:31:59Z</time>
      </trkpt>
      <trkpt lat="45.834527090191841" lon="7.699237056076527">
        <ele>2040.535400390625</ele>
        <time>2004-08-08T11:32:04Z</time>
      </trkpt>
      <trkpt lat="45.834546871483326" lon="7.699373345822096">
        <ele>2041.01611328125</ele>
        <time>2004-08-08T11:32:09Z</time>
      </trkpt>
      <trkpt lat="45.834565814584494" lon="7.699514832347632">
        <ele>2040.535400390625</ele>
        <time>2004-08-08T11:32:14Z</time>
      </trkpt>
      <trkpt lat="45.834590289741755" lon="7.699668388813734">
        <ele>2040.535400390625</ele>
        <time>2004-08-08T11:32:19Z</time>
      </trkpt>
      <trkpt lat="45.834611160680652" lon="7.699820520356298">
        <ele>2041.01611328125</ele>
        <time>2004-08-08T11:32:24Z</time>
      </trkpt>
      <trkpt lat="45.834629349410534" lon="7.699977848678827">
        <ele>2040.535400390625</ele>
        <time>2004-08-08T11:32:29Z</time>
      </trkpt>
      <trkpt lat="45.834646699950099" lon="7.700126795098186">
        <ele>2041.496826171875</ele>
        <time>2004-08-08T11:32:34Z</time>
      </trkpt>
      <trkpt lat="45.834658937528729" lon="7.70026383921504">
        <ele>2041.01611328125</ele>
        <time>2004-08-08T11:32:38Z</time>
      </trkpt>
      <trkpt lat="45.834670420736074" lon="7.700406415387988">
        <ele>2041.496826171875</ele>
        <time>2004-08-08T11:32:42Z</time>
      </trkpt>
      <trkpt lat="45.834678886458278" lon="7.700569946318865">
        <ele>2041.496826171875</ele>
        <time>2004-08-08T11:32:46Z</time>
      </trkpt>
      <trkpt lat="45.83469120785594" lon="7.700723754242063">
        <ele>2041.496826171875</ele>
        <time>2004-08-08T11:32:49Z</time>
      </trkpt>
      <trkpt lat="45.83470344543457" lon="7.7008633967489">
        <ele>2040.535400390625</ele>
        <time>2004-08-08T11:32:52Z</time>
      </trkpt>
      <trkpt lat="45.834718449041247" lon="7.701020054519177">
        <ele>2041.496826171875</ele>
        <time>2004-08-08T11:32:56Z</time>
      </trkpt>
      <trkpt lat="45.834730602800846" lon="7.701147962361574">
        <ele>2042.458251953125</ele>
        <time>2004-08-08T11:33:00Z</time>
      </trkpt>
      <trkpt lat="45.834716521203518" lon="7.70130361430347">
        <ele>2042.938720703125</ele>
        <time>2004-08-08T11:33:05Z</time>
      </trkpt>
      <trkpt lat="45.834683664143085" lon="7.701433449983597">
        <ele>2043.41943359375</ele>
        <time>2004-08-08T11:33:10Z</time>
      </trkpt>
      <trkpt lat="45.834638485684991" lon="7.701561022549868">
        <ele>2042.938720703125</ele>
        <time>2004-08-08T11:38:08Z</time>
      </trkpt>
      <trkpt lat="45.834629014134407" lon="7.701696306467056">
        <ele>2042.938720703125</ele>
        <time>2004-08-08T11:38:12Z</time>
      </trkpt>
      <trkpt lat="45.834631444886327" lon="7.701818263158202">
        <ele>2041.9775390625</ele>
        <time>2004-08-08T11:38:15Z</time>
      </trkpt>
      <trkpt lat="45.834685675799847" lon="7.701945584267378">
        <ele>2042.458251953125</ele>
        <time>2004-08-08T11:38:19Z</time>
      </trkpt>
      <trkpt lat="45.834760190919042" lon="7.70203024148941">
        <ele>2042.938720703125</ele>
        <time>2004-08-08T11:38:24Z</time>
      </trkpt>
      <trkpt lat="45.834813835099339" lon="7.702152030542493">
        <ele>2044.380859375</ele>
        <time>2004-08-08T11:38:29Z</time>
      </trkpt>
      <trkpt lat="45.834834538400173" lon="7.702280860394239">
        <ele>2045.822998046875</ele>
        <time>2004-08-08T11:38:34Z</time>
      </trkpt>
      <trkpt lat="45.834853732958436" lon="7.702426202595234">
        <ele>2046.3037109375</ele>
        <time>2004-08-08T11:38:40Z</time>
      </trkpt>
      <trkpt lat="45.834884662181139" lon="7.702547153457999">
        <ele>2047.74560546875</ele>
        <time>2004-08-08T11:38:45Z</time>
      </trkpt>
      <trkpt lat="45.834913998842239" lon="7.702669864520431">
        <ele>2047.74560546875</ele>
        <time>2004-08-08T11:38:52Z</time>
      </trkpt>
      <trkpt lat="45.834945682436228" lon="7.702812608331442">
        <ele>2047.74560546875</ele>
        <time>2004-08-08T11:39:00Z</time>
      </trkpt>
      <trkpt lat="45.83496144041419" lon="7.702937833964825">
        <ele>2048.22607421875</ele>
        <time>2004-08-08T11:39:06Z</time>
      </trkpt>
      <trkpt lat="45.83498147316277" lon="7.703060377389193">
        <ele>2047.264892578125</ele>
        <time>2004-08-08T11:39:12Z</time>
      </trkpt>
      <trkpt lat="45.834991531446576" lon="7.703207479789853">
        <ele>2046.7841796875</ele>
        <time>2004-08-08T11:39:19Z</time>
      </trkpt>
      <trkpt lat="45.835023047402501" lon="7.703337483108044">
        <ele>2044.861572265625</ele>
        <time>2004-08-08T11:39:23Z</time>
      </trkpt>
      <trkpt lat="45.835069483146071" lon="7.70347218029201">
        <ele>2045.34228515625</ele>
        <time>2004-08-08T11:39:28Z</time>
      </trkpt>
      <trkpt lat="45.835126731544733" lon="7.703616097569466">
        <ele>2044.861572265625</ele>
        <time>2004-08-08T11:39:33Z</time>
      </trkpt>
      <trkpt lat="45.835165707394481" lon="7.703742412850261">
        <ele>2043.900146484375</ele>
        <time>2004-08-08T11:39:37Z</time>
      </trkpt>
      <trkpt lat="45.835215412080288" lon="7.703866800293326">
        <ele>2043.900146484375</ele>
        <time>2004-08-08T11:39:41Z</time>
      </trkpt>
      <trkpt lat="45.835275342687964" lon="7.703983476385474">
        <ele>2043.900146484375</ele>
        <time>2004-08-08T11:39:45Z</time>
      </trkpt>
      <trkpt lat="45.835336530581117" lon="7.704111048951745">
        <ele>2042.938720703125</ele>
        <time>2004-08-08T11:39:50Z</time>
      </trkpt>
      <trkpt lat="45.835383636876941" lon="7.704221690073609">
        <ele>2043.41943359375</ele>
        <time>2004-08-08T11:39:54Z</time>
      </trkpt>
      <trkpt lat="45.835415152832866" lon="7.704354710876942">
        <ele>2042.938720703125</ele>
        <time>2004-08-08T11:39:57Z</time>
      </trkpt>
      <trkpt lat="45.835452200844884" lon="7.704489827156067">
        <ele>2042.458251953125</ele>
        <time>2004-08-08T11:40:00Z</time>
      </trkpt>
      <trkpt lat="45.835497798398137" lon="7.70461798645556">
        <ele>2041.9775390625</ele>
        <time>2004-08-08T11:40:03Z</time>
      </trkpt>
      <trkpt lat="45.835539875552058" lon="7.704768525436521">
        <ele>2041.496826171875</ele>
        <time>2004-08-08T11:40:07Z</time>
      </trkpt>
      <trkpt lat="45.835585221648216" lon="7.704915208742023">
        <ele>2041.01611328125</ele>
        <time>2004-08-08T11:40:11Z</time>
      </trkpt>
      <trkpt lat="45.835629310458899" lon="7.705055437982082">
        <ele>2041.01611328125</ele>
        <time>2004-08-08T11:40:14Z</time>
      </trkpt>
      <trkpt lat="45.835676668211818" lon="7.705185860395432">
        <ele>2040.054931640625</ele>
        <time>2004-08-08T11:40:17Z</time>
      </trkpt>
      <trkpt lat="45.835709357634187" lon="7.705308571457863">
        <ele>2041.01611328125</ele>
        <time>2004-08-08T11:40:20Z</time>
      </trkpt>
      <trkpt lat="45.835746489465237" lon="7.70542767830193">
        <ele>2040.054931640625</ele>
        <time>2004-08-08T11:40:23Z</time>
      </trkpt>
      <trkpt lat="45.835801642388105" lon="7.705550724640489">
        <ele>2039.57421875</ele>
        <time>2004-08-08T11:40:28Z</time>
      </trkpt>
      <trkpt lat="45.835853274911642" lon="7.7056934684515">
        <ele>2039.57421875</ele>
        <time>2004-08-08T11:40:33Z</time>
      </trkpt>
      <trkpt lat="45.835892837494612" lon="7.705817688256502">
        <ele>2040.535400390625</ele>
        <time>2004-08-08T11:40:37Z</time>
      </trkpt>
      <trkpt lat="45.835929969325662" lon="7.705938890576363">
        <ele>2040.054931640625</ele>
        <time>2004-08-08T11:40:41Z</time>
      </trkpt>
      <trkpt lat="45.835974141955376" lon="7.706087753176689">
        <ele>2040.535400390625</ele>
        <time>2004-08-08T11:40:46Z</time>
      </trkpt>
      <trkpt lat="45.836017644032836" lon="7.706210631877184">
        <ele>2040.535400390625</ele>
        <time>2004-08-08T11:40:50Z</time>
      </trkpt>
      <trkpt lat="45.836064498871565" lon="7.706338707357645">
        <ele>2040.535400390625</ele>
        <time>2004-08-08T11:40:55Z</time>
      </trkpt>
      <trkpt lat="45.83610825240612" lon="7.706473153084517">
        <ele>2040.535400390625</ele>
        <time>2004-08-08T11:41:00Z</time>
      </trkpt>
      <trkpt lat="45.836154017597437" lon="7.706598630174995">
        <ele>2041.01611328125</ele>
        <time>2004-08-08T11:41:05Z</time>
      </trkpt>
      <trkpt lat="45.836216630414128" lon="7.706729639321566">
        <ele>2041.496826171875</ele>
        <time>2004-08-08T11:41:11Z</time>
      </trkpt>
      <trkpt lat="45.836272202432156" lon="7.70686031319201">
        <ele>2041.496826171875</ele>
        <time>2004-08-08T11:41:16Z</time>
      </trkpt>
      <trkpt lat="45.836337329819798" lon="7.706990735605359">
        <ele>2041.01611328125</ele>
        <time>2004-08-08T11:41:21Z</time>
      </trkpt>
      <trkpt lat="45.836393991485238" lon="7.707112105563283">
        <ele>2040.535400390625</ele>
        <time>2004-08-08T11:41:25Z</time>
      </trkpt>
      <trkpt lat="45.836456269025803" lon="7.707241773605347">
        <ele>2040.535400390625</ele>
        <time>2004-08-08T11:41:29Z</time>
      </trkpt>
      <trkpt lat="45.836506644263864" lon="7.707378985360265">
        <ele>2040.054931640625</ele>
        <time>2004-08-08T11:41:33Z</time>
      </trkpt>
      <trkpt lat="45.836550649255514" lon="7.707538828253746">
        <ele>2040.054931640625</ele>
        <time>2004-08-08T11:41:37Z</time>
      </trkpt>
      <trkpt lat="45.836578728631139" lon="7.707708980888128">
        <ele>2040.054931640625</ele>
        <time>2004-08-08T11:41:41Z</time>
      </trkpt>
      <trkpt lat="45.83661250770092" lon="7.707829177379608">
        <ele>2040.054931640625</ele>
        <time>2004-08-08T11:41:44Z</time>
      </trkpt>
      <trkpt lat="45.836644861847162" lon="7.707962617278099">
        <ele>2040.535400390625</ele>
        <time>2004-08-08T11:41:47Z</time>
      </trkpt>
      <trkpt lat="45.836685094982386" lon="7.708085747435689">
        <ele>2040.535400390625</ele>
        <time>2004-08-08T11:41:50Z</time>
      </trkpt>
      <trkpt lat="45.836734464392066" lon="7.708212481811643">
        <ele>2041.01611328125</ele>
        <time>2004-08-08T11:41:54Z</time>
      </trkpt>
      <trkpt lat="45.836787689477205" lon="7.708334773778915">
        <ele>2041.01611328125</ele>
        <time>2004-08-08T11:41:58Z</time>
      </trkpt>
      <trkpt lat="45.836843680590391" lon="7.708451449871063">
        <ele>2041.496826171875</ele>
        <time>2004-08-08T11:42:02Z</time>
      </trkpt>
      <trkpt lat="45.836915094405413" lon="7.708568461239338">
        <ele>2041.496826171875</ele>
        <time>2004-08-08T11:42:06Z</time>
      </trkpt>
      <trkpt lat="45.836981311440468" lon="7.708681281656027">
        <ele>2041.01611328125</ele>
        <time>2004-08-08T11:42:10Z</time>
      </trkpt>
      <trkpt lat="45.83705423399806" lon="7.708801561966538">
        <ele>2041.01611328125</ele>
        <time>2004-08-08T11:42:14Z</time>
      </trkpt>
      <trkpt lat="45.837114667519927" lon="7.70890424028039">
        <ele>2041.01611328125</ele>
        <time>2004-08-08T11:42:18Z</time>
      </trkpt>
      <trkpt lat="45.837176190689206" lon="7.709017228335142">
        <ele>2041.496826171875</ele>
        <time>2004-08-08T11:42:23Z</time>
      </trkpt>
      <trkpt lat="45.837234361097217" lon="7.709114877507091">
        <ele>2041.9775390625</ele>
        <time>2004-08-08T11:42:27Z</time>
      </trkpt>
      <trkpt lat="45.837310804054141" lon="7.709226524457336">
        <ele>2041.496826171875</ele>
        <time>2004-08-08T11:42:32Z</time>
      </trkpt>
      <trkpt lat="45.837379619479179" lon="7.709316462278366">
        <ele>2041.9775390625</ele>
        <time>2004-08-08T11:42:37Z</time>
      </trkpt>
      <trkpt lat="45.837449692189693" lon="7.709426516667008">
        <ele>2041.9775390625</ele>
        <time>2004-08-08T11:42:44Z</time>
      </trkpt>
      <trkpt lat="45.837525380775332" lon="7.709515700116754">
        <ele>2042.458251953125</ele>
        <time>2004-08-08T11:42:49Z</time>
      </trkpt>
      <trkpt lat="45.83758388645947" lon="7.709622150287032">
        <ele>2041.9775390625</ele>
        <time>2004-08-08T11:42:53Z</time>
      </trkpt>
      <trkpt lat="45.837627472355962" lon="7.709741843864322">
        <ele>2042.458251953125</ele>
        <time>2004-08-08T11:42:57Z</time>
      </trkpt>
      <trkpt lat="45.83766108378768" lon="7.709866818040609">
        <ele>2042.458251953125</ele>
        <time>2004-08-08T11:43:01Z</time>
      </trkpt>
      <trkpt lat="45.837703915312886" lon="7.710002521052957">
        <ele>2042.938720703125</ele>
        <time>2004-08-08T11:43:05Z</time>
      </trkpt>
      <trkpt lat="45.837746327742934" lon="7.710133530199528">
        <ele>2042.938720703125</ele>
        <time>2004-08-08T11:43:09Z</time>
      </trkpt>
      <trkpt lat="45.837792092934251" lon="7.710254145786166">
        <ele>2043.41943359375</ele>
        <time>2004-08-08T11:43:13Z</time>
      </trkpt>
      <trkpt lat="45.837838193401694" lon="7.710374677553773">
        <ele>2043.41943359375</ele>
        <time>2004-08-08T11:43:17Z</time>
      </trkpt>
      <trkpt lat="45.837896279990673" lon="7.710510045289993">
        <ele>2043.41943359375</ele>
        <time>2004-08-08T11:43:21Z</time>
      </trkpt>
      <trkpt lat="45.837946906685829" lon="7.71064130589366">
        <ele>2043.900146484375</ele>
        <time>2004-08-08T11:43:25Z</time>
      </trkpt>
      <trkpt lat="45.837980015203357" lon="7.710755551233888">
        <ele>2043.41943359375</ele>
        <time>2004-08-08T11:43:29Z</time>
      </trkpt>
      <trkpt lat="45.838017230853438" lon="7.710878094658256">
        <ele>2043.41943359375</ele>
        <time>2004-08-08T11:43:33Z</time>
      </trkpt>
      <trkpt lat="45.838059224188328" lon="7.711026202887297">
        <ele>2043.41943359375</ele>
        <time>2004-08-08T11:43:38Z</time>
      </trkpt>
      <trkpt lat="45.838093506172299" lon="7.711152266710997">
        <ele>2043.900146484375</ele>
        <time>2004-08-08T11:43:42Z</time>
      </trkpt>
      <trkpt lat="45.838138433173299" lon="7.711274810135365">
        <ele>2043.900146484375</ele>
        <time>2004-08-08T11:43:47Z</time>
      </trkpt>
      <trkpt lat="45.838185539469123" lon="7.711400203406811">
        <ele>2044.380859375</ele>
        <time>2004-08-08T11:43:52Z</time>
      </trkpt>
      <trkpt lat="45.838232478126884" lon="7.711544539779425">
        <ele>2043.900146484375</ele>
        <time>2004-08-08T11:43:57Z</time>
      </trkpt>
      <trkpt lat="45.838259635493159" lon="7.711700443178415">
        <ele>2043.900146484375</ele>
        <time>2004-08-08T11:44:02Z</time>
      </trkpt>
      <trkpt lat="45.838290313258767" lon="7.711842600256205">
        <ele>2044.380859375</ele>
        <time>2004-08-08T11:44:07Z</time>
      </trkpt>
      <trkpt lat="45.838321661576629" lon="7.711968161165714">
        <ele>2044.380859375</ele>
        <time>2004-08-08T11:44:11Z</time>
      </trkpt>
      <trkpt lat="45.83834370598197" lon="7.712103947997093">
        <ele>2044.861572265625</ele>
        <time>2004-08-08T11:44:15Z</time>
      </trkpt>
      <trkpt lat="45.838366420939565" lon="7.712234454229474">
        <ele>2043.900146484375</ele>
        <time>2004-08-08T11:44:19Z</time>
      </trkpt>
      <trkpt lat="45.838382849469781" lon="7.712363116443157">
        <ele>2044.380859375</ele>
        <time>2004-08-08T11:44:23Z</time>
      </trkpt>
      <trkpt lat="45.83838083781302" lon="7.7125284075737">
        <ele>2044.380859375</ele>
        <time>2004-08-08T11:44:28Z</time>
      </trkpt>
      <trkpt lat="45.838358039036393" lon="7.712679449468851">
        <ele>2044.380859375</ele>
        <time>2004-08-08T11:44:33Z</time>
      </trkpt>
      <trkpt lat="45.838369019329548" lon="7.71284650079906">
        <ele>2044.861572265625</ele>
        <time>2004-08-08T11:44:38Z</time>
      </trkpt>
      <trkpt lat="45.83838377147913" lon="7.712991759181023">
        <ele>2044.380859375</ele>
        <time>2004-08-08T11:44:42Z</time>
      </trkpt>
      <trkpt lat="45.838381256908178" lon="7.7131362631917">
        <ele>2044.861572265625</ele>
        <time>2004-08-08T11:44:46Z</time>
      </trkpt>
      <trkpt lat="45.838403049856424" lon="7.713275570422411">
        <ele>2044.861572265625</ele>
        <time>2004-08-08T11:44:51Z</time>
      </trkpt>
      <trkpt lat="45.838416963815689" lon="7.713437927886844">
        <ele>2044.861572265625</ele>
        <time>2004-08-08T11:44:56Z</time>
      </trkpt>
      <trkpt lat="45.838444707915187" lon="7.713565332815051">
        <ele>2044.861572265625</ele>
        <time>2004-08-08T11:45:00Z</time>
      </trkpt>
      <trkpt lat="45.838486533612013" lon="7.713683098554611">
        <ele>2044.380859375</ele>
        <time>2004-08-08T11:45:04Z</time>
      </trkpt>
      <trkpt lat="45.838544955477118" lon="7.713793152943254">
        <ele>2044.380859375</ele>
        <time>2004-08-08T11:45:08Z</time>
      </trkpt>
      <trkpt lat="45.838613854721189" lon="7.71390387788415">
        <ele>2044.380859375</ele>
        <time>2004-08-08T11:45:12Z</time>
      </trkpt>
      <trkpt lat="45.838681496679783" lon="7.714034887030721">
        <ele>2043.900146484375</ele>
        <time>2004-08-08T11:45:16Z</time>
      </trkpt>
      <trkpt lat="45.838740756735206" lon="7.714186096563935">
        <ele>2044.380859375</ele>
        <time>2004-08-08T11:45:20Z</time>
      </trkpt>
      <trkpt lat="45.838797753676772" lon="7.714325655251741">
        <ele>2043.41943359375</ele>
        <time>2004-08-08T11:45:24Z</time>
      </trkpt>
      <trkpt lat="45.838864305987954" lon="7.714442918077111">
        <ele>2043.900146484375</ele>
        <time>2004-08-08T11:45:28Z</time>
      </trkpt>
      <trkpt lat="45.838937060907483" lon="7.714540818706155">
        <ele>2043.900146484375</ele>
        <time>2004-08-08T11:45:32Z</time>
      </trkpt>
      <trkpt lat="45.839009145274758" lon="7.714624470099807">
        <ele>2043.41943359375</ele>
        <time>2004-08-08T11:45:36Z</time>
      </trkpt>
      <trkpt lat="45.839092209935188" lon="7.714692866429687">
        <ele>2044.380859375</ele>
        <time>2004-08-08T11:45:40Z</time>
      </trkpt>
      <trkpt lat="45.839179968461394" lon="7.714750617742539">
        <ele>2043.41943359375</ele>
        <time>2004-08-08T11:45:44Z</time>
      </trkpt>
      <trkpt lat="45.839250208809972" lon="7.714832928031683">
        <ele>2043.900146484375</ele>
        <time>2004-08-08T11:45:48Z</time>
      </trkpt>
      <trkpt lat="45.839317766949534" lon="7.714928649365902">
        <ele>2043.900146484375</ele>
        <time>2004-08-08T11:45:52Z</time>
      </trkpt>
      <trkpt lat="45.839393874630332" lon="7.715011881664395">
        <ele>2043.900146484375</ele>
        <time>2004-08-08T11:45:56Z</time>
      </trkpt>
      <trkpt lat="45.839474173262715" lon="7.715088911354542">
        <ele>2045.34228515625</ele>
        <time>2004-08-08T11:46:00Z</time>
      </trkpt>
      <trkpt lat="45.839556399732828" lon="7.715151188895106">
        <ele>2045.822998046875</ele>
        <time>2004-08-08T11:46:04Z</time>
      </trkpt>
      <trkpt lat="45.839644158259034" lon="7.715201480314136">
        <ele>2046.3037109375</ele>
        <time>2004-08-08T11:46:08Z</time>
      </trkpt>
      <trkpt lat="45.839746417477727" lon="7.715240623801947">
        <ele>2045.822998046875</ele>
        <time>2004-08-08T11:46:12Z</time>
      </trkpt>
      <trkpt lat="45.839853873476386" lon="7.71531019359827">
        <ele>2045.822998046875</ele>
        <time>2004-08-08T11:46:16Z</time>
      </trkpt>
      <trkpt lat="45.839933082461357" lon="7.715395269915462">
        <ele>2045.34228515625</ele>
        <time>2004-08-08T11:46:20Z</time>
      </trkpt>
      <trkpt lat="45.840008519589901" lon="7.715491242706776">
        <ele>2045.822998046875</ele>
        <time>2004-08-08T11:46:24Z</time>
      </trkpt>
      <trkpt lat="45.840085214003921" lon="7.715587969869375">
        <ele>2045.34228515625</ele>
        <time>2004-08-08T11:46:28Z</time>
      </trkpt>
      <trkpt lat="45.840150089934468" lon="7.715696599334478">
        <ele>2045.34228515625</ele>
        <time>2004-08-08T11:46:32Z</time>
      </trkpt>
      <trkpt lat="45.840218905359507" lon="7.715813191607595">
        <ele>2045.34228515625</ele>
        <time>2004-08-08T11:46:36Z</time>
      </trkpt>
      <trkpt lat="45.840284368023276" lon="7.715913439169526">
        <ele>2045.34228515625</ele>
        <time>2004-08-08T11:46:40Z</time>
      </trkpt>
      <trkpt lat="45.84035343490541" lon="7.716003712266684">
        <ele>2044.861572265625</ele>
        <time>2004-08-08T11:46:44Z</time>
      </trkpt>
      <trkpt lat="45.840431554242969" lon="7.716078478842974">
        <ele>2045.822998046875</ele>
        <time>2004-08-08T11:46:48Z</time>
      </trkpt>
      <trkpt lat="45.840516462922096" lon="7.716121058911085">
        <ele>2045.34228515625</ele>
        <time>2004-08-08T11:46:52Z</time>
      </trkpt>
      <trkpt lat="45.840606736019254" lon="7.716161711141467">
        <ele>2045.34228515625</ele>
        <time>2004-08-08T11:46:56Z</time>
      </trkpt>
      <trkpt lat="45.840695248916745" lon="7.716214684769511">
        <ele>2045.34228515625</ele>
        <time>2004-08-08T11:46:59Z</time>
      </trkpt>
      <trkpt lat="45.840791054069996" lon="7.71627520211041">
        <ele>2045.822998046875</ele>
        <time>2004-08-08T11:47:02Z</time>
      </trkpt>
      <trkpt lat="45.840887865051627" lon="7.716340580955148">
        <ele>2045.34228515625</ele>
        <time>2004-08-08T11:47:05Z</time>
      </trkpt>
      <trkpt lat="45.840979227796197" lon="7.716404031962156">
        <ele>2045.822998046875</ele>
        <time>2004-08-08T11:47:08Z</time>
      </trkpt>
      <trkpt lat="45.841067489236593" lon="7.716471254825592">
        <ele>2046.7841796875</ele>
        <time>2004-08-08T11:47:11Z</time>
      </trkpt>
      <trkpt lat="45.841151811182499" lon="7.716532358899713">
        <ele>2046.3037109375</ele>
        <time>2004-08-08T11:47:14Z</time>
      </trkpt>
      <trkpt lat="45.841259686276317" lon="7.716602515429258">
        <ele>2046.3037109375</ele>
        <time>2004-08-08T11:47:18Z</time>
      </trkpt>
      <trkpt lat="45.841364711523056" lon="7.716671749949455">
        <ele>2045.822998046875</ele>
        <time>2004-08-08T11:47:22Z</time>
      </trkpt>
      <trkpt lat="45.841451715677977" lon="7.716743163764477">
        <ele>2046.3037109375</ele>
        <time>2004-08-08T11:47:26Z</time>
      </trkpt>
      <trkpt lat="45.841545341536403" lon="7.716815834864974">
        <ele>2046.3037109375</ele>
        <time>2004-08-08T11:47:30Z</time>
      </trkpt>
      <trkpt lat="45.841639386489987" lon="7.716887248679996">
        <ele>2046.3037109375</ele>
        <time>2004-08-08T11:47:34Z</time>
      </trkpt>
      <trkpt lat="45.841733096167445" lon="7.716957656666637">
        <ele>2046.7841796875</ele>
        <time>2004-08-08T11:47:38Z</time>
      </trkpt>
      <trkpt lat="45.84184180945158" lon="7.717044409364462">
        <ele>2047.264892578125</ele>
        <time>2004-08-08T11:47:42Z</time>
      </trkpt>
      <trkpt lat="45.841946331784129" lon="7.717131162062287">
        <ele>2047.264892578125</ele>
        <time>2004-08-08T11:47:46Z</time>
      </trkpt>
      <trkpt lat="45.842050183564425" lon="7.717221099883318">
        <ele>2046.7841796875</ele>
        <time>2004-08-08T11:47:50Z</time>
      </trkpt>
      <trkpt lat="45.842126039788127" lon="7.717285556718707">
        <ele>2046.3037109375</ele>
        <time>2004-08-08T11:47:53Z</time>
      </trkpt>
      <trkpt lat="45.842215223237872" lon="7.717359568923712">
        <ele>2047.264892578125</ele>
        <time>2004-08-08T11:47:57Z</time>
      </trkpt>
      <trkpt lat="45.842293761670589" lon="7.717434167861939">
        <ele>2046.3037109375</ele>
        <time>2004-08-08T11:48:01Z</time>
      </trkpt>
      <trkpt lat="45.842374311760068" lon="7.717511616647244">
        <ele>2046.7841796875</ele>
        <time>2004-08-08T11:48:05Z</time>
      </trkpt>
      <trkpt lat="45.842461902648211" lon="7.717586467042565">
        <ele>2046.7841796875</ele>
        <time>2004-08-08T11:48:09Z</time>
      </trkpt>
      <trkpt lat="45.84254496730864" lon="7.717670956626535">
        <ele>2044.861572265625</ele>
        <time>2004-08-08T11:48:13Z</time>
      </trkpt>
      <trkpt lat="45.842614788562059" lon="7.717767097055912">
        <ele>2047.264892578125</ele>
        <time>2004-08-08T11:48:17Z</time>
      </trkpt>
      <trkpt lat="45.842674886807799" lon="7.717856699600816">
        <ele>2046.7841796875</ele>
        <time>2004-08-08T11:48:21Z</time>
      </trkpt>
      <trkpt lat="45.842763567343354" lon="7.717958455905318">
        <ele>2046.3037109375</ele>
        <time>2004-08-08T11:48:26Z</time>
      </trkpt>
      <trkpt lat="45.842840177938342" lon="7.718044705688953">
        <ele>2046.3037109375</ele>
        <time>2004-08-08T11:48:30Z</time>
      </trkpt>
      <trkpt lat="45.84291092120111" lon="7.718149982392788">
        <ele>2046.3037109375</ele>
        <time>2004-08-08T11:48:34Z</time>
      </trkpt>
      <trkpt lat="45.842969929799438" lon="7.718253750354052">
        <ele>2046.3037109375</ele>
        <time>2004-08-08T11:48:38Z</time>
      </trkpt>
      <trkpt lat="45.843030782416463" lon="7.718372102826834">
        <ele>2046.3037109375</ele>
        <time>2004-08-08T11:48:42Z</time>
      </trkpt>
      <trkpt lat="45.84308685734868" lon="7.718503111973405">
        <ele>2045.822998046875</ele>
        <time>2004-08-08T11:48:46Z</time>
      </trkpt>
      <trkpt lat="45.843132371082902" lon="7.718625487759709">
        <ele>2046.3037109375</ele>
        <time>2004-08-08T11:48:50Z</time>
      </trkpt>
      <trkpt lat="45.843201940879226" lon="7.718748869374394">
        <ele>2045.822998046875</ele>
        <time>2004-08-08T11:48:55Z</time>
      </trkpt>
      <trkpt lat="45.843272181227803" lon="7.718838723376393">
        <ele>2046.3037109375</ele>
        <time>2004-08-08T11:48:59Z</time>
      </trkpt>
      <trkpt lat="45.843357676640153" lon="7.71890502423048">
        <ele>2045.34228515625</ele>
        <time>2004-08-08T11:49:03Z</time>
      </trkpt>
      <trkpt lat="45.843447530642152" lon="7.718960428610444">
        <ele>2045.34228515625</ele>
        <time>2004-08-08T11:49:07Z</time>
      </trkpt>
      <trkpt lat="45.843539061024785" lon="7.71900569088757">
        <ele>2045.34228515625</ele>
        <time>2004-08-08T11:49:11Z</time>
      </trkpt>
      <trkpt lat="45.843628579750657" lon="7.719043493270874">
        <ele>2045.34228515625</ele>
        <time>2004-08-08T11:49:15Z</time>
      </trkpt>
      <trkpt lat="45.8437230437994" lon="7.719072327017784">
        <ele>2045.34228515625</ele>
        <time>2004-08-08T11:49:19Z</time>
      </trkpt>
      <trkpt lat="45.843822620809078" lon="7.71910191513598">
        <ele>2045.822998046875</ele>
        <time>2004-08-08T11:49:23Z</time>
      </trkpt>
      <trkpt lat="45.843916414305568" lon="7.719144076108933">
        <ele>2045.34228515625</ele>
        <time>2004-08-08T11:49:27Z</time>
      </trkpt>
      <trkpt lat="45.843987660482526" lon="7.719253459945321">
        <ele>2045.822998046875</ele>
        <time>2004-08-08T11:49:32Z</time>
      </trkpt>
      <trkpt lat="45.844062343239784" lon="7.719337614253163">
        <ele>2047.264892578125</ele>
        <time>2004-08-08T11:49:37Z</time>
      </trkpt>
      <trkpt lat="45.844159321859479" lon="7.71940047852695">
        <ele>2047.264892578125</ele>
        <time>2004-08-08T11:49:42Z</time>
      </trkpt>
      <trkpt lat="45.844253031536937" lon="7.719429647549987">
        <ele>2046.7841796875</ele>
        <time>2004-08-08T11:49:46Z</time>
      </trkpt>
      <trkpt lat="45.8443499263376" lon="7.719444567337632">
        <ele>2046.7841796875</ele>
        <time>2004-08-08T11:49:50Z</time>
      </trkpt>
      <trkpt lat="45.844442378729582" lon="7.719447752460837">
        <ele>2048.22607421875</ele>
        <time>2004-08-08T11:49:54Z</time>
      </trkpt>
      <trkpt lat="45.844536172226071" lon="7.719444567337632">
        <ele>2048.22607421875</ele>
        <time>2004-08-08T11:49:58Z</time>
      </trkpt>
      <trkpt lat="45.844629798084497" lon="7.719445405527949">
        <ele>2048.22607421875</ele>
        <time>2004-08-08T11:50:02Z</time>
      </trkpt>
      <trkpt lat="45.844736415892839" lon="7.719499636441469">
        <ele>2047.74560546875</ele>
        <time>2004-08-08T11:50:06Z</time>
      </trkpt>
      <trkpt lat="45.844817301258445" lon="7.719580521807075">
        <ele>2047.264892578125</ele>
        <time>2004-08-08T11:50:10Z</time>
      </trkpt>
      <trkpt lat="45.844881925731897" lon="7.719675740227103">
        <ele>2047.264892578125</ele>
        <time>2004-08-08T11:50:14Z</time>
      </trkpt>
      <trkpt lat="45.844956357032061" lon="7.71975033916533">
        <ele>2047.74560546875</ele>
        <time>2004-08-08T11:50:18Z</time>
      </trkpt>
      <trkpt lat="45.845034727826715" lon="7.719825692474842">
        <ele>2047.74560546875</ele>
        <time>2004-08-08T11:50:22Z</time>
      </trkpt>
      <trkpt lat="45.845111589878798" lon="7.719903979450464">
        <ele>2048.22607421875</ele>
        <time>2004-08-08T11:50:26Z</time>
      </trkpt>
      <trkpt lat="45.845188787207007" lon="7.719971872866154">
        <ele>2047.74560546875</ele>
        <time>2004-08-08T11:50:30Z</time>
      </trkpt>
      <trkpt lat="45.845263805240393" lon="7.720095841214061">
        <ele>2047.74560546875</ele>
        <time>2004-08-08T11:50:35Z</time>
      </trkpt>
      <trkpt lat="45.845315270125866" lon="7.720220563933253">
        <ele>2048.22607421875</ele>
        <time>2004-08-08T11:50:40Z</time>
      </trkpt>
      <trkpt lat="45.845357850193977" lon="7.720327181741595">
        <ele>2049.1875</ele>
        <time>2004-08-08T11:50:55Z</time>
      </trkpt>
      <trkpt lat="45.845391293987632" lon="7.720473613590002">
        <ele>2048.706787109375</ele>
        <time>2004-08-08T11:51:04Z</time>
      </trkpt>
      <trkpt lat="45.845467234030366" lon="7.720591882243753">
        <ele>2051.110107421875</ele>
        <time>2004-08-08T11:58:28Z</time>
      </trkpt>
      <trkpt lat="45.845502773299813" lon="7.720739739015698">
        <ele>2050.62939453125</ele>
        <time>2004-08-08T11:58:34Z</time>
      </trkpt>
      <trkpt lat="45.845529176294804" lon="7.720878208056092">
        <ele>2050.62939453125</ele>
        <time>2004-08-08T11:58:39Z</time>
      </trkpt>
      <trkpt lat="45.845570666715503" lon="7.721017012372613">
        <ele>2050.62939453125</ele>
        <time>2004-08-08T11:58:44Z</time>
      </trkpt>
      <trkpt lat="45.845610899850726" lon="7.721136957406998">
        <ele>2050.62939453125</ele>
        <time>2004-08-08T11:58:48Z</time>
      </trkpt>
      <trkpt lat="45.845636045560241" lon="7.721284897997975">
        <ele>2050.62939453125</ele>
        <time>2004-08-08T11:58:53Z</time>
      </trkpt>
      <trkpt lat="45.84567510522902" lon="7.721436945721507">
        <ele>2050.62939453125</ele>
        <time>2004-08-08T11:58:58Z</time>
      </trkpt>
      <trkpt lat="45.845725145190954" lon="7.721539288759232">
        <ele>2050.62939453125</ele>
        <time>2004-08-08T11:59:02Z</time>
      </trkpt>
      <trkpt lat="45.845796810463071" lon="7.721632663160563">
        <ele>2051.110107421875</ele>
        <time>2004-08-08T11:59:07Z</time>
      </trkpt>
      <trkpt lat="45.845878450199962" lon="7.7217205055058">
        <ele>2050.62939453125</ele>
        <time>2004-08-08T11:59:12Z</time>
      </trkpt>
      <trkpt lat="45.84595656953752" lon="7.721820753067732">
        <ele>2051.110107421875</ele>
        <time>2004-08-08T11:59:17Z</time>
      </trkpt>
      <trkpt lat="45.846023038029671" lon="7.721941871568561">
        <ele>2051.5908203125</ele>
        <time>2004-08-08T11:59:22Z</time>
      </trkpt>
      <trkpt lat="45.846081962808967" lon="7.722058212384582">
        <ele>2050.62939453125</ele>
        <time>2004-08-08T11:59:27Z</time>
      </trkpt>
      <trkpt lat="45.846114065498114" lon="7.72219249047339">
        <ele>2051.5908203125</ele>
        <time>2004-08-08T11:59:32Z</time>
      </trkpt>
      <trkpt lat="45.846141306683421" lon="7.722344538196921">
        <ele>2051.5908203125</ele>
        <time>2004-08-08T11:59:37Z</time>
      </trkpt>
      <trkpt lat="45.846172655001283" lon="7.722482588142157">
        <ele>2051.5908203125</ele>
        <time>2004-08-08T11:59:41Z</time>
      </trkpt>
      <trkpt lat="45.84621892310679" lon="7.722629522904754">
        <ele>2051.5908203125</ele>
        <time>2004-08-08T11:59:46Z</time>
      </trkpt>
      <trkpt lat="45.846260832622647" lon="7.722772350534797">
        <ele>2051.5908203125</ele>
        <time>2004-08-08T11:59:51Z</time>
      </trkpt>
      <trkpt lat="45.846320679411292" lon="7.722912328317761">
        <ele>2051.110107421875</ele>
        <time>2004-08-08T11:59:56Z</time>
      </trkpt>
      <trkpt lat="45.846381532028317" lon="7.723025484010577">
        <ele>2051.5908203125</ele>
        <time>2004-08-08T12:00:00Z</time>
      </trkpt>
      <trkpt lat="45.846459483727813" lon="7.723138052970171">
        <ele>2051.110107421875</ele>
        <time>2004-08-08T12:00:04Z</time>
      </trkpt>
      <trkpt lat="45.846537267789245" lon="7.723243329674006">
        <ele>2051.110107421875</ele>
        <time>2004-08-08T12:00:08Z</time>
      </trkpt>
      <trkpt lat="45.846596276387572" lon="7.723355479538441">
        <ele>2051.5908203125</ele>
        <time>2004-08-08T12:00:12Z</time>
      </trkpt>
      <trkpt lat="45.846660817041993" lon="7.723476011306047">
        <ele>2050.62939453125</ele>
        <time>2004-08-08T12:00:18Z</time>
      </trkpt>
      <trkpt lat="45.846725692972541" lon="7.723571062088013">
        <ele>2051.110107421875</ele>
        <time>2004-08-08T12:00:23Z</time>
      </trkpt>
      <trkpt lat="45.846794927492738" lon="7.723660580813885">
        <ele>2052.0712890625</ele>
        <time>2004-08-08T12:00:28Z</time>
      </trkpt>
      <trkpt lat="45.846876567229629" lon="7.72376149892807">
        <ele>2051.5908203125</ele>
        <time>2004-08-08T12:00:33Z</time>
      </trkpt>
      <trkpt lat="45.846963906660676" lon="7.723852107301354">
        <ele>2051.110107421875</ele>
        <time>2004-08-08T12:00:38Z</time>
      </trkpt>
      <trkpt lat="45.847055353224277" lon="7.723927544429898">
        <ele>2052.0712890625</ele>
        <time>2004-08-08T12:00:43Z</time>
      </trkpt>
      <trkpt lat="45.84714780561626" lon="7.723969873040915">
        <ele>2051.110107421875</ele>
        <time>2004-08-08T12:00:47Z</time>
      </trkpt>
      <trkpt lat="45.847250148653984" lon="7.724006669595838">
        <ele>2051.5908203125</ele>
        <time>2004-08-08T12:00:51Z</time>
      </trkpt>
      <trkpt lat="45.847361627966166" lon="7.724032569676638">
        <ele>2052.0712890625</ele>
        <time>2004-08-08T12:00:55Z</time>
      </trkpt>
      <trkpt lat="45.847469670698047" lon="7.724079675972462">
        <ele>2052.0712890625</ele>
        <time>2004-08-08T12:00:59Z</time>
      </trkpt>
      <trkpt lat="45.847576875239611" lon="7.724138852208853">
        <ele>2052.0712890625</ele>
        <time>2004-08-08T12:01:03Z</time>
      </trkpt>
      <trkpt lat="45.847671758383512" lon="7.724188389256597">
        <ele>2052.552001953125</ele>
        <time>2004-08-08T12:01:07Z</time>
      </trkpt>
      <trkpt lat="45.847763959318399" lon="7.724242033436894">
        <ele>2052.552001953125</ele>
        <time>2004-08-08T12:01:11Z</time>
      </trkpt>
      <trkpt lat="45.847862614318728" lon="7.724289391189814">
        <ele>2052.552001953125</ele>
        <time>2004-08-08T12:01:15Z</time>
      </trkpt>
      <trkpt lat="45.847959760576487" lon="7.724328702315688">
        <ele>2052.552001953125</ele>
        <time>2004-08-08T12:01:19Z</time>
      </trkpt>
      <trkpt lat="45.84804592654109" lon="7.724362900480628">
        <ele>2053.03271484375</ele>
        <time>2004-08-08T12:01:23Z</time>
      </trkpt>
      <trkpt lat="45.848039304837584" lon="7.724353261291981">
        <ele>2053.03271484375</ele>
        <time>2004-08-08T12:01:55Z</time>
      </trkpt>
      <trkpt lat="45.848046345636249" lon="7.724344544112682">
        <ele>2052.552001953125</ele>
        <time>2004-08-08T12:02:40Z</time>
      </trkpt>
      <trkpt lat="45.849851556122303" lon="7.724321912974119">
        <ele>2058.31982421875</ele>
        <time>2004-08-08T12:06:45Z</time>
      </trkpt>
      <trkpt lat="45.850128997117281" lon="7.72440598346293">
        <ele>2058.800537109375</ele>
        <time>2004-08-08T12:06:50Z</time>
      </trkpt>
      <trkpt lat="45.850170152261853" lon="7.724399948492646">
        <ele>2058.800537109375</ele>
        <time>2004-08-08T12:06:55Z</time>
      </trkpt>
      <trkpt lat="45.850259670987725" lon="7.724376730620861">
        <ele>2058.800537109375</ele>
        <time>2004-08-08T12:07:07Z</time>
      </trkpt>
      <trkpt lat="45.850338628515601" lon="7.72433222271502">
        <ele>2059.76171875</ele>
        <time>2004-08-08T12:07:17Z</time>
      </trkpt>
      <trkpt lat="45.850422028452158" lon="7.7242745552212">
        <ele>2060.24267578125</ele>
        <time>2004-08-08T12:07:35Z</time>
      </trkpt>
      <trkpt lat="45.850507942959666" lon="7.724258545786142">
        <ele>2059.28125</ele>
        <time>2004-08-08T12:07:44Z</time>
      </trkpt>
      <trkpt lat="45.850556055083871" lon="7.724168775603175">
        <ele>2059.28125</ele>
        <time>2004-08-08T12:07:56Z</time>
      </trkpt>
      <trkpt lat="45.850581452250481" lon="7.724032737314701">
        <ele>2059.76171875</ele>
        <time>2004-08-08T12:08:05Z</time>
      </trkpt>
      <trkpt lat="45.850594528019428" lon="7.72388705983758">
        <ele>2058.31982421875</ele>
        <time>2004-08-08T12:08:15Z</time>
      </trkpt>
      <trkpt lat="45.850657057017088" lon="7.723771557211876">
        <ele>2058.800537109375</ele>
        <time>2004-08-08T12:08:22Z</time>
      </trkpt>
      <trkpt lat="45.85071581415832" lon="7.723653456196189">
        <ele>2058.800537109375</ele>
        <time>2004-08-08T12:08:27Z</time>
      </trkpt>
      <trkpt lat="45.850800722837448" lon="7.723513143137097">
        <ele>2059.28125</ele>
        <time>2004-08-08T12:08:32Z</time>
      </trkpt>
      <trkpt lat="45.850895773619413" lon="7.723403507843614">
        <ele>2061.2041015625</ele>
        <time>2004-08-08T12:08:38Z</time>
      </trkpt>
      <trkpt lat="45.850987890735269" lon="7.723302757367492">
        <ele>2059.76171875</ele>
        <time>2004-08-08T12:08:43Z</time>
      </trkpt>
      <trkpt lat="45.851088305935264" lon="7.723182896152139">
        <ele>2059.28125</ele>
        <time>2004-08-08T12:08:47Z</time>
      </trkpt>
      <trkpt lat="45.851187882944942" lon="7.723052054643631">
        <ele>2058.31982421875</ele>
        <time>2004-08-08T12:08:51Z</time>
      </trkpt>
      <trkpt lat="45.85127430036664" lon="7.72292741574347">
        <ele>2058.800537109375</ele>
        <time>2004-08-08T12:08:55Z</time>
      </trkpt>
      <trkpt lat="45.851355604827404" lon="7.722812918946147">
        <ele>2058.800537109375</ele>
        <time>2004-08-08T12:08:59Z</time>
      </trkpt>
      <trkpt lat="45.851434646174312" lon="7.722695823758841">
        <ele>2059.28125</ele>
        <time>2004-08-08T12:09:03Z</time>
      </trkpt>
      <trkpt lat="45.851508993655443" lon="7.722571771591902">
        <ele>2058.800537109375</ele>
        <time>2004-08-08T12:09:07Z</time>
      </trkpt>
      <trkpt lat="45.851575629785657" lon="7.722450653091073">
        <ele>2059.28125</ele>
        <time>2004-08-08T12:09:13Z</time>
      </trkpt>
      <trkpt lat="45.851638913154602" lon="7.722335485741496">
        <ele>2059.28125</ele>
        <time>2004-08-08T12:09:19Z</time>
      </trkpt>
      <trkpt lat="45.85170722566545" lon="7.722224593162537">
        <ele>2059.28125</ele>
        <time>2004-08-08T12:09:23Z</time>
      </trkpt>
      <trkpt lat="45.85179565474391" lon="7.722102887928486">
        <ele>2059.28125</ele>
        <time>2004-08-08T12:09:27Z</time>
      </trkpt>
      <trkpt lat="45.851876623928547" lon="7.721980344504118">
        <ele>2059.28125</ele>
        <time>2004-08-08T12:09:31Z</time>
      </trkpt>
      <trkpt lat="45.851965555921197" lon="7.721875486895442">
        <ele>2059.76171875</ele>
        <time>2004-08-08T12:09:35Z</time>
      </trkpt>
      <trkpt lat="45.852060187608004" lon="7.721785549074411">
        <ele>2059.28125</ele>
        <time>2004-08-08T12:09:39Z</time>
      </trkpt>
      <trkpt lat="45.85215725004673" lon="7.721695443615317">
        <ele>2060.24267578125</ele>
        <time>2004-08-08T12:09:43Z</time>
      </trkpt>
      <trkpt lat="45.852253725752234" lon="7.721611708402634">
        <ele>2059.28125</ele>
        <time>2004-08-08T12:09:47Z</time>
      </trkpt>
      <trkpt lat="45.852350201457739" lon="7.721528057008982">
        <ele>2058.800537109375</ele>
        <time>2004-08-08T12:09:51Z</time>
      </trkpt>
      <trkpt lat="45.852446677163243" lon="7.72144440561533">
        <ele>2058.31982421875</ele>
        <time>2004-08-08T12:09:55Z</time>
      </trkpt>
      <trkpt lat="45.852543236687779" lon="7.721360670402646">
        <ele>2057.83935546875</ele>
        <time>2004-08-08T12:09:59Z</time>
      </trkpt>
      <trkpt lat="45.852639712393284" lon="7.721277019008994">
        <ele>2058.800537109375</ele>
        <time>2004-08-08T12:10:03Z</time>
      </trkpt>
      <trkpt lat="45.852736188098788" lon="7.721193367615342">
        <ele>2057.83935546875</ele>
        <time>2004-08-08T12:10:07Z</time>
      </trkpt>
      <trkpt lat="45.852832747623324" lon="7.721109632402659">
        <ele>2057.83935546875</ele>
        <time>2004-08-08T12:10:11Z</time>
      </trkpt>
      <trkpt lat="45.852832747623324" lon="7.721109632402659">
        <ele>2058.31982421875</ele>
        <time>2004-08-08T12:10:12Z</time>
      </trkpt>
      <trkpt lat="45.853543030098081" lon="7.721283975988627">
        <ele>2060.24267578125</ele>
        <time>2004-08-08T12:11:30Z</time>
      </trkpt>
      <trkpt lat="45.853188140317798" lon="7.72143124602735">
        <ele>2060.723388671875</ele>
        <time>2004-08-08T12:11:36Z</time>
      </trkpt>
      <trkpt lat="45.853277910500765" lon="7.721400819718838">
        <ele>2061.2041015625</ele>
        <time>2004-08-08T12:11:42Z</time>
      </trkpt>
      <trkpt lat="45.853366255760193" lon="7.721369974315167">
        <ele>2061.684814453125</ele>
        <time>2004-08-08T12:11:50Z</time>
      </trkpt>
      <trkpt lat="45.853446973487735" lon="7.721297722309828">
        <ele>2061.684814453125</ele>
        <time>2004-08-08T12:11:57Z</time>
      </trkpt>
      <trkpt lat="45.853544119745493" lon="7.721230667084456">
        <ele>2061.684814453125</ele>
        <time>2004-08-08T12:12:04Z</time>
      </trkpt>
      <trkpt lat="45.853630201891065" lon="7.721165204420686">
        <ele>2061.2041015625</ele>
        <time>2004-08-08T12:12:10Z</time>
      </trkpt>
      <trkpt lat="45.853710500523448" lon="7.721106112003326">
        <ele>2061.2041015625</ele>
        <time>2004-08-08T12:12:15Z</time>
      </trkpt>
      <trkpt lat="45.853801360353827" lon="7.721032937988639">
        <ele>2060.723388671875</ele>
        <time>2004-08-08T12:12:21Z</time>
      </trkpt>
      <trkpt lat="45.853886185213923" lon="7.720960937440395">
        <ele>2061.2041015625</ele>
        <time>2004-08-08T12:12:27Z</time>
      </trkpt>
      <trkpt lat="45.853965478017926" lon="7.720887260511518">
        <ele>2061.684814453125</ele>
        <time>2004-08-08T12:12:33Z</time>
      </trkpt>
      <trkpt lat="45.854053571820259" lon="7.720810063183308">
        <ele>2062.165283203125</ele>
        <time>2004-08-08T12:12:38Z</time>
      </trkpt>
      <trkpt lat="45.854136049747467" lon="7.720721634104848">
        <ele>2063.126708984375</ele>
        <time>2004-08-08T12:12:43Z</time>
      </trkpt>
      <trkpt lat="45.854162117466331" lon="7.720570089295507">
        <ele>2063.126708984375</ele>
        <time>2004-08-08T12:12:48Z</time>
      </trkpt>
      <trkpt lat="45.854171253740788" lon="7.720398595556617">
        <ele>2063.607177734375</ele>
        <time>2004-08-08T12:12:53Z</time>
      </trkpt>
      <trkpt lat="45.854177037253976" lon="7.720256270840764">
        <ele>2063.607177734375</ele>
        <time>2004-08-08T12:12:57Z</time>
      </trkpt>
      <trkpt lat="45.854178378358483" lon="7.720119645819068">
        <ele>2064.087890625</ele>
        <time>2004-08-08T12:13:01Z</time>
      </trkpt>
      <trkpt lat="45.854178294539452" lon="7.719979248940945">
        <ele>2064.087890625</ele>
        <time>2004-08-08T12:13:05Z</time>
      </trkpt>
      <trkpt lat="45.854173516854644" lon="7.719839941710234">
        <ele>2063.607177734375</ele>
        <time>2004-08-08T12:13:09Z</time>
      </trkpt>
      <trkpt lat="45.854181982576847" lon="7.719712285324931">
        <ele>2064.568603515625</ele>
        <time>2004-08-08T12:13:13Z</time>
      </trkpt>
      <trkpt lat="45.854219365864992" lon="7.719595022499561">
        <ele>2064.568603515625</ele>
        <time>2004-08-08T12:13:18Z</time>
      </trkpt>
      <trkpt lat="45.854274602606893" lon="7.719468707218766">
        <ele>2064.568603515625</ele>
        <time>2004-08-08T12:13:24Z</time>
      </trkpt>
      <trkpt lat="45.854339394718409" lon="7.719347840175033">
        <ele>2064.568603515625</ele>
        <time>2004-08-08T12:13:30Z</time>
      </trkpt>
      <trkpt lat="45.854379963129759" lon="7.719232756644487">
        <ele>2064.568603515625</ele>
        <time>2004-08-08T12:13:36Z</time>
      </trkpt>
      <trkpt lat="45.854419441893697" lon="7.719106273725629">
        <ele>2065.530029296875</ele>
        <time>2004-08-08T12:13:43Z</time>
      </trkpt>
      <trkpt lat="45.854439055547118" lon="7.718960512429476">
        <ele>2066.971923828125</ele>
        <time>2004-08-08T12:13:50Z</time>
      </trkpt>
      <trkpt lat="45.854398319497705" lon="7.718866216018796">
        <ele>2066.971923828125</ele>
        <time>2004-08-08T12:14:54Z</time>
      </trkpt>
      <trkpt lat="45.854444587603211" lon="7.718866299837828">
        <ele>2067.452392578125</ele>
        <time>2004-08-08T12:22:32Z</time>
      </trkpt>
      <trkpt lat="45.854423381388187" lon="7.718711821362376">
        <ele>2067.452392578125</ele>
        <time>2004-08-08T12:23:04Z</time>
      </trkpt>
      <trkpt lat="45.854423213750124" lon="7.71856002509594">
        <ele>2066.971923828125</ele>
        <time>2004-08-08T12:23:08Z</time>
      </trkpt>
      <trkpt lat="45.854434110224247" lon="7.718399846926332">
        <ele>2067.452392578125</ele>
        <time>2004-08-08T12:23:12Z</time>
      </trkpt>
      <trkpt lat="45.854456070810556" lon="7.718243440613151">
        <ele>2067.452392578125</ele>
        <time>2004-08-08T12:23:16Z</time>
      </trkpt>
      <trkpt lat="45.854480629786849" lon="7.718121148645878">
        <ele>2067.452392578125</ele>
        <time>2004-08-08T12:23:21Z</time>
      </trkpt>
      <trkpt lat="45.854487670585513" lon="7.717972788959742">
        <ele>2066.4912109375</ele>
        <time>2004-08-08T12:23:51Z</time>
      </trkpt>
      <trkpt lat="45.854498567059636" lon="7.717811604961753">
        <ele>2065.04931640625</ele>
        <time>2004-08-08T12:23:55Z</time>
      </trkpt>
      <trkpt lat="45.854532597586513" lon="7.717671291902661">
        <ele>2065.04931640625</ele>
        <time>2004-08-08T12:23:59Z</time>
      </trkpt>
      <trkpt lat="45.854589426890016" lon="7.71757205016911">
        <ele>2064.087890625</ele>
        <time>2004-08-08T12:24:06Z</time>
      </trkpt>
      <trkpt lat="45.854632761329412" lon="7.717447495087981">
        <ele>2063.607177734375</ele>
        <time>2004-08-08T12:24:13Z</time>
      </trkpt>
      <trkpt lat="45.85469763725996" lon="7.717331908643246">
        <ele>2062.64599609375</ele>
        <time>2004-08-08T12:24:18Z</time>
      </trkpt>
      <trkpt lat="45.85479143075645" lon="7.717292262241244">
        <ele>2061.684814453125</ele>
        <time>2004-08-08T12:24:23Z</time>
      </trkpt>
      <trkpt lat="45.854878099635243" lon="7.717362837865949">
        <ele>2060.723388671875</ele>
        <time>2004-08-08T12:24:27Z</time>
      </trkpt>
      <trkpt lat="45.854947166517377" lon="7.717455876991153">
        <ele>2059.76171875</ele>
        <time>2004-08-08T12:24:30Z</time>
      </trkpt>
      <trkpt lat="45.855014808475971" lon="7.717596273869276">
        <ele>2058.800537109375</ele>
        <time>2004-08-08T12:24:33Z</time>
      </trkpt>
      <trkpt lat="45.855097118765116" lon="7.717722086235881">
        <ele>2056.8779296875</ele>
        <time>2004-08-08T12:24:36Z</time>
      </trkpt>
      <trkpt lat="45.855166353285313" lon="7.717813700437546">
        <ele>2055.43603515625</ele>
        <time>2004-08-08T12:24:38Z</time>
      </trkpt>
      <trkpt lat="45.855233743786812" lon="7.717916965484619">
        <ele>2054.474609375</ele>
        <time>2004-08-08T12:24:40Z</time>
      </trkpt>
      <trkpt lat="45.855298284441233" lon="7.718023667111993">
        <ele>2053.513427734375</ele>
        <time>2004-08-08T12:24:42Z</time>
      </trkpt>
      <trkpt lat="45.855376236140728" lon="7.718157442286611">
        <ele>2053.03271484375</ele>
        <time>2004-08-08T12:24:45Z</time>
      </trkpt>
      <trkpt lat="45.85543155670166" lon="7.718298844993115">
        <ele>2052.552001953125</ele>
        <time>2004-08-08T12:24:48Z</time>
      </trkpt>
      <trkpt lat="45.85546868853271" lon="7.718463130295277">
        <ele>2050.14892578125</ele>
        <time>2004-08-08T12:24:50Z</time>
      </trkpt>
      <trkpt lat="45.855507664382458" lon="7.718645352870226">
        <ele>2049.1875</ele>
        <time>2004-08-08T12:24:52Z</time>
      </trkpt>
      <trkpt lat="45.855557201430202" lon="7.718845596536994">
        <ele>2048.22607421875</ele>
        <time>2004-08-08T12:24:54Z</time>
      </trkpt>
      <trkpt lat="45.855620233342052" lon="7.719044666737318">
        <ele>2046.7841796875</ele>
        <time>2004-08-08T12:24:56Z</time>
      </trkpt>
      <trkpt lat="45.855674548074603" lon="7.719252537935972">
        <ele>2045.822998046875</ele>
        <time>2004-08-08T12:24:58Z</time>
      </trkpt>
      <trkpt lat="45.855691395699978" lon="7.719466695562005">
        <ele>2044.380859375</ele>
        <time>2004-08-08T12:25:00Z</time>
      </trkpt>
      <trkpt lat="45.855658203363419" lon="7.719627041369677">
        <ele>2043.900146484375</ele>
        <time>2004-08-08T12:25:02Z</time>
      </trkpt>
      <trkpt lat="45.855580251663923" lon="7.719735754653812">
        <ele>2043.41943359375</ele>
        <time>2004-08-08T12:25:04Z</time>
      </trkpt>
      <trkpt lat="45.855490565299988" lon="7.719784621149302">
        <ele>2042.938720703125</ele>
        <time>2004-08-08T12:25:06Z</time>
      </trkpt>
      <trkpt lat="45.855396771803498" lon="7.719805659726262">
        <ele>2041.9775390625</ele>
        <time>2004-08-08T12:25:08Z</time>
      </trkpt>
      <trkpt lat="45.855331057682633" lon="7.719919988885522">
        <ele>2039.57421875</ele>
        <time>2004-08-08T12:25:11Z</time>
      </trkpt>
      <trkpt lat="45.855315551161766" lon="7.72007379680872">
        <ele>2037.651611328125</ele>
        <time>2004-08-08T12:25:14Z</time>
      </trkpt>
      <trkpt lat="45.855313958600163" lon="7.720223246142268">
        <ele>2037.1708984375</ele>
        <time>2004-08-08T12:25:16Z</time>
      </trkpt>
      <trkpt lat="45.855295350775123" lon="7.720404881983995">
        <ele>2035.72900390625</ele>
        <time>2004-08-08T12:25:18Z</time>
      </trkpt>
      <trkpt lat="45.855257967486978" lon="7.720539830625057">
        <ele>2034.287109375</ele>
        <time>2004-08-08T12:25:20Z</time>
      </trkpt>
      <trkpt lat="45.85516132414341" lon="7.720699338242412">
        <ele>2029.48046875</ele>
        <time>2004-08-08T12:25:43Z</time>
      </trkpt>
      <trkpt lat="45.855117319151759" lon="7.720804195851088">
        <ele>2028.519287109375</ele>
        <time>2004-08-08T12:25:47Z</time>
      </trkpt>
      <trkpt lat="45.855070380493999" lon="7.720905533060432">
        <ele>2028.03857421875</ele>
        <time>2004-08-08T12:25:52Z</time>
      </trkpt>
      <trkpt lat="45.85502109490335" lon="7.721019275486469">
        <ele>2027.0771484375</ele>
        <time>2004-08-08T12:25:57Z</time>
      </trkpt>
      <trkpt lat="45.854950854554772" lon="7.721121115610004">
        <ele>2025.154296875</ele>
        <time>2004-08-08T12:26:02Z</time>
      </trkpt>
      <trkpt lat="45.854866448789835" lon="7.721224213019013">
        <ele>2023.71240234375</ele>
        <time>2004-08-08T12:26:07Z</time>
      </trkpt>
      <trkpt lat="45.854791766032577" lon="7.721309373155236">
        <ele>2023.23193359375</ele>
        <time>2004-08-08T12:26:10Z</time>
      </trkpt>
      <trkpt lat="45.854713059961796" lon="7.721439795568585">
        <ele>2020.82861328125</ele>
        <time>2004-08-08T12:26:13Z</time>
      </trkpt>
      <trkpt lat="45.854662349447608" lon="7.721568457782269">
        <ele>2019.8671875</ele>
        <time>2004-08-08T12:26:15Z</time>
      </trkpt>
      <trkpt lat="45.85460769943893" lon="7.721805581822991">
        <ele>2019.38671875</ele>
        <time>2004-08-08T12:26:17Z</time>
      </trkpt>
      <trkpt lat="45.854553217068315" lon="7.721951929852366">
        <ele>2017.944580078125</ele>
        <time>2004-08-08T12:26:19Z</time>
      </trkpt>
      <trkpt lat="45.854550283402205" lon="7.722092159092426">
        <ele>2016.502685546875</ele>
        <time>2004-08-08T12:26:23Z</time>
      </trkpt>
      <trkpt lat="45.854661259800196" lon="7.722067600116134">
        <ele>2013.61865234375</ele>
        <time>2004-08-08T12:26:29Z</time>
      </trkpt>
      <trkpt lat="45.854767207056284" lon="7.721936926245689">
        <ele>2012.1767578125</ele>
        <time>2004-08-08T12:26:36Z</time>
      </trkpt>
      <trkpt lat="45.854832166805863" lon="7.721833493560553">
        <ele>2011.21533203125</ele>
        <time>2004-08-08T12:26:40Z</time>
      </trkpt>
      <trkpt lat="45.854885559529066" lon="7.721799463033676">
        <ele>2011.21533203125</ele>
        <time>2004-08-08T12:26:58Z</time>
      </trkpt>
      <trkpt lat="45.854941215366125" lon="7.721781609579921">
        <ele>2011.696044921875</ele>
        <time>2004-08-08T12:27:17Z</time>
      </trkpt>
      <trkpt lat="45.855033081024885" lon="7.7217464055866">
        <ele>2011.21533203125</ele>
        <time>2004-08-08T12:27:21Z</time>
      </trkpt>
      <trkpt lat="45.855120336636901" lon="7.721689827740192">
        <ele>2010.734619140625</ele>
        <time>2004-08-08T12:27:24Z</time>
      </trkpt>
      <trkpt lat="45.855204071849585" lon="7.721619587391615">
        <ele>2010.25390625</ele>
        <time>2004-08-08T12:27:27Z</time>
      </trkpt>
      <trkpt lat="45.855288226157427" lon="7.72152160294354">
        <ele>2009.773193359375</ele>
        <time>2004-08-08T12:27:30Z</time>
      </trkpt>
      <trkpt lat="45.855390401557088" lon="7.721402747556567">
        <ele>2008.81201171875</ele>
        <time>2004-08-08T12:27:33Z</time>
      </trkpt>
      <trkpt lat="45.855472041293979" lon="7.721320688724518">
        <ele>2007.850830078125</ele>
        <time>2004-08-08T12:27:35Z</time>
      </trkpt>
      <trkpt lat="45.855595422908664" lon="7.72120987996459">
        <ele>2007.3701171875</ele>
        <time>2004-08-08T12:27:38Z</time>
      </trkpt>
      <trkpt lat="45.855681169778109" lon="7.721142238005996">
        <ele>2006.889404296875</ele>
        <time>2004-08-08T12:27:40Z</time>
      </trkpt>
      <trkpt lat="45.855794828385115" lon="7.721083648502827">
        <ele>2006.889404296875</ele>
        <time>2004-08-08T12:27:43Z</time>
      </trkpt>
      <trkpt lat="45.855902200564742" lon="7.721075182780623">
        <ele>2006.889404296875</ele>
        <time>2004-08-08T12:27:46Z</time>
      </trkpt>
      <trkpt lat="45.856008818373084" lon="7.721115499734879">
        <ele>2006.40869140625</ele>
        <time>2004-08-08T12:27:49Z</time>
      </trkpt>
      <trkpt lat="45.856116358190775" lon="7.721130000427365">
        <ele>2005.447509765625</ele>
        <time>2004-08-08T12:27:52Z</time>
      </trkpt>
      <trkpt lat="45.856220126152039" lon="7.721112733706832">
        <ele>2005.447509765625</ele>
        <time>2004-08-08T12:27:56Z</time>
      </trkpt>
      <trkpt lat="45.85632087662816" lon="7.72106378339231">
        <ele>2003.52490234375</ele>
        <time>2004-08-08T12:28:01Z</time>
      </trkpt>
      <trkpt lat="45.85640536621213" lon="7.720996644347906">
        <ele>2002.082763671875</ele>
        <time>2004-08-08T12:28:06Z</time>
      </trkpt>
      <trkpt lat="45.856468649581075" lon="7.720906119793654">
        <ele>2000.640869140625</ele>
        <time>2004-08-08T12:28:13Z</time>
      </trkpt>
      <trkpt lat="45.856518438085914" lon="7.720813164487481">
        <ele>1999.6796875</ele>
        <time>2004-08-08T12:28:19Z</time>
      </trkpt>
      <trkpt lat="45.856609214097261" lon="7.720809560269117">
        <ele>1998.71826171875</ele>
        <time>2004-08-08T12:28:23Z</time>
      </trkpt>
      <trkpt lat="45.856697140261531" lon="7.720860941335559">
        <ele>1999.6796875</ele>
        <time>2004-08-08T12:28:27Z</time>
      </trkpt>
      <trkpt lat="45.856766374781728" lon="7.720995638519526">
        <ele>1998.71826171875</ele>
        <time>2004-08-08T12:28:31Z</time>
      </trkpt>
      <trkpt lat="45.856800992041826" lon="7.721133269369602">
        <ele>1997.2763671875</ele>
        <time>2004-08-08T12:28:44Z</time>
      </trkpt>
      <trkpt lat="45.856885481625795" lon="7.721232511103153">
        <ele>1995.834228515625</ele>
        <time>2004-08-08T12:28:47Z</time>
      </trkpt>
      <trkpt lat="45.85696879774332" lon="7.721306774765253">
        <ele>1995.353515625</ele>
        <time>2004-08-08T12:28:50Z</time>
      </trkpt>
      <trkpt lat="45.857065273448825" lon="7.72134424187243">
        <ele>1994.872802734375</ele>
        <time>2004-08-08T12:28:53Z</time>
      </trkpt>
      <trkpt lat="45.857173651456833" lon="7.721359245479107">
        <ele>1993.91162109375</ele>
        <time>2004-08-08T12:28:56Z</time>
      </trkpt>
      <trkpt lat="45.857281861826777" lon="7.721372321248055">
        <ele>1992.9501953125</ele>
        <time>2004-08-08T12:28:59Z</time>
      </trkpt>
      <trkpt lat="45.857366602867842" lon="7.721445914357901">
        <ele>1991.989013671875</ele>
        <time>2004-08-08T12:29:02Z</time>
      </trkpt>
      <trkpt lat="45.857418486848474" lon="7.721612546592951">
        <ele>1991.50830078125</ele>
        <time>2004-08-08T12:29:05Z</time>
      </trkpt>
      <trkpt lat="45.857477830722928" lon="7.721748501062393">
        <ele>1990.06640625</ele>
        <time>2004-08-08T12:29:08Z</time>
      </trkpt>
      <trkpt lat="45.85755368694663" lon="7.721846317872405">
        <ele>1989.585693359375</ele>
        <time>2004-08-08T12:29:11Z</time>
      </trkpt>
      <trkpt lat="45.857642199844122" lon="7.721936171874404">
        <ele>1988.62451171875</ele>
        <time>2004-08-08T12:29:14Z</time>
      </trkpt>
      <trkpt lat="45.857760217040777" lon="7.721994509920478">
        <ele>1988.143798828125</ele>
        <time>2004-08-08T12:29:17Z</time>
      </trkpt>
      <trkpt lat="45.857867337763309" lon="7.722060726955533">
        <ele>1987.182373046875</ele>
        <time>2004-08-08T12:29:20Z</time>
      </trkpt>
      <trkpt lat="45.85798610933125" lon="7.722133062779903">
        <ele>1986.22119140625</ele>
        <time>2004-08-08T12:29:23Z</time>
      </trkpt>
      <trkpt lat="45.858075963333249" lon="7.722177235409617">
        <ele>1985.259765625</ele>
        <time>2004-08-08T12:29:25Z</time>
      </trkpt>
      <trkpt lat="45.858189035207033" lon="7.722206152975559">
        <ele>1982.3759765625</ele>
        <time>2004-08-08T12:29:27Z</time>
      </trkpt>
      <trkpt lat="45.858310153707862" lon="7.722221072763205">
        <ele>1981.41455078125</ele>
        <time>2004-08-08T12:29:29Z</time>
      </trkpt>
      <trkpt lat="45.858460441231728" lon="7.722208499908447">
        <ele>1978.530517578125</ele>
        <time>2004-08-08T12:29:31Z</time>
      </trkpt>
      <trkpt lat="45.858600670471787" lon="7.722198273986578">
        <ele>1977.088623046875</ele>
        <time>2004-08-08T12:29:33Z</time>
      </trkpt>
      <trkpt lat="45.858760681003332" lon="7.722164830192924">
        <ele>1975.165771484375</ele>
        <time>2004-08-08T12:29:35Z</time>
      </trkpt>
      <trkpt lat="45.85890325717628" lon="7.722138343378902">
        <ele>1973.723876953125</ele>
        <time>2004-08-08T12:29:37Z</time>
      </trkpt>
      <trkpt lat="45.859044911339879" lon="7.722105318680406">
        <ele>1971.320556640625</ele>
        <time>2004-08-08T12:29:39Z</time>
      </trkpt>
      <trkpt lat="45.859183128923178" lon="7.722050752490759">
        <ele>1970.359375</ele>
        <time>2004-08-08T12:29:41Z</time>
      </trkpt>
      <trkpt lat="45.859309276565909" lon="7.721985373646021">
        <ele>1969.398193359375</ele>
        <time>2004-08-08T12:29:43Z</time>
      </trkpt>
      <trkpt lat="45.859421929344535" lon="7.721921252086759">
        <ele>1966.994873046875</ele>
        <time>2004-08-08T12:29:45Z</time>
      </trkpt>
      <trkpt lat="45.8594910800457" lon="7.721451194956899">
        <ele>1959.78466796875</ele>
        <time>2004-08-08T12:31:49Z</time>
      </trkpt>
      <trkpt lat="45.859490325674415" lon="7.721647918224335">
        <ele>1958.3427734375</ele>
        <time>2004-08-08T12:31:51Z</time>
      </trkpt>
      <trkpt lat="45.859482530504465" lon="7.721842126920819">
        <ele>1957.381591796875</ele>
        <time>2004-08-08T12:31:53Z</time>
      </trkpt>
      <trkpt lat="45.859482195228338" lon="7.72204446606338">
        <ele>1955.458984375</ele>
        <time>2004-08-08T12:31:56Z</time>
      </trkpt>
      <trkpt lat="45.859499042853713" lon="7.722232220694423">
        <ele>1954.01708984375</ele>
        <time>2004-08-08T12:31:59Z</time>
      </trkpt>
      <trkpt lat="45.859467945992947" lon="7.722382424399257">
        <ele>1953.0556640625</ele>
        <time>2004-08-08T12:32:02Z</time>
      </trkpt>
      <trkpt lat="45.859400890767574" lon="7.722398936748505">
        <ele>1951.61376953125</ele>
        <time>2004-08-08T12:32:06Z</time>
      </trkpt>
      <trkpt lat="45.859340708702803" lon="7.722260886803269">
        <ele>1947.768310546875</ele>
        <time>2004-08-08T12:33:20Z</time>
      </trkpt>
      <trkpt lat="45.859239120036364" lon="7.722344370558858">
        <ele>1945.364990234375</ele>
        <time>2004-08-08T12:33:26Z</time>
      </trkpt>
      <trkpt lat="45.859129736199975" lon="7.722425004467368">
        <ele>1944.403564453125</ele>
        <time>2004-08-08T12:33:30Z</time>
      </trkpt>
      <trkpt lat="45.859031667932868" lon="7.72256875410676">
        <ele>1942.00048828125</ele>
        <time>2004-08-08T12:33:34Z</time>
      </trkpt>
      <trkpt lat="45.859013814479113" lon="7.722722142934799">
        <ele>1939.59716796875</ele>
        <time>2004-08-08T12:33:39Z</time>
      </trkpt>
      <trkpt lat="45.859089167788625" lon="7.722860863432288">
        <ele>1937.19384765625</ele>
        <time>2004-08-08T12:33:43Z</time>
      </trkpt>
      <trkpt lat="45.859196959063411" lon="7.722996482625604">
        <ele>1936.713134765625</ele>
        <time>2004-08-08T12:33:45Z</time>
      </trkpt>
      <trkpt lat="45.859313551336527" lon="7.723166551440954">
        <ele>1934.31005859375</ele>
        <time>2004-08-08T12:33:47Z</time>
      </trkpt>
      <trkpt lat="45.859447745606303" lon="7.723312648013234">
        <ele>1933.829345703125</ele>
        <time>2004-08-08T12:33:49Z</time>
      </trkpt>
      <trkpt lat="45.859573390334845" lon="7.723440891131759">
        <ele>1932.387451171875</ele>
        <time>2004-08-08T12:33:51Z</time>
      </trkpt>
      <trkpt lat="45.859699035063386" lon="7.723569218069315">
        <ele>1931.906494140625</ele>
        <time>2004-08-08T12:33:53Z</time>
      </trkpt>
      <trkpt lat="45.859824763610959" lon="7.72369746118784">
        <ele>1930.9453125</ele>
        <time>2004-08-08T12:33:55Z</time>
      </trkpt>
      <trkpt lat="45.859955521300435" lon="7.723816065117717">
        <ele>1929.98388671875</ele>
        <time>2004-08-08T12:33:57Z</time>
      </trkpt>
      <trkpt lat="45.860080076381564" lon="7.723955623805523">
        <ele>1929.503173828125</ele>
        <time>2004-08-08T12:33:59Z</time>
      </trkpt>
      <trkpt lat="45.860185604542494" lon="7.724074814468622">
        <ele>1928.5419921875</ele>
        <time>2004-08-08T12:34:01Z</time>
      </trkpt>
      <trkpt lat="45.860305298119783" lon="7.72419978864491">
        <ele>1927.58056640625</ele>
        <time>2004-08-08T12:34:03Z</time>
      </trkpt>
      <trkpt lat="45.860408898442984" lon="7.724327193573117">
        <ele>1926.619384765625</ele>
        <time>2004-08-08T12:34:05Z</time>
      </trkpt>
      <trkpt lat="45.860514929518104" lon="7.724443534389138">
        <ele>1925.17724609375</ele>
        <time>2004-08-08T12:34:07Z</time>
      </trkpt>
      <trkpt lat="45.860610315576196" lon="7.724562389776111">
        <ele>1924.216064453125</ele>
        <time>2004-08-08T12:34:09Z</time>
      </trkpt>
      <trkpt lat="45.860585756599903" lon="7.72467227652669">
        <ele>1923.2548828125</ele>
        <time>2004-08-08T12:34:12Z</time>
      </trkpt>
      <trkpt lat="45.860511409118772" lon="7.724765483289957">
        <ele>1921.812744140625</ele>
        <time>2004-08-08T12:34:16Z</time>
      </trkpt>
      <trkpt lat="45.860412670299411" lon="7.724816277623177">
        <ele>1919.89013671875</ele>
        <time>2004-08-08T12:34:20Z</time>
      </trkpt>
      <trkpt lat="45.860303957015276" lon="7.724827509373426">
        <ele>1918.4482421875</ele>
        <time>2004-08-08T12:34:24Z</time>
      </trkpt>
      <trkpt lat="45.860199434682727" lon="7.724826419726014">
        <ele>1917.967529296875</ele>
        <time>2004-08-08T12:34:28Z</time>
      </trkpt>
      <trkpt lat="45.860107904300094" lon="7.724639335647225">
        <ele>1917.00634765625</ele>
        <time>2004-08-08T12:35:04Z</time>
      </trkpt>
      <trkpt lat="45.860025677829981" lon="7.724522156640887">
        <ele>1916.044921875</ele>
        <time>2004-08-08T12:35:07Z</time>
      </trkpt>
      <trkpt lat="45.859950156882405" lon="7.72440304979682">
        <ele>1915.08349609375</ele>
        <time>2004-08-08T12:35:10Z</time>
      </trkpt>
      <trkpt lat="45.859875893220305" lon="7.724292408674955">
        <ele>1914.1220703125</ele>
        <time>2004-08-08T12:35:13Z</time>
      </trkpt>
      <trkpt lat="45.859793331474066" lon="7.724198950454593">
        <ele>1913.641357421875</ele>
        <time>2004-08-08T12:35:17Z</time>
      </trkpt>
      <trkpt lat="45.85970951244235" lon="7.724114712327719">
        <ele>1914.1220703125</ele>
        <time>2004-08-08T12:35:21Z</time>
      </trkpt>
      <trkpt lat="45.859628040343523" lon="7.724036257714033">
        <ele>1911.718994140625</ele>
        <time>2004-08-08T12:35:25Z</time>
      </trkpt>
      <trkpt lat="45.859541120007634" lon="7.723929556086659">
        <ele>1910.757568359375</ele>
        <time>2004-08-08T12:35:29Z</time>
      </trkpt>
      <trkpt lat="45.859446823596954" lon="7.723843306303024">
        <ele>1907.873779296875</ele>
        <time>2004-08-08T12:35:33Z</time>
      </trkpt>
      <trkpt lat="45.859432239085436" lon="7.723935004323721">
        <ele>1906.912353515625</ele>
        <time>2004-08-08T12:35:39Z</time>
      </trkpt>
      <trkpt lat="45.859513459727168" lon="7.724041119217873">
        <ele>1905.950927734375</ele>
        <time>2004-08-08T12:35:47Z</time>
      </trkpt>
      <trkpt lat="45.859591998159885" lon="7.724139103665948">
        <ele>1904.98974609375</ele>
        <time>2004-08-08T12:35:52Z</time>
      </trkpt>
      <trkpt lat="45.859633991494775" lon="7.72424379363656">
        <ele>1904.028564453125</ele>
        <time>2004-08-08T12:35:56Z</time>
      </trkpt>
      <trkpt lat="45.859658969566226" lon="7.724382262676954">
        <ele>1903.067138671875</ele>
        <time>2004-08-08T12:36:01Z</time>
      </trkpt>
      <trkpt lat="45.859649078920484" lon="7.724531460553408">
        <ele>1902.105712890625</ele>
        <time>2004-08-08T12:36:04Z</time>
      </trkpt>
      <trkpt lat="45.85962250828743" lon="7.72467814385891">
        <ele>1900.663818359375</ele>
        <time>2004-08-08T12:36:07Z</time>
      </trkpt>
      <trkpt lat="45.859578084200621" lon="7.724791215732694">
        <ele>1900.183349609375</ele>
        <time>2004-08-08T12:36:11Z</time>
      </trkpt>
      <trkpt lat="45.85958587937057" lon="7.724917782470584">
        <ele>1898.26025390625</ele>
        <time>2004-08-08T12:36:14Z</time>
      </trkpt>
      <trkpt lat="45.859645642340183" lon="7.725026411935687">
        <ele>1897.77978515625</ele>
        <time>2004-08-08T12:36:17Z</time>
      </trkpt>
      <trkpt lat="45.859712697565556" lon="7.725166557356715">
        <ele>1896.337890625</ele>
        <time>2004-08-08T12:36:20Z</time>
      </trkpt>
      <trkpt lat="45.859781010076404" lon="7.725311983376741">
        <ele>1895.37646484375</ele>
        <time>2004-08-08T12:36:23Z</time>
      </trkpt>
      <trkpt lat="45.859855273738503" lon="7.72545849904418">
        <ele>1892.97314453125</ele>
        <time>2004-08-08T12:36:26Z</time>
      </trkpt>
      <trkpt lat="45.859941523522139" lon="7.725607864558697">
        <ele>1892.011962890625</ele>
        <time>2004-08-08T12:36:29Z</time>
      </trkpt>
      <trkpt lat="45.860029282048345" lon="7.725759409368038">
        <ele>1891.050537109375</ele>
        <time>2004-08-08T12:36:32Z</time>
      </trkpt>
      <trkpt lat="45.860126931220293" lon="7.725907266139984">
        <ele>1890.08935546875</ele>
        <time>2004-08-08T12:36:35Z</time>
      </trkpt>
      <trkpt lat="45.860199350863695" lon="7.726006675511599">
        <ele>1888.166748046875</ele>
        <time>2004-08-08T12:36:37Z</time>
      </trkpt>
      <trkpt lat="45.860282583162189" lon="7.726087644696236">
        <ele>1887.68603515625</ele>
        <time>2004-08-08T12:36:39Z</time>
      </trkpt>
      <trkpt lat="45.860354751348495" lon="7.726169032976031">
        <ele>1887.205322265625</ele>
        <time>2004-08-08T12:36:41Z</time>
      </trkpt>
      <trkpt lat="45.860434966161847" lon="7.726246481761336">
        <ele>1886.244140625</ele>
        <time>2004-08-08T12:36:43Z</time>
      </trkpt>
      <trkpt lat="45.860530352219939" lon="7.726253354921937">
        <ele>1885.763427734375</ele>
        <time>2004-08-08T12:36:45Z</time>
      </trkpt>
      <trkpt lat="45.860657589510083" lon="7.726243129000068">
        <ele>1885.28271484375</ele>
        <time>2004-08-08T12:36:47Z</time>
      </trkpt>
      <trkpt lat="45.860758842900395" lon="7.726250169798732">
        <ele>1884.80224609375</ele>
        <time>2004-08-08T12:36:49Z</time>
      </trkpt>
      <trkpt lat="45.860860096290708" lon="7.726257126778364">
        <ele>1884.321533203125</ele>
        <time>2004-08-08T12:36:51Z</time>
      </trkpt>
      <trkpt lat="45.860961265861988" lon="7.726264167577028">
        <ele>1883.35986328125</ele>
        <time>2004-08-08T12:36:53Z</time>
      </trkpt>
      <trkpt lat="45.8610625192523" lon="7.726271124556661">
        <ele>1882.879150390625</ele>
        <time>2004-08-08T12:36:55Z</time>
      </trkpt>
      <trkpt lat="45.861186236143112" lon="7.726263916119933">
        <ele>1882.879150390625</ele>
        <time>2004-08-08T12:36:57Z</time>
      </trkpt>
      <trkpt lat="45.861311126500368" lon="7.726259473711252">
        <ele>1883.840576171875</ele>
        <time>2004-08-08T12:36:59Z</time>
      </trkpt>
      <trkpt lat="45.861420007422566" lon="7.726254360750318">
        <ele>1883.840576171875</ele>
        <time>2004-08-08T12:37:01Z</time>
      </trkpt>
      <trkpt lat="45.861542215570807" lon="7.726232819259167">
        <ele>1883.840576171875</ele>
        <time>2004-08-08T12:37:04Z</time>
      </trkpt>
      <trkpt lat="45.861673895269632" lon="7.726023690775037">
        <ele>1882.879150390625</ele>
        <time>2004-08-08T12:39:13Z</time>
      </trkpt>
      <trkpt lat="45.861792918294668" lon="7.726053278893232">
        <ele>1882.398681640625</ele>
        <time>2004-08-08T12:39:21Z</time>
      </trkpt>
      <trkpt lat="45.861900961026549" lon="7.726067444309592">
        <ele>1881.437255859375</ele>
        <time>2004-08-08T12:39:27Z</time>
      </trkpt>
      <trkpt lat="45.862013529986143" lon="7.726076161488891">
        <ele>1879.033935546875</ele>
        <time>2004-08-08T12:39:32Z</time>
      </trkpt>
      <trkpt lat="45.862122494727373" lon="7.726079430431128">
        <ele>1878.07275390625</ele>
        <time>2004-08-08T12:39:37Z</time>
      </trkpt>
      <trkpt lat="45.862231459468603" lon="7.726082699373364">
        <ele>1876.150146484375</ele>
        <time>2004-08-08T12:39:42Z</time>
      </trkpt>
      <trkpt lat="45.862340508028865" lon="7.726085968315601">
        <ele>1874.708251953125</ele>
        <time>2004-08-08T12:39:47Z</time>
      </trkpt>
      <trkpt lat="45.862449472770095" lon="7.726089237257838">
        <ele>1873.266357421875</ele>
        <time>2004-08-08T12:39:52Z</time>
      </trkpt>
      <trkpt lat="45.862558437511325" lon="7.726092590019107">
        <ele>1871.343505859375</ele>
        <time>2004-08-08T12:39:57Z</time>
      </trkpt>
      <trkpt lat="45.862602023407817" lon="7.726093847304583">
        <ele>1870.38232421875</ele>
        <time>2004-08-08T12:40:00Z</time>
      </trkpt>
      <trkpt lat="45.86349687539041" lon="7.725717835128307">
        <ele>1863.17236328125</ele>
        <time>2004-08-08T12:40:31Z</time>
      </trkpt>
      <trkpt lat="45.864049326628447" lon="7.725644325837493">
        <ele>1863.65283203125</ele>
        <time>2004-08-08T12:40:35Z</time>
      </trkpt>
      <trkpt lat="45.864078579470515" lon="7.725587245076895">
        <ele>1864.133544921875</ele>
        <time>2004-08-08T12:40:38Z</time>
      </trkpt>
      <trkpt lat="45.864073298871517" lon="7.725556064397097">
        <ele>1864.133544921875</ele>
        <time>2004-08-08T12:40:42Z</time>
      </trkpt>
      <trkpt lat="45.8642244245857" lon="7.725409967824817">
        <ele>1864.6142578125</ele>
        <time>2004-08-08T12:40:46Z</time>
      </trkpt>
      <trkpt lat="45.864287791773677" lon="7.725287340581417">
        <ele>1865.094970703125</ele>
        <time>2004-08-08T12:40:50Z</time>
      </trkpt>
      <trkpt lat="45.864311261102557" lon="7.725146692246199">
        <ele>1866.05615234375</ele>
        <time>2004-08-08T12:40:54Z</time>
      </trkpt>
      <trkpt lat="45.86435635574162" lon="7.725011575967073">
        <ele>1865.57568359375</ele>
        <time>2004-08-08T12:41:00Z</time>
      </trkpt>
      <trkpt lat="45.864443527534604" lon="7.724971929565072">
        <ele>1866.05615234375</ele>
        <time>2004-08-08T12:41:06Z</time>
      </trkpt>
      <trkpt lat="45.864524496719241" lon="7.725026411935687">
        <ele>1865.57568359375</ele>
        <time>2004-08-08T12:41:13Z</time>
      </trkpt>
      <trkpt lat="45.864566070958972" lon="7.725144429132342">
        <ele>1863.65283203125</ele>
        <time>2004-08-08T12:41:56Z</time>
      </trkpt>
      <trkpt lat="45.864645782858133" lon="7.725210562348366">
        <ele>1863.65283203125</ele>
        <time>2004-08-08T12:41:59Z</time>
      </trkpt>
      <trkpt lat="45.864704372361302" lon="7.725286837667227">
        <ele>1862.691650390625</ele>
        <time>2004-08-08T12:42:02Z</time>
      </trkpt>
      <trkpt lat="45.864796657115221" lon="7.725385325029492">
        <ele>1862.2109375</ele>
        <time>2004-08-08T12:42:06Z</time>
      </trkpt>
      <trkpt lat="45.864890031516552" lon="7.725440813228488">
        <ele>1861.249755859375</ele>
        <time>2004-08-08T12:42:09Z</time>
      </trkpt>
      <trkpt lat="45.864982735365629" lon="7.725495295599103">
        <ele>1859.8076171875</ele>
        <time>2004-08-08T12:42:12Z</time>
      </trkpt>
      <trkpt lat="45.865083234384656" lon="7.725523123517633">
        <ele>1858.846435546875</ele>
        <time>2004-08-08T12:42:15Z</time>
      </trkpt>
      <trkpt lat="45.865195384249091" lon="7.725569223985076">
        <ele>1856.923828125</ele>
        <time>2004-08-08T12:42:19Z</time>
      </trkpt>
      <trkpt lat="45.865279454737902" lon="7.725603841245174">
        <ele>1855.48193359375</ele>
        <time>2004-08-08T12:42:22Z</time>
      </trkpt>
      <trkpt lat="45.865377271547914" lon="7.725593615323305">
        <ele>1855.001220703125</ele>
        <time>2004-08-08T12:42:26Z</time>
      </trkpt>
      <trkpt lat="45.865472992882133" lon="7.725577270612121">
        <ele>1854.0400390625</ele>
        <time>2004-08-08T12:42:30Z</time>
      </trkpt>
      <trkpt lat="45.865568798035383" lon="7.725560842081904">
        <ele>1852.1171875</ele>
        <time>2004-08-08T12:42:34Z</time>
      </trkpt>
      <trkpt lat="45.865651108324528" lon="7.725555310025811">
        <ele>1850.194580078125</ele>
        <time>2004-08-08T12:42:38Z</time>
      </trkpt>
      <trkpt lat="45.865723276510835" lon="7.725585568696261">
        <ele>1847.310546875</ele>
        <time>2004-08-08T12:42:44Z</time>
      </trkpt>
      <trkpt lat="45.865607270970941" lon="7.72572185844183">
        <ele>1846.829833984375</ele>
        <time>2004-08-08T12:42:46Z</time>
      </trkpt>
      <trkpt lat="45.865488415583968" lon="7.725849933922291">
        <ele>1845.86865234375</ele>
        <time>2004-08-08T12:42:48Z</time>
      </trkpt>
      <trkpt lat="45.865349443629384" lon="7.725924113765359">
        <ele>1843.46533203125</ele>
        <time>2004-08-08T12:42:50Z</time>
      </trkpt>
      <trkpt lat="45.865248693153262" lon="7.726087728515267">
        <ele>1841.542724609375</ele>
        <time>2004-08-08T12:42:53Z</time>
      </trkpt>
      <trkpt lat="45.865249112248421" lon="7.72620901465416">
        <ele>1840.100830078125</ele>
        <time>2004-08-08T12:42:56Z</time>
      </trkpt>
      <trkpt lat="45.865343241021037" lon="7.726223934441805">
        <ele>1838.658935546875</ele>
        <time>2004-08-08T12:42:59Z</time>
      </trkpt>
      <trkpt lat="45.865440387278795" lon="7.726226784288883">
        <ele>1836.736083984375</ele>
        <time>2004-08-08T12:43:02Z</time>
      </trkpt>
      <trkpt lat="45.865561002865434" lon="7.726246230304241">
        <ele>1836.255615234375</ele>
        <time>2004-08-08T12:43:05Z</time>
      </trkpt>
      <trkpt lat="45.865652784705162" lon="7.726248577237129">
        <ele>1834.8134765625</ele>
        <time>2004-08-08T12:43:07Z</time>
      </trkpt>
      <trkpt lat="45.865757558494806" lon="7.726240446791053">
        <ele>1832.41015625</ele>
        <time>2004-08-08T12:43:09Z</time>
      </trkpt>
      <trkpt lat="45.865857554599643" lon="7.726227957755327">
        <ele>1831.44873046875</ele>
        <time>2004-08-08T12:43:11Z</time>
      </trkpt>
      <trkpt lat="45.865958305075765" lon="7.726217480376363">
        <ele>1829.04541015625</ele>
        <time>2004-08-08T12:43:13Z</time>
      </trkpt>
      <trkpt lat="45.86602695286274" lon="7.726133912801743">
        <ele>1828.084228515625</ele>
        <time>2004-08-08T12:43:15Z</time>
      </trkpt>
      <trkpt lat="45.866065844893456" lon="7.725995276123285">
        <ele>1827.123046875</ele>
        <time>2004-08-08T12:43:17Z</time>
      </trkpt>
      <trkpt lat="45.866111945360899" lon="7.72581129334867">
        <ele>1825.680908203125</ele>
        <time>2004-08-08T12:43:19Z</time>
      </trkpt>
      <trkpt lat="45.866157710552216" lon="7.725622113794088">
        <ele>1824.239013671875</ele>
        <time>2004-08-08T12:43:21Z</time>
      </trkpt>
      <trkpt lat="45.866199787706137" lon="7.725406782701612">
        <ele>1822.31640625</ele>
        <time>2004-08-08T12:43:23Z</time>
      </trkpt>
      <trkpt lat="45.866239769384265" lon="7.725185751914978">
        <ele>1821.35498046875</ele>
        <time>2004-08-08T12:43:25Z</time>
      </trkpt>
      <trkpt lat="45.866280924528837" lon="7.724992213770747">
        <ele>1819.432373046875</ele>
        <time>2004-08-08T12:43:27Z</time>
      </trkpt>
      <trkpt lat="45.866322666406631" lon="7.724814517423511">
        <ele>1818.470947265625</ele>
        <time>2004-08-08T12:43:29Z</time>
      </trkpt>
      <trkpt lat="45.866372622549534" lon="7.724661296233535">
        <ele>1817.509521484375</ele>
        <time>2004-08-08T12:43:31Z</time>
      </trkpt>
      <trkpt lat="45.866424506530166" lon="7.724514277651906">
        <ele>1817.029052734375</ele>
        <time>2004-08-08T12:43:33Z</time>
      </trkpt>
      <trkpt lat="45.866476474329829" lon="7.724367175251246">
        <ele>1816.54833984375</ele>
        <time>2004-08-08T12:43:35Z</time>
      </trkpt>
      <trkpt lat="45.866529112681746" lon="7.72422912530601">
        <ele>1815.587158203125</ele>
        <time>2004-08-08T12:43:37Z</time>
      </trkpt>
      <trkpt lat="45.866337837651372" lon="7.724823066964746">
        <ele>1813.183837890625</ele>
        <time>2004-08-08T12:44:11Z</time>
      </trkpt>
      <trkpt lat="45.866260305047035" lon="7.724955920130014">
        <ele>1812.703125</ele>
        <time>2004-08-08T12:44:34Z</time>
      </trkpt>
      <trkpt lat="45.866243541240692" lon="7.725079553201795">
        <ele>1810.780517578125</ele>
        <time>2004-08-08T12:44:37Z</time>
      </trkpt>
      <trkpt lat="45.86626784875989" lon="7.725219111889601">
        <ele>1808.85791015625</ele>
        <time>2004-08-08T12:44:39Z</time>
      </trkpt>
      <trkpt lat="45.866321492940187" lon="7.725396305322647">
        <ele>1805.973876953125</ele>
        <time>2004-08-08T12:44:42Z</time>
      </trkpt>
      <trkpt lat="45.86635728366673" lon="7.725575426593423">
        <ele>1804.531982421875</ele>
        <time>2004-08-08T12:44:45Z</time>
      </trkpt>
      <trkpt lat="45.866353679448366" lon="7.725753374397755">
        <ele>1802.609130859375</ele>
        <time>2004-08-08T12:44:50Z</time>
      </trkpt>
      <trkpt lat="45.866335825994611" lon="7.725970717146993">
        <ele>1800.6865234375</ele>
        <time>2004-08-08T12:46:22Z</time>
      </trkpt>
      <trkpt lat="45.866314116865396" lon="7.726155621930957">
        <ele>1800.2060546875</ele>
        <time>2004-08-08T12:46:25Z</time>
      </trkpt>
      <trkpt lat="45.866292659193277" lon="7.726291073486209">
        <ele>1799.24462890625</ele>
        <time>2004-08-08T12:46:27Z</time>
      </trkpt>
      <trkpt lat="45.8662742190063" lon="7.72642501629889">
        <ele>1798.283203125</ele>
        <time>2004-08-08T12:46:29Z</time>
      </trkpt>
      <trkpt lat="45.86624345742166" lon="7.726548397913575">
        <ele>1797.802734375</ele>
        <time>2004-08-08T12:46:31Z</time>
      </trkpt>
      <trkpt lat="45.866202553734183" lon="7.726661721244454">
        <ele>1797.322021484375</ele>
        <time>2004-08-08T12:46:33Z</time>
      </trkpt>
      <trkpt lat="45.86613449268043" lon="7.726820223033428">
        <ele>1796.36083984375</ele>
        <time>2004-08-08T12:46:36Z</time>
      </trkpt>
      <trkpt lat="45.866062240675092" lon="7.726949388161302">
        <ele>1795.3994140625</ele>
        <time>2004-08-08T12:46:39Z</time>
      </trkpt>
      <trkpt lat="45.865980265662074" lon="7.727052737027407">
        <ele>1794.918701171875</ele>
        <time>2004-08-08T12:46:42Z</time>
      </trkpt>
      <trkpt lat="45.865866187959909" lon="7.727105878293514">
        <ele>1793.95751953125</ele>
        <time>2004-08-08T12:46:44Z</time>
      </trkpt>
      <trkpt lat="45.865750014781952" lon="7.727175364270806">
        <ele>1792.99609375</ele>
        <time>2004-08-08T12:46:46Z</time>
      </trkpt>
      <trkpt lat="45.865637697279453" lon="7.727314839139581">
        <ele>1792.034912109375</ele>
        <time>2004-08-08T12:46:48Z</time>
      </trkpt>
      <trkpt lat="45.865517500787973" lon="7.72745163179934">
        <ele>1791.073486328125</ele>
        <time>2004-08-08T12:46:50Z</time>
      </trkpt>
      <trkpt lat="45.865398729220033" lon="7.727577025070787">
        <ele>1790.1123046875</ele>
        <time>2004-08-08T12:46:52Z</time>
      </trkpt>
      <trkpt lat="45.865298984572291" lon="7.727712728083134">
        <ele>1788.189697265625</ele>
        <time>2004-08-08T12:46:54Z</time>
      </trkpt>
      <trkpt lat="45.865207873284817" lon="7.727841222658753">
        <ele>1786.747314453125</ele>
        <time>2004-08-08T12:46:56Z</time>
      </trkpt>
      <trkpt lat="45.865159006789327" lon="7.727956138551235">
        <ele>1784.824951171875</ele>
        <time>2004-08-08T12:46:58Z</time>
      </trkpt>
      <trkpt lat="45.865106284618378" lon="7.728109024465084">
        <ele>1783.3828125</ele>
        <time>2004-08-08T12:47:01Z</time>
      </trkpt>
      <trkpt lat="45.865079211071134" lon="7.72823684848845">
        <ele>1781.94091796875</ele>
        <time>2004-08-08T12:47:04Z</time>
      </trkpt>
      <trkpt lat="45.865051131695509" lon="7.728373054414988">
        <ele>1780.4990234375</ele>
        <time>2004-08-08T12:47:07Z</time>
      </trkpt>
      <trkpt lat="45.865019280463457" lon="7.728516384959221">
        <ele>1779.056884765625</ele>
        <time>2004-08-08T12:47:10Z</time>
      </trkpt>
      <trkpt lat="45.864998493343592" lon="7.728658122941852">
        <ele>1777.614990234375</ele>
        <time>2004-08-08T12:47:13Z</time>
      </trkpt>
      <trkpt lat="45.865075690671802" lon="7.728750994428992">
        <ele>1775.6923828125</ele>
        <time>2004-08-08T12:47:17Z</time>
      </trkpt>
      <trkpt lat="45.865179877728224" lon="7.728803465142846">
        <ele>1774.731201171875</ele>
        <time>2004-08-08T12:47:20Z</time>
      </trkpt>
      <trkpt lat="45.865268306806684" lon="7.728884685784578">
        <ele>1773.769775390625</ele>
        <time>2004-08-08T12:47:23Z</time>
      </trkpt>
      <trkpt lat="45.865352628752589" lon="7.728932378813624">
        <ele>1771.846923828125</ele>
        <time>2004-08-08T12:47:55Z</time>
      </trkpt>
      <trkpt lat="45.865401159971952" lon="7.729096999391913">
        <ele>1771.3662109375</ele>
        <time>2004-08-08T12:48:00Z</time>
      </trkpt>
      <trkpt lat="45.865394873544574" lon="7.729238569736481">
        <ele>1770.8857421875</ele>
        <time>2004-08-08T12:48:05Z</time>
      </trkpt>
      <trkpt lat="45.86532237008214" lon="7.729460019618273">
        <ele>1768.482421875</ele>
        <time>2004-08-08T12:48:54Z</time>
      </trkpt>
      <trkpt lat="45.865235617384315" lon="7.729560770094395">
        <ele>1768.001708984375</ele>
        <time>2004-08-08T12:48:58Z</time>
      </trkpt>
      <trkpt lat="45.86517971009016" lon="7.729682056233287">
        <ele>1767.52099609375</ele>
        <time>2004-08-08T12:48:59Z</time>
      </trkpt>
      <trkpt lat="45.86507267318666" lon="7.729867212474346">
        <ele>1764.63720703125</ele>
        <time>2004-08-08T12:49:01Z</time>
      </trkpt>
      <trkpt lat="45.864962702617049" lon="7.730000987648964">
        <ele>1761.272705078125</ele>
        <time>2004-08-08T12:49:03Z</time>
      </trkpt>
      <trkpt lat="45.864842338487506" lon="7.730124033987522">
        <ele>1758.869384765625</ele>
        <time>2004-08-08T12:49:05Z</time>
      </trkpt>
      <trkpt lat="45.864725410938263" lon="7.730241883546114">
        <ele>1755.985107421875</ele>
        <time>2004-08-08T12:49:07Z</time>
      </trkpt>
      <trkpt lat="45.864621391519904" lon="7.730339951813221">
        <ele>1755.02392578125</ele>
        <time>2004-08-08T12:49:09Z</time>
      </trkpt>
      <trkpt lat="45.864535728469491" lon="7.730425866320729">
        <ele>1754.062744140625</ele>
        <time>2004-08-08T12:49:11Z</time>
      </trkpt>
      <trkpt lat="45.864433301612735" lon="7.730503231287003">
        <ele>1753.101318359375</ele>
        <time>2004-08-08T12:49:14Z</time>
      </trkpt>
      <trkpt lat="45.864342106506228" lon="7.73055100813508">
        <ele>1751.659423828125</ele>
        <time>2004-08-08T12:49:17Z</time>
      </trkpt>
      <trkpt lat="45.864243786782026" lon="7.730567352846265">
        <ele>1750.217529296875</ele>
        <time>2004-08-08T12:49:20Z</time>
      </trkpt>
      <trkpt lat="45.864130044355989" lon="7.730555702000856">
        <ele>1748.775390625</ele>
        <time>2004-08-08T12:49:22Z</time>
      </trkpt>
      <trkpt lat="45.863991072401404" lon="7.730549750849605">
        <ele>1747.33349609375</ele>
        <time>2004-08-08T12:49:24Z</time>
      </trkpt>
      <trkpt lat="45.863856710493565" lon="7.730555031448603">
        <ele>1744.93017578125</ele>
        <time>2004-08-08T12:49:26Z</time>
      </trkpt>
      <trkpt lat="45.863720504567027" lon="7.730568358674645">
        <ele>1744.449462890625</ele>
        <time>2004-08-08T12:49:28Z</time>
      </trkpt>
      <trkpt lat="45.863597374409437" lon="7.730645388364792">
        <ele>1743.007568359375</ele>
        <time>2004-08-08T12:49:30Z</time>
      </trkpt>
      <trkpt lat="45.863490169867873" lon="7.730678664520383">
        <ele>1742.527099609375</ele>
        <time>2004-08-08T12:49:32Z</time>
      </trkpt>
      <trkpt lat="45.863386569544673" lon="7.730647316202521">
        <ele>1741.565673828125</ele>
        <time>2004-08-08T12:49:34Z</time>
      </trkpt>
      <trkpt lat="45.863272659480572" lon="7.730587301775813">
        <ele>1741.0849609375</ele>
        <time>2004-08-08T12:49:36Z</time>
      </trkpt>
      <trkpt lat="45.863156570121646" lon="7.730471380054951">
        <ele>1740.123779296875</ele>
        <time>2004-08-08T12:49:38Z</time>
      </trkpt>
      <trkpt lat="45.863070152699947" lon="7.730378927662969">
        <ele>1739.162109375</ele>
        <time>2004-08-08T12:49:40Z</time>
      </trkpt>
      <trkpt lat="45.862988261505961" lon="7.730337269604206">
        <ele>1737.239501953125</ele>
        <time>2004-08-08T12:49:46Z</time>
      </trkpt>
      <trkpt lat="45.86286211386323" lon="7.730344394221902">
        <ele>1736.2783203125</ele>
        <time>2004-08-08T12:51:15Z</time>
      </trkpt>
      <trkpt lat="45.86277125403285" lon="7.730405079200864">
        <ele>1737.239501953125</ele>
        <time>2004-08-08T12:51:20Z</time>
      </trkpt>
      <trkpt lat="45.862671341747046" lon="7.730478085577488">
        <ele>1736.2783203125</ele>
        <time>2004-08-08T12:51:25Z</time>
      </trkpt>
      <trkpt lat="45.862579140812159" lon="7.730523766949773">
        <ele>1735.31689453125</ele>
        <time>2004-08-08T12:51:29Z</time>
      </trkpt>
      <trkpt lat="45.862492471933365" lon="7.730584954842925">
        <ele>1735.31689453125</ele>
        <time>2004-08-08T12:51:34Z</time>
      </trkpt>
      <trkpt lat="45.862402785569429" lon="7.730609262362123">
        <ele>1734.355712890625</ele>
        <time>2004-08-08T12:51:41Z</time>
      </trkpt>
      <trkpt lat="45.862336400896311" lon="7.730671623721719">
        <ele>1736.7587890625</ele>
        <time>2004-08-08T13:05:04Z</time>
      </trkpt>
      <trkpt lat="45.862248977646232" lon="7.730752425268292">
        <ele>1737.239501953125</ele>
        <time>2004-08-08T13:05:09Z</time>
      </trkpt>
      <trkpt lat="45.862159878015518" lon="7.730824425816536">
        <ele>1736.2783203125</ele>
        <time>2004-08-08T13:05:14Z</time>
      </trkpt>
      <trkpt lat="45.862045716494322" lon="7.730855690315366">
        <ele>1735.797607421875</ele>
        <time>2004-08-08T13:05:18Z</time>
      </trkpt>
      <trkpt lat="45.86193130351603" lon="7.730867341160774">
        <ele>1736.2783203125</ele>
        <time>2004-08-08T13:05:21Z</time>
      </trkpt>
      <trkpt lat="45.861845389008522" lon="7.730875555425882">
        <ele>1736.2783203125</ele>
        <time>2004-08-08T13:05:23Z</time>
      </trkpt>
      <trkpt lat="45.861756205558777" lon="7.73088226094842">
        <ele>1735.797607421875</ele>
        <time>2004-08-08T13:05:25Z</time>
      </trkpt>
      <trkpt lat="45.861624190583825" lon="7.730901036411524">
        <ele>1735.797607421875</ele>
        <time>2004-08-08T13:05:28Z</time>
      </trkpt>
      <trkpt lat="45.861499551683664" lon="7.730938252061606">
        <ele>1735.797607421875</ele>
        <time>2004-08-08T13:05:31Z</time>
      </trkpt>
      <trkpt lat="45.861386982724071" lon="7.73098636418581">
        <ele>1734.83642578125</ele>
        <time>2004-08-08T13:05:34Z</time>
      </trkpt>
      <trkpt lat="45.861274162307382" lon="7.731067249551415">
        <ele>1734.355712890625</ele>
        <time>2004-08-08T13:05:37Z</time>
      </trkpt>
      <trkpt lat="45.86118221282959" lon="7.731109913438559">
        <ele>1733.875</ele>
        <time>2004-08-08T13:05:39Z</time>
      </trkpt>
      <trkpt lat="45.861070062965155" lon="7.731125336140394">
        <ele>1733.394287109375</ele>
        <time>2004-08-08T13:05:41Z</time>
      </trkpt>
      <trkpt lat="45.860948776826262" lon="7.731130952015519">
        <ele>1732.91357421875</ele>
        <time>2004-08-08T13:05:43Z</time>
      </trkpt>
      <trkpt lat="45.860802261158824" lon="7.731142099946737">
        <ele>1731.952392578125</ele>
        <time>2004-08-08T13:05:45Z</time>
      </trkpt>
      <trkpt lat="45.860647028312087" lon="7.731191972270608">
        <ele>1730.9912109375</ele>
        <time>2004-08-08T13:05:47Z</time>
      </trkpt>
      <trkpt lat="45.86056069470942" lon="7.731245113536716">
        <ele>1730.02978515625</ele>
        <time>2004-08-08T13:05:48Z</time>
      </trkpt>
      <trkpt lat="45.860385093837976" lon="7.731353659182787">
        <ele>1728.587890625</ele>
        <time>2004-08-08T13:05:50Z</time>
      </trkpt>
      <trkpt lat="45.860304795205593" lon="7.731402860954404">
        <ele>1728.107177734375</ele>
        <time>2004-08-08T13:05:51Z</time>
      </trkpt>
      <trkpt lat="45.860145874321461" lon="7.731486177071929">
        <ele>1726.1845703125</ele>
        <time>2004-08-08T13:05:53Z</time>
      </trkpt>
      <trkpt lat="45.859985863789916" lon="7.731527835130692">
        <ele>1723.300537109375</ele>
        <time>2004-08-08T13:05:55Z</time>
      </trkpt>
      <trkpt lat="45.859905816614628" lon="7.731536636129022">
        <ele>1722.339111328125</ele>
        <time>2004-08-08T13:05:56Z</time>
      </trkpt>
      <trkpt lat="45.859811352565885" lon="7.731483327224851">
        <ele>1721.377685546875</ele>
        <time>2004-08-08T13:05:57Z</time>
      </trkpt>
      <trkpt lat="45.859721917659044" lon="7.731435550376773">
        <ele>1720.41650390625</ele>
        <time>2004-08-08T13:05:58Z</time>
      </trkpt>
      <trkpt lat="45.859635667875409" lon="7.731380397453904">
        <ele>1719.935791015625</ele>
        <time>2004-08-08T13:05:59Z</time>
      </trkpt>
      <trkpt lat="45.859554363414645" lon="7.731300517916679">
        <ele>1718.493896484375</ele>
        <time>2004-08-08T13:06:00Z</time>
      </trkpt>
      <trkpt lat="45.859472807496786" lon="7.731220470741391">
        <ele>1717.532470703125</ele>
        <time>2004-08-08T13:06:01Z</time>
      </trkpt>
      <trkpt lat="45.859394352883101" lon="7.731136735528708">
        <ele>1716.5712890625</ele>
        <time>2004-08-08T13:06:02Z</time>
      </trkpt>
      <trkpt lat="45.859317574650049" lon="7.731053587049246">
        <ele>1715.610107421875</ele>
        <time>2004-08-08T13:06:03Z</time>
      </trkpt>
      <trkpt lat="45.859171813353896" lon="7.73089449852705">
        <ele>1713.206787109375</ele>
        <time>2004-08-08T13:06:05Z</time>
      </trkpt>
      <trkpt lat="45.859026806429029" lon="7.730741864070296">
        <ele>1711.764892578125</ele>
        <time>2004-08-08T13:06:07Z</time>
      </trkpt>
      <trkpt lat="45.858865790069103" lon="7.730683106929064">
        <ele>1710.803466796875</ele>
        <time>2004-08-08T13:06:09Z</time>
      </trkpt>
      <trkpt lat="45.858688596636057" lon="7.730649495497346">
        <ele>1709.361572265625</ele>
        <time>2004-08-08T13:06:11Z</time>
      </trkpt>
      <trkpt lat="45.858592707663774" lon="7.730632228776813">
        <ele>1708.880859375</ele>
        <time>2004-08-08T13:06:12Z</time>
      </trkpt>
      <trkpt lat="45.858495812863111" lon="7.730616638436914">
        <ele>1708.400146484375</ele>
        <time>2004-08-08T13:06:13Z</time>
      </trkpt>
      <trkpt lat="45.858397074043751" lon="7.730601215735078">
        <ele>1706.9580078125</ele>
        <time>2004-08-08T13:06:14Z</time>
      </trkpt>
      <trkpt lat="45.858295653015375" lon="7.73058713413775">
        <ele>1705.99658203125</ele>
        <time>2004-08-08T13:06:15Z</time>
      </trkpt>
      <trkpt lat="45.858192136511207" lon="7.730577830225229">
        <ele>1705.51611328125</ele>
        <time>2004-08-08T13:06:16Z</time>
      </trkpt>
      <trkpt lat="45.858087362721562" lon="7.730570118874311">
        <ele>1705.035400390625</ele>
        <time>2004-08-08T13:06:17Z</time>
      </trkpt>
      <trkpt lat="45.857979068532586" lon="7.730567185208201">
        <ele>1704.07421875</ele>
        <time>2004-08-08T13:06:18Z</time>
      </trkpt>
      <trkpt lat="45.857867673039436" lon="7.730566598474979">
        <ele>1702.632080078125</ele>
        <time>2004-08-08T13:06:19Z</time>
      </trkpt>
      <trkpt lat="45.857754684984684" lon="7.730565760284662">
        <ele>1701.6708984375</ele>
        <time>2004-08-08T13:06:20Z</time>
      </trkpt>
      <trkpt lat="45.857638427987695" lon="7.730564251542091">
        <ele>1700.70947265625</ele>
        <time>2004-08-08T13:06:21Z</time>
      </trkpt>
      <trkpt lat="45.857522254809737" lon="7.730564586818218">
        <ele>1700.22900390625</ele>
        <time>2004-08-08T13:06:22Z</time>
      </trkpt>
      <trkpt lat="45.857408428564668" lon="7.730567017570138">
        <ele>1699.748291015625</ele>
        <time>2004-08-08T13:06:23Z</time>
      </trkpt>
      <trkpt lat="45.857273982837796" lon="7.73057347163558">
        <ele>1696.3837890625</ele>
        <time>2004-08-08T13:06:25Z</time>
      </trkpt>
      <trkpt lat="45.857181111350656" lon="7.730576489120722">
        <ele>1691.576904296875</ele>
        <time>2004-08-08T13:06:47Z</time>
      </trkpt>
      <trkpt lat="45.857121264562011" lon="7.730666007846594">
        <ele>1693.499755859375</ele>
        <time>2004-08-08T13:08:15Z</time>
      </trkpt>
      <trkpt lat="45.857047587633133" lon="7.730771452188492">
        <ele>1692.53857421875</ele>
        <time>2004-08-08T13:08:28Z</time>
      </trkpt>
      <trkpt lat="45.85695362649858" lon="7.730835322290659">
        <ele>1692.53857421875</ele>
        <time>2004-08-08T13:08:31Z</time>
      </trkpt>
      <trkpt lat="45.85683636367321" lon="7.730900617316365">
        <ele>1692.057861328125</ele>
        <time>2004-08-08T13:08:34Z</time>
      </trkpt>
      <trkpt lat="45.856740307062864" lon="7.730970187112689">
        <ele>1691.576904296875</ele>
        <time>2004-08-08T13:08:36Z</time>
      </trkpt>
      <trkpt lat="45.856631258502603" lon="7.73106599226594">
        <ele>1690.135009765625</ele>
        <time>2004-08-08T13:08:38Z</time>
      </trkpt>
      <trkpt lat="45.856510642915964" lon="7.731175627559423">
        <ele>1690.135009765625</ele>
        <time>2004-08-08T13:08:40Z</time>
      </trkpt>
      <trkpt lat="45.856378376483917" lon="7.731296243146062">
        <ele>1689.173583984375</ele>
        <time>2004-08-08T13:08:42Z</time>
      </trkpt>
      <trkpt lat="45.856238901615143" lon="7.731421804055572">
        <ele>1688.21240234375</ele>
        <time>2004-08-08T13:08:44Z</time>
      </trkpt>
      <trkpt lat="45.856096995994449" lon="7.731546442955732">
        <ele>1686.289794921875</ele>
        <time>2004-08-08T13:08:46Z</time>
      </trkpt>
      <trkpt lat="45.855955425649881" lon="7.73168558254838">
        <ele>1685.328369140625</ele>
        <time>2004-08-08T13:08:48Z</time>
      </trkpt>
      <trkpt lat="45.855815280228853" lon="7.731836205348373">
        <ele>1684.847900390625</ele>
        <time>2004-08-08T13:08:50Z</time>
      </trkpt>
      <trkpt lat="45.855744201689959" lon="7.731913151219487">
        <ele>1683.886474609375</ele>
        <time>2004-08-08T13:08:51Z</time>
      </trkpt>
      <trkpt lat="45.855595758184791" lon="7.732053548097611">
        <ele>1682.925048828125</ele>
        <time>2004-08-08T13:08:53Z</time>
      </trkpt>
      <trkpt lat="45.855519901961088" lon="7.732105432078242">
        <ele>1682.444580078125</ele>
        <time>2004-08-08T13:08:54Z</time>
      </trkpt>
      <trkpt lat="45.855370201170444" lon="7.732223616912961">
        <ele>1681.483154296875</ele>
        <time>2004-08-08T13:08:56Z</time>
      </trkpt>
      <trkpt lat="45.855298452079296" lon="7.732293605804443">
        <ele>1680.52197265625</ele>
        <time>2004-08-08T13:08:57Z</time>
      </trkpt>
      <trkpt lat="45.855156043544412" lon="7.732443138957024">
        <ele>1679.560546875</ele>
        <time>2004-08-08T13:08:59Z</time>
      </trkpt>
      <trkpt lat="45.855011539533734" lon="7.732595605775714">
        <ele>1678.599365234375</ele>
        <time>2004-08-08T13:09:01Z</time>
      </trkpt>
      <trkpt lat="45.854845829308033" lon="7.732699709013104">
        <ele>1677.637939453125</ele>
        <time>2004-08-08T13:09:03Z</time>
      </trkpt>
      <trkpt lat="45.854668468236923" lon="7.732756705954671">
        <ele>1676.6767578125</ele>
        <time>2004-08-08T13:09:05Z</time>
      </trkpt>
      <trkpt lat="45.854490771889687" lon="7.732791742309928">
        <ele>1676.196044921875</ele>
        <time>2004-08-08T13:09:07Z</time>
      </trkpt>
      <trkpt lat="45.854314751923084" lon="7.732830634340644">
        <ele>1674.273193359375</ele>
        <time>2004-08-08T13:09:09Z</time>
      </trkpt>
      <trkpt lat="45.854141414165497" lon="7.732881093397737">
        <ele>1673.31201171875</ele>
        <time>2004-08-08T13:09:11Z</time>
      </trkpt>
      <trkpt lat="45.854054326191545" lon="7.73291353136301">
        <ele>1673.31201171875</ele>
        <time>2004-08-08T13:09:12Z</time>
      </trkpt>
      <trkpt lat="45.853884844109416" lon="7.732996176928282">
        <ele>1672.3505859375</ele>
        <time>2004-08-08T13:09:14Z</time>
      </trkpt>
      <trkpt lat="45.853714775294065" lon="7.733086366206408">
        <ele>1671.869873046875</ele>
        <time>2004-08-08T13:09:16Z</time>
      </trkpt>
      <trkpt lat="45.853554345667362" lon="7.733206562697887">
        <ele>1670.427978515625</ele>
        <time>2004-08-08T13:09:18Z</time>
      </trkpt>
      <trkpt lat="45.853416714817286" lon="7.733343439176679">
        <ele>1669.466796875</ele>
        <time>2004-08-08T13:09:20Z</time>
      </trkpt>
      <trkpt lat="45.853305906057358" lon="7.733435556292534">
        <ele>1668.50537109375</ele>
        <time>2004-08-08T13:09:22Z</time>
      </trkpt>
      <trkpt lat="45.853216219693422" lon="7.733454164117575">
        <ele>1667.5439453125</ele>
        <time>2004-08-08T13:09:25Z</time>
      </trkpt>
      <trkpt lat="45.853157546371222" lon="7.733284430578351">
        <ele>1664.66015625</ele>
        <time>2004-08-08T13:10:51Z</time>
      </trkpt>
      <trkpt lat="45.853103147819638" lon="7.733161970973015">
        <ele>1664.179443359375</ele>
        <time>2004-08-08T13:10:57Z</time>
      </trkpt>
      <trkpt lat="45.853043887764215" lon="7.733075637370348">
        <ele>1664.179443359375</ele>
        <time>2004-08-08T13:11:02Z</time>
      </trkpt>
      <trkpt lat="45.852936850860715" lon="7.733096173033118">
        <ele>1664.179443359375</ele>
        <time>2004-08-08T13:11:07Z</time>
      </trkpt>
      <trkpt lat="45.852831238880754" lon="7.733133472502232">
        <ele>1664.179443359375</ele>
        <time>2004-08-08T13:11:12Z</time>
      </trkpt>
      <trkpt lat="45.852732667699456" lon="7.733165910467506">
        <ele>1664.66015625</ele>
        <time>2004-08-08T13:11:18Z</time>
      </trkpt>
      <trkpt lat="45.852634934708476" lon="7.733202958479524">
        <ele>1664.66015625</ele>
        <time>2004-08-08T13:11:23Z</time>
      </trkpt>
      <trkpt lat="45.852540386840701" lon="7.733233217149973">
        <ele>1664.179443359375</ele>
        <time>2004-08-08T13:11:29Z</time>
      </trkpt>
      <trkpt lat="45.852442486211658" lon="7.733263894915581">
        <ele>1664.179443359375</ele>
        <time>2004-08-08T13:11:34Z</time>
      </trkpt>
      <trkpt lat="45.85233804769814" lon="7.733261212706566">
        <ele>1664.179443359375</ele>
        <time>2004-08-08T13:11:37Z</time>
      </trkpt>
      <trkpt lat="45.852244421839714" lon="7.73324872367084">
        <ele>1664.179443359375</ele>
        <time>2004-08-08T13:11:40Z</time>
      </trkpt>
      <trkpt lat="45.852132691070437" lon="7.733221231028438">
        <ele>1663.69873046875</ele>
        <time>2004-08-08T13:11:43Z</time>
      </trkpt>
      <trkpt lat="45.852014003321528" lon="7.733180830255151">
        <ele>1661.7763671875</ele>
        <time>2004-08-08T13:11:46Z</time>
      </trkpt>
      <trkpt lat="45.851891208440065" lon="7.733100699260831">
        <ele>1661.295654296875</ele>
        <time>2004-08-08T13:11:49Z</time>
      </trkpt>
      <trkpt lat="45.851760702207685" lon="7.733016544952989">
        <ele>1660.334228515625</ele>
        <time>2004-08-08T13:11:52Z</time>
      </trkpt>
      <trkpt lat="45.851629609242082" lon="7.732943957671523">
        <ele>1659.372802734375</ele>
        <time>2004-08-08T13:11:55Z</time>
      </trkpt>
      <trkpt lat="45.851531373336911" lon="7.732872124761343">
        <ele>1659.853271484375</ele>
        <time>2004-08-08T13:11:58Z</time>
      </trkpt>
      <trkpt lat="45.851443447172642" lon="7.732814038172364">
        <ele>1659.372802734375</ele>
        <time>2004-08-08T13:12:01Z</time>
      </trkpt>
      <trkpt lat="45.851359628140926" lon="7.732779672369361">
        <ele>1659.853271484375</ele>
        <time>2004-08-08T13:12:04Z</time>
      </trkpt>
      <trkpt lat="45.85126063786447" lon="7.73271412588656">
        <ele>1658.89208984375</ele>
        <time>2004-08-08T13:12:08Z</time>
      </trkpt>
      <trkpt lat="45.851179920136929" lon="7.732630809769034">
        <ele>1658.89208984375</ele>
        <time>2004-08-08T13:12:12Z</time>
      </trkpt>
      <trkpt lat="45.851084869354963" lon="7.732558893039823">
        <ele>1657.4501953125</ele>
        <time>2004-08-08T13:12:16Z</time>
      </trkpt>
      <trkpt lat="45.850962325930595" lon="7.732562078163028">
        <ele>1656.008056640625</ele>
        <time>2004-08-08T13:12:19Z</time>
      </trkpt>
      <trkpt lat="45.850862581282854" lon="7.73257783614099">
        <ele>1655.046875</ele>
        <time>2004-08-08T13:12:21Z</time>
      </trkpt>
      <trkpt lat="45.850719166919589" lon="7.732564257457852">
        <ele>1654.566162109375</ele>
        <time>2004-08-08T13:12:24Z</time>
      </trkpt>
      <trkpt lat="45.850586146116257" lon="7.732550343498588">
        <ele>1654.566162109375</ele>
        <time>2004-08-08T13:12:27Z</time>
      </trkpt>
      <trkpt lat="45.850457148626447" lon="7.732516983523965">
        <ele>1653.60498046875</ele>
        <time>2004-08-08T13:12:30Z</time>
      </trkpt>
      <trkpt lat="45.850364612415433" lon="7.732476834207773">
        <ele>1653.60498046875</ele>
        <time>2004-08-08T13:12:32Z</time>
      </trkpt>
      <trkpt lat="45.85027065128088" lon="7.7324253693223">
        <ele>1653.124267578125</ele>
        <time>2004-08-08T13:12:34Z</time>
      </trkpt>
      <trkpt lat="45.850185239687562" lon="7.732379017397761">
        <ele>1653.124267578125</ele>
        <time>2004-08-08T13:12:36Z</time>
      </trkpt>
      <trkpt lat="45.850096391513944" lon="7.732338197529316">
        <ele>1653.124267578125</ele>
        <time>2004-08-08T13:12:38Z</time>
      </trkpt>
      <trkpt lat="45.850001005455852" lon="7.732300562784076">
        <ele>1652.6435546875</ele>
        <time>2004-08-08T13:12:40Z</time>
      </trkpt>
      <trkpt lat="45.849901931360364" lon="7.732269382104278">
        <ele>1652.6435546875</ele>
        <time>2004-08-08T13:12:42Z</time>
      </trkpt>
      <trkpt lat="45.849798331037164" lon="7.732246583327651">
        <ele>1652.162841796875</ele>
        <time>2004-08-08T13:12:44Z</time>
      </trkpt>
      <trkpt lat="45.849698837846518" lon="7.732222275808454">
        <ele>1652.6435546875</ele>
        <time>2004-08-08T13:12:46Z</time>
      </trkpt>
      <trkpt lat="45.84960512816906" lon="7.732191095128655">
        <ele>1652.162841796875</ele>
        <time>2004-08-08T13:12:48Z</time>
      </trkpt>
      <trkpt lat="45.849516866728663" lon="7.732156813144684">
        <ele>1651.20166015625</ele>
        <time>2004-08-08T13:12:50Z</time>
      </trkpt>
      <trkpt lat="45.849395832046866" lon="7.732092356309295">
        <ele>1650.240478515625</ele>
        <time>2004-08-08T13:12:53Z</time>
      </trkpt>
      <trkpt lat="45.849310588091612" lon="7.732047429308295">
        <ele>1650.240478515625</ele>
        <time>2004-08-08T13:12:55Z</time>
      </trkpt>
      <trkpt lat="45.849181087687612" lon="7.731983559206128">
        <ele>1650.240478515625</ele>
        <time>2004-08-08T13:12:58Z</time>
      </trkpt>
      <trkpt lat="45.849094921723008" lon="7.731940308585763">
        <ele>1649.759765625</ele>
        <time>2004-08-08T13:13:00Z</time>
      </trkpt>
      <trkpt lat="45.848958296701312" lon="7.731889765709639">
        <ele>1649.759765625</ele>
        <time>2004-08-08T13:13:03Z</time>
      </trkpt>
      <trkpt lat="45.84883064031601" lon="7.731853723526001">
        <ele>1649.279052734375</ele>
        <time>2004-08-08T13:13:06Z</time>
      </trkpt>
      <trkpt lat="45.848703654482961" lon="7.731841653585434">
        <ele>1649.279052734375</ele>
        <time>2004-08-08T13:13:09Z</time>
      </trkpt>
      <trkpt lat="45.848581027239561" lon="7.731822039932013">
        <ele>1649.759765625</ele>
        <time>2004-08-08T13:13:12Z</time>
      </trkpt>
      <trkpt lat="45.848458399996161" lon="7.731817429885268">
        <ele>1648.79833984375</ele>
        <time>2004-08-08T13:13:15Z</time>
      </trkpt>
      <trkpt lat="45.84834692068398" lon="7.731868978589773">
        <ele>1648.79833984375</ele>
        <time>2004-08-08T13:13:18Z</time>
      </trkpt>
      <trkpt lat="45.848239045590162" lon="7.731913989409804">
        <ele>1648.317626953125</ele>
        <time>2004-08-08T13:13:21Z</time>
      </trkpt>
      <trkpt lat="45.84813829511404" lon="7.731944499537349">
        <ele>1648.317626953125</ele>
        <time>2004-08-08T13:13:24Z</time>
      </trkpt>
      <trkpt lat="45.848133936524391" lon="7.731973584741354">
        <ele>1647.837158203125</ele>
        <time>2004-08-08T13:13:39Z</time>
      </trkpt>
      <trkpt lat="45.848087668418884" lon="7.731897560879588">
        <ele>1646.395263671875</ele>
        <time>2004-08-08T13:18:40Z</time>
      </trkpt>
      <trkpt lat="45.84798339754343" lon="7.731916839256883">
        <ele>1645.91455078125</ele>
        <time>2004-08-08T13:18:45Z</time>
      </trkpt>
      <trkpt lat="45.84789052605629" lon="7.731913486495614">
        <ele>1646.875732421875</ele>
        <time>2004-08-08T13:18:55Z</time>
      </trkpt>
      <trkpt lat="45.847768820822239" lon="7.731848945841193">
        <ele>1647.3564453125</ele>
        <time>2004-08-08T13:22:48Z</time>
      </trkpt>
      <trkpt lat="45.847700173035264" lon="7.731891525909305">
        <ele>1646.395263671875</ele>
        <time>2004-08-08T13:23:03Z</time>
      </trkpt>
      <trkpt lat="45.847594225779176" lon="7.731888256967068">
        <ele>1646.395263671875</ele>
        <time>2004-08-08T13:23:07Z</time>
      </trkpt>
      <trkpt lat="45.847495654597878" lon="7.731876354664564">
        <ele>1645.91455078125</ele>
        <time>2004-08-08T13:23:10Z</time>
      </trkpt>
      <trkpt lat="45.847396161407232" lon="7.731860261410475">
        <ele>1645.433837890625</ele>
        <time>2004-08-08T13:23:13Z</time>
      </trkpt>
      <trkpt lat="45.847284598276019" lon="7.731849867850542">
        <ele>1645.91455078125</ele>
        <time>2004-08-08T13:23:16Z</time>
      </trkpt>
      <trkpt lat="45.847170604392886" lon="7.731853052973747">
        <ele>1645.91455078125</ele>
        <time>2004-08-08T13:23:19Z</time>
      </trkpt>
      <trkpt lat="45.847054347395897" lon="7.731889514252543">
        <ele>1645.91455078125</ele>
        <time>2004-08-08T13:23:22Z</time>
      </trkpt>
      <trkpt lat="45.846952088177204" lon="7.731907954439521">
        <ele>1645.91455078125</ele>
        <time>2004-08-08T13:23:25Z</time>
      </trkpt>
      <trkpt lat="45.846834490075707" lon="7.731895297765732">
        <ele>1644.472412109375</ele>
        <time>2004-08-08T13:23:29Z</time>
      </trkpt>
      <trkpt lat="45.846721418201923" lon="7.731835786253214">
        <ele>1643.99169921875</ele>
        <time>2004-08-08T13:23:33Z</time>
      </trkpt>
      <trkpt lat="45.846603820100427" lon="7.731780214235187">
        <ele>1644.472412109375</ele>
        <time>2004-08-08T13:23:37Z</time>
      </trkpt>
      <trkpt lat="45.84651555866003" lon="7.731734029948711">
        <ele>1643.99169921875</ele>
        <time>2004-08-08T13:23:40Z</time>
      </trkpt>
      <trkpt lat="45.846425620839" lon="7.731678625568748">
        <ele>1643.99169921875</ele>
        <time>2004-08-08T13:23:43Z</time>
      </trkpt>
      <trkpt lat="45.846330402418971" lon="7.731608049944043">
        <ele>1643.510986328125</ele>
        <time>2004-08-08T13:23:46Z</time>
      </trkpt>
      <trkpt lat="45.846226383000612" lon="7.731572175398469">
        <ele>1643.0302734375</ele>
        <time>2004-08-08T13:23:49Z</time>
      </trkpt>
      <trkpt lat="45.846120603382587" lon="7.731565972790122">
        <ele>1643.0302734375</ele>
        <time>2004-08-08T13:23:52Z</time>
      </trkpt>
      <trkpt lat="45.846022702753544" lon="7.731536384671927">
        <ele>1642.5498046875</ele>
        <time>2004-08-08T13:23:55Z</time>
      </trkpt>
      <trkpt lat="45.845937039703131" lon="7.731487769633532">
        <ele>1643.0302734375</ele>
        <time>2004-08-08T13:23:58Z</time>
      </trkpt>
      <trkpt lat="45.845851209014654" lon="7.731431191787124">
        <ele>1642.069091796875</ele>
        <time>2004-08-08T13:24:01Z</time>
      </trkpt>
      <trkpt lat="45.845755655318499" lon="7.731367237865925">
        <ele>1642.5498046875</ele>
        <time>2004-08-08T13:24:04Z</time>
      </trkpt>
      <trkpt lat="45.845660688355565" lon="7.731307307258248">
        <ele>1642.5498046875</ele>
        <time>2004-08-08T13:24:07Z</time>
      </trkpt>
      <trkpt lat="45.845563542097807" lon="7.731242431327701">
        <ele>1641.107666015625</ele>
        <time>2004-08-08T13:24:10Z</time>
      </trkpt>
      <trkpt lat="45.845466563478112" lon="7.731176298111677">
        <ele>1641.58837890625</ele>
        <time>2004-08-08T13:24:13Z</time>
      </trkpt>
      <trkpt lat="45.845372183248401" lon="7.731105638667941">
        <ele>1641.58837890625</ele>
        <time>2004-08-08T13:24:16Z</time>
      </trkpt>
      <trkpt lat="45.845283586531878" lon="7.731038248166442">
        <ele>1641.107666015625</ele>
        <time>2004-08-08T13:24:19Z</time>
      </trkpt>
      <trkpt lat="45.84519331343472" lon="7.730974210426211">
        <ele>1640.146484375</ele>
        <time>2004-08-08T13:24:22Z</time>
      </trkpt>
      <trkpt lat="45.845109410583973" lon="7.730913525447249">
        <ele>1640.146484375</ele>
        <time>2004-08-08T13:24:25Z</time>
      </trkpt>
      <trkpt lat="45.84499835036695" lon="7.730824844911695">
        <ele>1640.146484375</ele>
        <time>2004-08-08T13:24:29Z</time>
      </trkpt>
      <trkpt lat="45.844925343990326" lon="7.730738092213869">
        <ele>1639.665771484375</ele>
        <time>2004-08-08T13:24:32Z</time>
      </trkpt>
      <trkpt lat="45.844836831092834" lon="7.730652177706361">
        <ele>1639.665771484375</ele>
        <time>2004-08-08T13:24:35Z</time>
      </trkpt>
      <trkpt lat="45.844740271568298" lon="7.730579925701022">
        <ele>1639.665771484375</ele>
        <time>2004-08-08T13:24:38Z</time>
      </trkpt>
      <trkpt lat="45.84464312531054" lon="7.730513205751777">
        <ele>1638.70458984375</ele>
        <time>2004-08-08T13:24:41Z</time>
      </trkpt>
      <trkpt lat="45.844548158347607" lon="7.730451514944434">
        <ele>1638.70458984375</ele>
        <time>2004-08-08T13:24:44Z</time>
      </trkpt>
      <trkpt lat="45.844456795603037" lon="7.730404827743769">
        <ele>1638.70458984375</ele>
        <time>2004-08-08T13:24:47Z</time>
      </trkpt>
      <trkpt lat="45.844364510849118" lon="7.730371216312051">
        <ele>1638.70458984375</ele>
        <time>2004-08-08T13:24:50Z</time>
      </trkpt>
      <trkpt lat="45.84426786750555" lon="7.730349591001868">
        <ele>1639.18505859375</ele>
        <time>2004-08-08T13:24:53Z</time>
      </trkpt>
      <trkpt lat="45.844176085665822" lon="7.730368785560131">
        <ele>1639.18505859375</ele>
        <time>2004-08-08T13:24:56Z</time>
      </trkpt>
      <trkpt lat="45.844054380431771" lon="7.73039217106998">
        <ele>1638.70458984375</ele>
        <time>2004-08-08T13:25:00Z</time>
      </trkpt>
      <trkpt lat="45.843951869755983" lon="7.730384627357125">
        <ele>1638.223876953125</ele>
        <time>2004-08-08T13:25:04Z</time>
      </trkpt>
      <trkpt lat="45.843841396272182" lon="7.730375993996859">
        <ele>1637.262451171875</ele>
        <time>2004-08-08T13:25:16Z</time>
      </trkpt>
      <trkpt lat="45.843749195337296" lon="7.730366941541433">
        <ele>1637.262451171875</ele>
        <time>2004-08-08T13:25:20Z</time>
      </trkpt>
      <trkpt lat="45.843656240031123" lon="7.730352440848947">
        <ele>1637.262451171875</ele>
        <time>2004-08-08T13:25:24Z</time>
      </trkpt>
      <trkpt lat="45.843564961105585" lon="7.730342717841268">
        <ele>1636.78173828125</ele>
        <time>2004-08-08T13:25:28Z</time>
      </trkpt>
      <trkpt lat="45.843466138467193" lon="7.730345316231251">
        <ele>1636.78173828125</ele>
        <time>2004-08-08T13:25:32Z</time>
      </trkpt>
      <trkpt lat="45.84335264749825" lon="7.730348752811551">
        <ele>1637.262451171875</ele>
        <time>2004-08-08T13:25:36Z</time>
      </trkpt>
      <trkpt lat="45.843237061053514" lon="7.730353362858295">
        <ele>1635.820556640625</ele>
        <time>2004-08-08T13:25:40Z</time>
      </trkpt>
      <trkpt lat="45.843151481822133" lon="7.730374149978161">
        <ele>1636.30126953125</ele>
        <time>2004-08-08T13:25:43Z</time>
      </trkpt>
      <trkpt lat="45.843055173754692" lon="7.730392925441265">
        <ele>1636.78173828125</ele>
        <time>2004-08-08T13:25:47Z</time>
      </trkpt>
      <trkpt lat="45.842962889000773" lon="7.730412874370813">
        <ele>1636.78173828125</ele>
        <time>2004-08-08T13:25:51Z</time>
      </trkpt>
      <trkpt lat="45.84286448545754" lon="7.730429721996188">
        <ele>1636.78173828125</ele>
        <time>2004-08-08T13:25:55Z</time>
      </trkpt>
      <trkpt lat="45.842765914276242" lon="7.730457047000527">
        <ele>1636.30126953125</ele>
        <time>2004-08-08T13:25:59Z</time>
      </trkpt>
      <trkpt lat="45.84264705888927" lon="7.730494430288672">
        <ele>1635.820556640625</ele>
        <time>2004-08-08T13:26:04Z</time>
      </trkpt>
      <trkpt lat="45.842554690316319" lon="7.730518905445933">
        <ele>1635.820556640625</ele>
        <time>2004-08-08T13:26:08Z</time>
      </trkpt>
      <trkpt lat="45.842448072507977" lon="7.73052996955812">
        <ele>1636.30126953125</ele>
        <time>2004-08-08T13:26:12Z</time>
      </trkpt>
      <trkpt lat="45.842342376708984" lon="7.730546901002526">
        <ele>1635.820556640625</ele>
        <time>2004-08-08T13:26:16Z</time>
      </trkpt>
      <trkpt lat="45.842247661203146" lon="7.730549247935414">
        <ele>1635.820556640625</ele>
        <time>2004-08-08T13:26:20Z</time>
      </trkpt>
      <trkpt lat="45.842152358964086" lon="7.730546733364463">
        <ele>1635.820556640625</ele>
        <time>2004-08-08T13:26:24Z</time>
      </trkpt>
      <trkpt lat="45.842054123058915" lon="7.730526449158788">
        <ele>1635.820556640625</ele>
        <time>2004-08-08T13:26:28Z</time>
      </trkpt>
      <trkpt lat="45.84195613861084" lon="7.730491999536753">
        <ele>1635.33984375</ele>
        <time>2004-08-08T13:26:32Z</time>
      </trkpt>
      <trkpt lat="45.841863267123699" lon="7.730453526601195">
        <ele>1634.859375</ele>
        <time>2004-08-08T13:26:36Z</time>
      </trkpt>
      <trkpt lat="45.841762600466609" lon="7.730427961796522">
        <ele>1634.378662109375</ele>
        <time>2004-08-08T13:26:40Z</time>
      </trkpt>
      <trkpt lat="45.841650031507015" lon="7.730384627357125">
        <ele>1634.378662109375</ele>
        <time>2004-08-08T13:26:44Z</time>
      </trkpt>
      <trkpt lat="45.841558668762445" lon="7.730360571295023">
        <ele>1633.89794921875</ele>
        <time>2004-08-08T13:26:47Z</time>
      </trkpt>
      <trkpt lat="45.841446099802852" lon="7.730323858559132">
        <ele>1634.378662109375</ele>
        <time>2004-08-08T13:26:51Z</time>
      </trkpt>
      <trkpt lat="45.841352809220552" lon="7.730301646515727">
        <ele>1633.89794921875</ele>
        <time>2004-08-08T13:26:55Z</time>
      </trkpt>
      <trkpt lat="45.841266140341759" lon="7.730271890759468">
        <ele>1633.417236328125</ele>
        <time>2004-08-08T13:26:59Z</time>
      </trkpt>
      <trkpt lat="45.841162204742432" lon="7.730245236307383">
        <ele>1633.417236328125</ele>
        <time>2004-08-08T13:27:03Z</time>
      </trkpt>
      <trkpt lat="45.841062292456627" lon="7.730198549106717">
        <ele>1633.417236328125</ele>
        <time>2004-08-08T13:27:07Z</time>
      </trkpt>
      <trkpt lat="45.840941928327084" lon="7.730158567428589">
        <ele>1633.417236328125</ele>
        <time>2004-08-08T13:27:11Z</time>
      </trkpt>
      <trkpt lat="45.840818881988525" lon="7.730134762823582">
        <ele>1633.417236328125</ele>
        <time>2004-08-08T13:27:15Z</time>
      </trkpt>
      <trkpt lat="45.840724920853972" lon="7.730138199403882">
        <ele>1632.9365234375</ele>
        <time>2004-08-08T13:27:18Z</time>
      </trkpt>
      <trkpt lat="45.840630456805229" lon="7.730135265737772">
        <ele>1632.9365234375</ele>
        <time>2004-08-08T13:27:21Z</time>
      </trkpt>
      <trkpt lat="45.840533478185534" lon="7.730121100321412">
        <ele>1632.9365234375</ele>
        <time>2004-08-08T13:27:24Z</time>
      </trkpt>
      <trkpt lat="45.840456951409578" lon="7.730112466961145">
        <ele>1632.4560546875</ele>
        <time>2004-08-08T13:27:28Z</time>
      </trkpt>
      <trkpt lat="45.840371288359165" lon="7.730117663741112">
        <ele>1632.4560546875</ele>
        <time>2004-08-08T13:27:32Z</time>
      </trkpt>
      <trkpt lat="45.840284870937467" lon="7.730076257139444">
        <ele>1631.49462890625</ele>
        <time>2004-08-08T13:27:38Z</time>
      </trkpt>
      <trkpt lat="45.840222677215934" lon="7.729984223842621">
        <ele>1631.49462890625</ele>
        <time>2004-08-08T13:27:43Z</time>
      </trkpt>
      <trkpt lat="45.840151598677039" lon="7.729877270758152">
        <ele>1631.49462890625</ele>
        <time>2004-08-08T13:27:47Z</time>
      </trkpt>
      <trkpt lat="45.840074988082051" lon="7.729786327108741">
        <ele>1631.01416015625</ele>
        <time>2004-08-08T13:27:50Z</time>
      </trkpt>
      <trkpt lat="45.839980775490403" lon="7.729686582461">
        <ele>1629.572021484375</ele>
        <time>2004-08-08T13:27:53Z</time>
      </trkpt>
      <trkpt lat="45.839911792427301" lon="7.729607708752155">
        <ele>1630.533447265625</ele>
        <time>2004-08-08T13:27:56Z</time>
      </trkpt>
      <trkpt lat="45.839841049164534" lon="7.729515256360173">
        <ele>1629.572021484375</ele>
        <time>2004-08-08T13:28:37Z</time>
      </trkpt>
      <trkpt lat="45.839746333658695" lon="7.729421630501747">
        <ele>1629.572021484375</ele>
        <time>2004-08-08T13:28:42Z</time>
      </trkpt>
      <trkpt lat="45.839672489091754" lon="7.729333955794573">
        <ele>1629.572021484375</ele>
        <time>2004-08-08T13:28:45Z</time>
      </trkpt>
      <trkpt lat="45.839586909860373" lon="7.72923949174583">
        <ele>1629.09130859375</ele>
        <time>2004-08-08T13:28:48Z</time>
      </trkpt>
      <trkpt lat="45.83949445746839" lon="7.729153409600258">
        <ele>1629.572021484375</ele>
        <time>2004-08-08T13:28:51Z</time>
      </trkpt>
      <trkpt lat="45.839404938742518" lon="7.729082582518458">
        <ele>1630.052734375</ele>
        <time>2004-08-08T13:28:54Z</time>
      </trkpt>
      <trkpt lat="45.839295638725162" lon="7.729030111804605">
        <ele>1630.533447265625</ele>
        <time>2004-08-08T13:28:58Z</time>
      </trkpt>
      <trkpt lat="45.839191284030676" lon="7.728986945003271">
        <ele>1631.49462890625</ele>
        <time>2004-08-08T13:29:02Z</time>
      </trkpt>
      <trkpt lat="45.839082906022668" lon="7.728944197297096">
        <ele>1631.975341796875</ele>
        <time>2004-08-08T13:29:06Z</time>
      </trkpt>
      <trkpt lat="45.838973773643374" lon="7.728893905878067">
        <ele>1631.49462890625</ele>
        <time>2004-08-08T13:29:10Z</time>
      </trkpt>
      <trkpt lat="45.838864473626018" lon="7.728815283626318">
        <ele>1630.533447265625</ele>
        <time>2004-08-08T13:29:14Z</time>
      </trkpt>
      <trkpt lat="45.838763052597642" lon="7.72872350178659">
        <ele>1630.533447265625</ele>
        <time>2004-08-08T13:29:18Z</time>
      </trkpt>
      <trkpt lat="45.838662218302488" lon="7.728638676926494">
        <ele>1630.533447265625</ele>
        <time>2004-08-08T13:29:22Z</time>
      </trkpt>
      <trkpt lat="45.838590385392308" lon="7.728542368859053">
        <ele>1630.052734375</ele>
        <time>2004-08-08T13:29:25Z</time>
      </trkpt>
      <trkpt lat="45.838517798110843" lon="7.728430889546871">
        <ele>1629.09130859375</ele>
        <time>2004-08-08T13:29:28Z</time>
      </trkpt>
      <trkpt lat="45.838445210829377" lon="7.728317147120833">
        <ele>1628.61083984375</ele>
        <time>2004-08-08T13:29:31Z</time>
      </trkpt>
      <trkpt lat="45.838348735123873" lon="7.728210110217333">
        <ele>1628.130126953125</ele>
        <time>2004-08-08T13:29:34Z</time>
      </trkpt>
      <trkpt lat="45.838236417621374" lon="7.7280995529145">
        <ele>1627.649169921875</ele>
        <time>2004-08-08T13:29:37Z</time>
      </trkpt>
      <trkpt lat="45.838159890845418" lon="7.728028474375606">
        <ele>1628.61083984375</ele>
        <time>2004-08-08T13:29:39Z</time>
      </trkpt>
      <trkpt lat="45.838043047115207" lon="7.727942056953907">
        <ele>1628.61083984375</ele>
        <time>2004-08-08T13:29:42Z</time>
      </trkpt>
      <trkpt lat="45.837930478155613" lon="7.727870559319854">
        <ele>1627.649169921875</ele>
        <time>2004-08-08T13:29:45Z</time>
      </trkpt>
      <trkpt lat="45.837825201451778" lon="7.727805683389306">
        <ele>1628.61083984375</ele>
        <time>2004-08-08T13:29:48Z</time>
      </trkpt>
      <trkpt lat="45.837723026052117" lon="7.727742483839393">
        <ele>1627.649169921875</ele>
        <time>2004-08-08T13:29:51Z</time>
      </trkpt>
      <trkpt lat="45.837637782096863" lon="7.727682050317526">
        <ele>1627.649169921875</ele>
        <time>2004-08-08T13:29:54Z</time>
      </trkpt>
      <trkpt lat="45.837538372725248" lon="7.727607786655426">
        <ele>1627.168701171875</ele>
        <time>2004-08-08T13:29:58Z</time>
      </trkpt>
      <trkpt lat="45.837433850392699" lon="7.727524386718869">
        <ele>1626.68798828125</ele>
        <time>2004-08-08T13:30:02Z</time>
      </trkpt>
      <trkpt lat="45.83735422231257" lon="7.727449368685484">
        <ele>1626.68798828125</ele>
        <time>2004-08-08T13:30:05Z</time>
      </trkpt>
      <trkpt lat="45.837275600060821" lon="7.727371081709862">
        <ele>1626.68798828125</ele>
        <time>2004-08-08T13:30:08Z</time>
      </trkpt>
      <trkpt lat="45.837193205952644" lon="7.727284915745258">
        <ele>1626.207275390625</ele>
        <time>2004-08-08T13:30:11Z</time>
      </trkpt>
      <trkpt lat="45.837104609236121" lon="7.727190535515547">
        <ele>1626.207275390625</ele>
        <time>2004-08-08T13:30:14Z</time>
      </trkpt>
      <trkpt lat="45.837013414129615" lon="7.727106884121895">
        <ele>1625.7265625</ele>
        <time>2004-08-08T13:30:17Z</time>
      </trkpt>
      <trkpt lat="45.836924985051155" lon="7.727019879966974">
        <ele>1625.245849609375</ele>
        <time>2004-08-08T13:30:20Z</time>
      </trkpt>
      <trkpt lat="45.836834209039807" lon="7.726933797821403">
        <ele>1626.207275390625</ele>
        <time>2004-08-08T13:30:23Z</time>
      </trkpt>
      <trkpt lat="45.83674150519073" lon="7.726837070658803">
        <ele>1626.207275390625</ele>
        <time>2004-08-08T13:30:26Z</time>
      </trkpt>
      <trkpt lat="45.836642850190401" lon="7.726727183908224">
        <ele>1625.7265625</ele>
        <time>2004-08-08T13:30:29Z</time>
      </trkpt>
      <trkpt lat="45.836538076400757" lon="7.726597348228097">
        <ele>1625.7265625</ele>
        <time>2004-08-08T13:30:32Z</time>
      </trkpt>
      <trkpt lat="45.836468925699592" lon="7.726505482569337">
        <ele>1625.7265625</ele>
        <time>2004-08-08T13:30:34Z</time>
      </trkpt>
      <trkpt lat="45.836398433893919" lon="7.726414455100894">
        <ele>1625.245849609375</ele>
        <time>2004-08-08T13:30:36Z</time>
      </trkpt>
      <trkpt lat="45.836325846612453" lon="7.726329965516925">
        <ele>1625.7265625</ele>
        <time>2004-08-08T13:30:38Z</time>
      </trkpt>
      <trkpt lat="45.836215624585748" lon="7.726229717954993">
        <ele>1625.7265625</ele>
        <time>2004-08-08T13:30:41Z</time>
      </trkpt>
      <trkpt lat="45.836093164980412" lon="7.726242039352655">
        <ele>1626.68798828125</ele>
        <time>2004-08-08T13:30:44Z</time>
      </trkpt>
      <trkpt lat="45.835974896326661" lon="7.726250169798732">
        <ele>1626.68798828125</ele>
        <time>2004-08-08T13:30:47Z</time>
      </trkpt>
      <trkpt lat="45.835853107273579" lon="7.726255701854825">
        <ele>1626.68798828125</ele>
        <time>2004-08-08T13:30:50Z</time>
      </trkpt>
      <trkpt lat="45.835728971287608" lon="7.726251510903239">
        <ele>1626.207275390625</ele>
        <time>2004-08-08T13:30:53Z</time>
      </trkpt>
      <trkpt lat="45.835598045960069" lon="7.7261982858181">
        <ele>1625.7265625</ele>
        <time>2004-08-08T13:30:56Z</time>
      </trkpt>
      <trkpt lat="45.835513304919004" lon="7.726121256127954">
        <ele>1625.7265625</ele>
        <time>2004-08-08T13:30:58Z</time>
      </trkpt>
      <trkpt lat="45.835426300764084" lon="7.72603165358305">
        <ele>1625.245849609375</ele>
        <time>2004-08-08T13:31:00Z</time>
      </trkpt>
      <trkpt lat="45.835338542237878" lon="7.72593392059207">
        <ele>1625.245849609375</ele>
        <time>2004-08-08T13:31:02Z</time>
      </trkpt>
      <trkpt lat="45.835251370444894" lon="7.725839959457517">
        <ele>1624.765380859375</ele>
        <time>2004-08-08T13:31:04Z</time>
      </trkpt>
      <trkpt lat="45.835164031013846" lon="7.72574826143682">
        <ele>1623.803955078125</ele>
        <time>2004-08-08T13:31:06Z</time>
      </trkpt>
      <trkpt lat="45.83507627248764" lon="7.725653713569045">
        <ele>1623.803955078125</ele>
        <time>2004-08-08T13:31:08Z</time>
      </trkpt>
      <trkpt lat="45.834985077381134" lon="7.725557908415794">
        <ele>1623.323486328125</ele>
        <time>2004-08-08T13:31:10Z</time>
      </trkpt>
      <trkpt lat="45.834894049912691" lon="7.725462438538671">
        <ele>1623.803955078125</ele>
        <time>2004-08-08T13:31:12Z</time>
      </trkpt>
      <trkpt lat="45.834808805957437" lon="7.725383061915636">
        <ele>1623.323486328125</ele>
        <time>2004-08-08T13:31:14Z</time>
      </trkpt>
      <trkpt lat="45.83472297526896" lon="7.725305696949363">
        <ele>1622.8427734375</ele>
        <time>2004-08-08T13:31:16Z</time>
      </trkpt>
      <trkpt lat="45.834633121266961" lon="7.725237216800451">
        <ele>1622.362060546875</ele>
        <time>2004-08-08T13:31:18Z</time>
      </trkpt>
      <trkpt lat="45.834524910897017" lon="7.725240485742688">
        <ele>1621.88134765625</ele>
        <time>2004-08-08T13:31:20Z</time>
      </trkpt>
      <trkpt lat="45.834431033581495" lon="7.725230762735009">
        <ele>1621.88134765625</ele>
        <time>2004-08-08T13:31:22Z</time>
      </trkpt>
      <trkpt lat="45.834307065233588" lon="7.725198408588767">
        <ele>1622.362060546875</ele>
        <time>2004-08-08T13:31:25Z</time>
      </trkpt>
      <trkpt lat="45.834197849035263" lon="7.725160354748368">
        <ele>1622.362060546875</ele>
        <time>2004-08-08T13:31:28Z</time>
      </trkpt>
      <trkpt lat="45.834096344187856" lon="7.725109308958054">
        <ele>1622.8427734375</ele>
        <time>2004-08-08T13:31:31Z</time>
      </trkpt>
      <trkpt lat="45.834003556519747" lon="7.725050719454885">
        <ele>1623.323486328125</ele>
        <time>2004-08-08T13:31:34Z</time>
      </trkpt>
      <trkpt lat="45.833933735266328" lon="7.72496840916574">
        <ele>1622.8427734375</ele>
        <time>2004-08-08T13:31:37Z</time>
      </trkpt>
      <trkpt lat="45.833855615928769" lon="7.724870592355728">
        <ele>1622.362060546875</ele>
        <time>2004-08-08T13:31:40Z</time>
      </trkpt>
      <trkpt lat="45.833796774968505" lon="7.724759867414832">
        <ele>1622.362060546875</ele>
        <time>2004-08-08T13:31:43Z</time>
      </trkpt>
      <trkpt lat="45.833822507411242" lon="7.724589463323355">
        <ele>1622.362060546875</ele>
        <time>2004-08-08T13:32:40Z</time>
      </trkpt>
      <trkpt lat="45.833807168528438" lon="7.724431045353413">
        <ele>1622.8427734375</ele>
        <time>2004-08-08T13:32:44Z</time>
      </trkpt>
      <trkpt lat="45.833721505478024" lon="7.72433465346694">
        <ele>1623.323486328125</ele>
        <time>2004-08-08T13:32:47Z</time>
      </trkpt>
      <trkpt lat="45.833606673404574" lon="7.724263574928045">
        <ele>1623.803955078125</ele>
        <time>2004-08-08T13:32:50Z</time>
      </trkpt>
      <trkpt lat="45.833488320931792" lon="7.724214121699333">
        <ele>1624.765380859375</ele>
        <time>2004-08-08T13:32:53Z</time>
      </trkpt>
      <trkpt lat="45.83339050412178" lon="7.724174223840237">
        <ele>1624.765380859375</ele>
        <time>2004-08-08T13:32:56Z</time>
      </trkpt>
      <trkpt lat="45.833304086700082" lon="7.724136505275965">
        <ele>1626.207275390625</ele>
        <time>2004-08-08T13:32:59Z</time>
      </trkpt>
      <trkpt lat="45.833199145272374" lon="7.72408889606595">
        <ele>1627.168701171875</ele>
        <time>2004-08-08T13:33:03Z</time>
      </trkpt>
      <trkpt lat="45.833094958215952" lon="7.724050842225552">
        <ele>1628.61083984375</ele>
        <time>2004-08-08T13:33:07Z</time>
      </trkpt>
      <trkpt lat="45.832994794473052" lon="7.724007507786155">
        <ele>1629.09130859375</ele>
        <time>2004-08-08T13:33:11Z</time>
      </trkpt>
      <trkpt lat="45.832899073138833" lon="7.723956713452935">
        <ele>1630.533447265625</ele>
        <time>2004-08-08T13:33:15Z</time>
      </trkpt>
      <trkpt lat="45.832803854718804" lon="7.723906841129065">
        <ele>1631.01416015625</ele>
        <time>2004-08-08T13:33:19Z</time>
      </trkpt>
      <trkpt lat="45.832704110071063" lon="7.723869290202856">
        <ele>1631.975341796875</ele>
        <time>2004-08-08T13:33:24Z</time>
      </trkpt>
      <trkpt lat="45.832602689042687" lon="7.723833583295345">
        <ele>1633.417236328125</ele>
        <time>2004-08-08T13:33:29Z</time>
      </trkpt>
      <trkpt lat="45.832505710422993" lon="7.723788907751441">
        <ele>1634.859375</ele>
        <time>2004-08-08T13:33:34Z</time>
      </trkpt>
      <trkpt lat="45.832410324364901" lon="7.72373216226697">
        <ele>1636.30126953125</ele>
        <time>2004-08-08T13:33:39Z</time>
      </trkpt>
      <trkpt lat="45.832326086238027" lon="7.723691258579493">
        <ele>1636.78173828125</ele>
        <time>2004-08-08T13:33:44Z</time>
      </trkpt>
      <trkpt lat="45.832228688523173" lon="7.723645996302366">
        <ele>1638.223876953125</ele>
        <time>2004-08-08T13:33:50Z</time>
      </trkpt>
      <trkpt lat="45.83213908597827" lon="7.723598051816225">
        <ele>1638.223876953125</ele>
        <time>2004-08-08T13:33:57Z</time>
      </trkpt>
      <trkpt lat="45.832066079601645" lon="7.723512137308717">
        <ele>1639.665771484375</ele>
        <time>2004-08-08T13:34:04Z</time>
      </trkpt>
      <trkpt lat="45.832016039639711" lon="7.723396047949791">
        <ele>1640.626953125</ele>
        <time>2004-08-08T13:34:11Z</time>
      </trkpt>
      <trkpt lat="45.831967927515507" lon="7.723287418484688">
        <ele>1641.58837890625</ele>
        <time>2004-08-08T13:34:18Z</time>
      </trkpt>
      <trkpt lat="45.831923168152571" lon="7.723177447915077">
        <ele>1641.58837890625</ele>
        <time>2004-08-08T13:34:25Z</time>
      </trkpt>
      <trkpt lat="45.831864075735211" lon="7.723070411011577">
        <ele>1642.5498046875</ele>
        <time>2004-08-08T13:34:33Z</time>
      </trkpt>
      <trkpt lat="45.831814538687468" lon="7.722966559231281">
        <ele>1642.5498046875</ele>
        <time>2004-08-08T13:34:41Z</time>
      </trkpt>
      <trkpt lat="45.831758044660091" lon="7.722859606146812">
        <ele>1644.953125</ele>
        <time>2004-08-08T13:34:49Z</time>
      </trkpt>
      <trkpt lat="45.831697443500161" lon="7.722750389948487">
        <ele>1645.433837890625</ele>
        <time>2004-08-08T13:34:57Z</time>
      </trkpt>
      <trkpt lat="45.831633321940899" lon="7.722644107416272">
        <ele>1646.875732421875</ele>
        <time>2004-08-08T13:35:05Z</time>
      </trkpt>
      <trkpt lat="45.83158160559833" lon="7.722530867904425">
        <ele>1647.837158203125</ele>
        <time>2004-08-08T13:35:13Z</time>
      </trkpt>
      <trkpt lat="45.831612115725875" lon="7.722409497946501">
        <ele>1648.317626953125</ele>
        <time>2004-08-08T13:35:20Z</time>
      </trkpt>
      <trkpt lat="45.831713620573282" lon="7.722391728311777">
        <ele>1649.279052734375</ele>
        <time>2004-08-08T13:35:28Z</time>
      </trkpt>
      <trkpt lat="45.831808168441057" lon="7.722418131306768">
        <ele>1650.720947265625</ele>
        <time>2004-08-08T13:35:36Z</time>
      </trkpt>
      <trkpt lat="45.831892658025026" lon="7.722440175712109">
        <ele>1651.682373046875</ele>
        <time>2004-08-08T13:35:44Z</time>
      </trkpt>
      <trkpt lat="45.83197589032352" lon="7.722485605627298">
        <ele>1652.6435546875</ele>
        <time>2004-08-08T13:35:53Z</time>
      </trkpt>
      <trkpt lat="45.832075886428356" lon="7.722536567598581">
        <ele>1653.60498046875</ele>
        <time>2004-08-08T13:36:02Z</time>
      </trkpt>
      <trkpt lat="45.832170099020004" lon="7.722585098817945">
        <ele>1654.566162109375</ele>
        <time>2004-08-08T13:36:10Z</time>
      </trkpt>
      <trkpt lat="45.832255594432354" lon="7.722613094374538">
        <ele>1655.046875</ele>
        <time>2004-08-08T13:36:17Z</time>
      </trkpt>
      <trkpt lat="45.832350896671414" lon="7.722631115466356">
        <ele>1656.008056640625</ele>
        <time>2004-08-08T13:36:25Z</time>
      </trkpt>
      <trkpt lat="45.832433123141527" lon="7.722570765763521">
        <ele>1656.969482421875</ele>
        <time>2004-08-08T13:36:33Z</time>
      </trkpt>
      <trkpt lat="45.832443684339523" lon="7.722438415512443">
        <ele>1656.969482421875</ele>
        <time>2004-08-08T13:36:41Z</time>
      </trkpt>
      <trkpt lat="45.832416526973248" lon="7.722297683358192">
        <ele>1657.4501953125</ele>
        <time>2004-08-08T13:36:49Z</time>
      </trkpt>
      <trkpt lat="45.832381658256054" lon="7.722163237631321">
        <ele>1658.411376953125</ele>
        <time>2004-08-08T13:36:57Z</time>
      </trkpt>
      <trkpt lat="45.832336647436023" lon="7.722042705863714">
        <ele>1658.89208984375</ele>
        <time>2004-08-08T13:37:05Z</time>
      </trkpt>
      <trkpt lat="45.832272944971919" lon="7.721949415281415">
        <ele>1659.853271484375</ele>
        <time>2004-08-08T13:37:13Z</time>
      </trkpt>
      <trkpt lat="45.832192227244377" lon="7.721896274015307">
        <ele>1660.334228515625</ele>
        <time>2004-08-08T13:37:21Z</time>
      </trkpt>
      <trkpt lat="45.832098433747888" lon="7.721878252923489">
        <ele>1661.7763671875</ele>
        <time>2004-08-08T13:37:30Z</time>
      </trkpt>
      <trkpt lat="45.83199005573988" lon="7.721873642876744">
        <ele>1662.2568359375</ele>
        <time>2004-08-08T13:37:39Z</time>
      </trkpt>
      <trkpt lat="45.831895256415009" lon="7.721862746402621">
        <ele>1663.21826171875</ele>
        <time>2004-08-08T13:37:47Z</time>
      </trkpt>
      <trkpt lat="45.83180439658463" lon="7.72183533757925">
        <ele>1664.66015625</ele>
        <time>2004-08-08T13:37:55Z</time>
      </trkpt>
      <trkpt lat="45.831719236448407" lon="7.721765767782927">
        <ele>1666.10205078125</ele>
        <time>2004-08-08T13:38:04Z</time>
      </trkpt>
      <trkpt lat="45.831654779613018" lon="7.721668537706137">
        <ele>1667.0634765625</ele>
        <time>2004-08-08T13:38:12Z</time>
      </trkpt>
      <trkpt lat="45.83161186426878" lon="7.721552113071084">
        <ele>1668.024658203125</ele>
        <time>2004-08-08T13:38:20Z</time>
      </trkpt>
      <trkpt lat="45.831596357747912" lon="7.721430659294128">
        <ele>1668.50537109375</ele>
        <time>2004-08-08T13:38:28Z</time>
      </trkpt>
      <trkpt lat="45.831611361354589" lon="7.721304344013333">
        <ele>1669.466796875</ele>
        <time>2004-08-08T13:38:36Z</time>
      </trkpt>
      <trkpt lat="45.831638434901834" lon="7.721172999590635">
        <ele>1670.90869140625</ele>
        <time>2004-08-08T13:38:43Z</time>
      </trkpt>
      <trkpt lat="45.831683278083801" lon="7.721043163910508">
        <ele>1670.90869140625</ele>
        <time>2004-08-08T13:38:50Z</time>
      </trkpt>
      <trkpt lat="45.831737760454416" lon="7.720931684598327">
        <ele>1671.869873046875</ele>
        <time>2004-08-08T13:38:58Z</time>
      </trkpt>
      <trkpt lat="45.831790566444397" lon="7.720824228599668">
        <ele>1673.31201171875</ele>
        <time>2004-08-08T13:39:06Z</time>
      </trkpt>
      <trkpt lat="45.831845803186297" lon="7.720714677125216">
        <ele>1674.75390625</ele>
        <time>2004-08-08T13:39:15Z</time>
      </trkpt>
      <trkpt lat="45.831904308870435" lon="7.720618369057775">
        <ele>1676.196044921875</ele>
        <time>2004-08-08T13:39:23Z</time>
      </trkpt>
      <trkpt lat="45.831956779584289" lon="7.720510410144925">
        <ele>1677.157470703125</ele>
        <time>2004-08-08T13:39:32Z</time>
      </trkpt>
      <trkpt lat="45.831983769312501" lon="7.720383424311876">
        <ele>1678.599365234375</ele>
        <time>2004-08-08T13:39:40Z</time>
      </trkpt>
      <trkpt lat="45.831981506198645" lon="7.720246044918895">
        <ele>1678.599365234375</ele>
        <time>2004-08-08T13:39:49Z</time>
      </trkpt>
      <trkpt lat="45.831944458186626" lon="7.720115622505546">
        <ele>1678.599365234375</ele>
        <time>2004-08-08T13:39:58Z</time>
      </trkpt>
      <trkpt lat="45.831883689388633" lon="7.720014369115233">
        <ele>1679.560546875</ele>
        <time>2004-08-08T13:40:06Z</time>
      </trkpt>
      <trkpt lat="45.831804228946567" lon="7.719932310283184">
        <ele>1681.9638671875</ele>
        <time>2004-08-08T13:40:14Z</time>
      </trkpt>
      <trkpt lat="45.831728456541896" lon="7.719850922003388">
        <ele>1682.444580078125</ele>
        <time>2004-08-08T13:40:22Z</time>
      </trkpt>
      <trkpt lat="45.831639440730214" lon="7.719788141548634">
        <ele>1682.925048828125</ele>
        <time>2004-08-08T13:40:31Z</time>
      </trkpt>
      <trkpt lat="45.8315400313586" lon="7.719768863171339">
        <ele>1684.847900390625</ele>
        <time>2004-08-08T13:40:39Z</time>
      </trkpt>
      <trkpt lat="45.831448584794998" lon="7.719769366085529">
        <ele>1686.289794921875</ele>
        <time>2004-08-08T13:40:47Z</time>
      </trkpt>
      <trkpt lat="45.831347834318876" lon="7.719814125448465">
        <ele>1686.770263671875</ele>
        <time>2004-08-08T13:40:55Z</time>
      </trkpt>
      <trkpt lat="45.831260494887829" lon="7.719825189560652">
        <ele>1687.731689453125</ele>
        <time>2004-08-08T13:41:00Z</time>
      </trkpt>
      <trkpt lat="45.831157062202692" lon="7.719854023307562">
        <ele>1688.693115234375</ele>
        <time>2004-08-08T13:41:04Z</time>
      </trkpt>
      <trkpt lat="45.83105287514627" lon="7.719874642789364">
        <ele>1689.173583984375</ele>
        <time>2004-08-08T13:41:08Z</time>
      </trkpt>
      <trkpt lat="45.830959416925907" lon="7.719843378290534">
        <ele>1690.135009765625</ele>
        <time>2004-08-08T13:41:12Z</time>
      </trkpt>
      <trkpt lat="45.830886662006378" lon="7.71973617374897">
        <ele>1689.654296875</ele>
        <time>2004-08-08T13:41:17Z</time>
      </trkpt>
      <trkpt lat="45.830845758318901" lon="7.719618994742632">
        <ele>1690.135009765625</ele>
        <time>2004-08-08T13:41:22Z</time>
      </trkpt>
      <trkpt lat="45.830795634537935" lon="7.719480358064175">
        <ele>1691.09619140625</ele>
        <time>2004-08-08T13:41:28Z</time>
      </trkpt>
      <trkpt lat="45.830731932073832" lon="7.719371560961008">
        <ele>1691.576904296875</ele>
        <time>2004-08-08T13:41:33Z</time>
      </trkpt>
      <trkpt lat="45.830682395026088" lon="7.719244826585054">
        <ele>1693.01904296875</ele>
        <time>2004-08-08T13:41:38Z</time>
      </trkpt>
      <trkpt lat="45.830680970102549" lon="7.719112643972039">
        <ele>1693.01904296875</ele>
        <time>2004-08-08T13:43:19Z</time>
      </trkpt>
      <trkpt lat="45.830658841878176" lon="7.719009546563029">
        <ele>1693.499755859375</ele>
        <time>2004-08-08T13:46:44Z</time>
      </trkpt>
      <trkpt lat="45.830627493560314" lon="7.718887673690915">
        <ele>1694.4609375</ele>
        <time>2004-08-08T13:46:51Z</time>
      </trkpt>
      <trkpt lat="45.830586673691869" lon="7.71876378916204">
        <ele>1696.8642578125</ele>
        <time>2004-08-08T13:46:59Z</time>
      </trkpt>
      <trkpt lat="45.830545350909233" lon="7.718645604327321">
        <ele>1698.30615234375</ele>
        <time>2004-08-08T13:47:07Z</time>
      </trkpt>
      <trkpt lat="45.830510649830103" lon="7.718522977083921">
        <ele>1698.786865234375</ele>
        <time>2004-08-08T13:47:15Z</time>
      </trkpt>
      <trkpt lat="45.830469494685531" lon="7.718401942402124">
        <ele>1700.22900390625</ele>
        <time>2004-08-08T13:47:24Z</time>
      </trkpt>
      <trkpt lat="45.830431524664164" lon="7.718275291845202">
        <ele>1701.190185546875</ele>
        <time>2004-08-08T13:47:33Z</time>
      </trkpt>
      <trkpt lat="45.830391878262162" lon="7.718144953250885">
        <ele>1701.190185546875</ele>
        <time>2004-08-08T13:47:42Z</time>
      </trkpt>
      <trkpt lat="45.830346699804068" lon="7.718029199168086">
        <ele>1702.632080078125</ele>
        <time>2004-08-08T13:47:50Z</time>
      </trkpt>
      <trkpt lat="45.830298839136958" lon="7.717916462570429">
        <ele>1702.632080078125</ele>
        <time>2004-08-08T13:47:58Z</time>
      </trkpt>
      <trkpt lat="45.830243602395058" lon="7.717816047370434">
        <ele>1703.593505859375</ele>
        <time>2004-08-08T13:48:06Z</time>
      </trkpt>
      <trkpt lat="45.830180151388049" lon="7.717712866142392">
        <ele>1705.035400390625</ele>
        <time>2004-08-08T13:48:14Z</time>
      </trkpt>
      <trkpt lat="45.830120472237468" lon="7.71761161275208">
        <ele>1705.99658203125</ele>
        <time>2004-08-08T13:48:21Z</time>
      </trkpt>
      <trkpt lat="45.830065403133631" lon="7.717506755143404">
        <ele>1705.99658203125</ele>
        <time>2004-08-08T13:48:28Z</time>
      </trkpt>
      <trkpt lat="45.830004718154669" lon="7.717385971918702">
        <ele>1706.477294921875</ele>
        <time>2004-08-08T13:48:35Z</time>
      </trkpt>
      <trkpt lat="45.829944703727961" lon="7.717285305261612">
        <ele>1707.438720703125</ele>
        <time>2004-08-08T13:48:41Z</time>
      </trkpt>
      <trkpt lat="45.829864740371704" lon="7.71719872020185">
        <ele>1707.91943359375</ele>
        <time>2004-08-08T13:48:48Z</time>
      </trkpt>
      <trkpt lat="45.829772455617785" lon="7.717141639441252">
        <ele>1707.91943359375</ele>
        <time>2004-08-08T13:48:55Z</time>
      </trkpt>
      <trkpt lat="45.82968813367188" lon="7.71704675629735">
        <ele>1707.91943359375</ele>
        <time>2004-08-08T13:49:01Z</time>
      </trkpt>
      <trkpt lat="45.829621246084571" lon="7.716935779899359">
        <ele>1708.880859375</ele>
        <time>2004-08-08T13:49:07Z</time>
      </trkpt>
      <trkpt lat="45.829590233042836" lon="7.716808374971151">
        <ele>1708.880859375</ele>
        <time>2004-08-08T13:49:13Z</time>
      </trkpt>
      <trkpt lat="45.829560980200768" lon="7.716683149337769">
        <ele>1710.32275390625</ele>
        <time>2004-08-08T13:49:19Z</time>
      </trkpt>
      <trkpt lat="45.829532481729984" lon="7.716544512659311">
        <ele>1709.842041015625</ele>
        <time>2004-08-08T13:49:26Z</time>
      </trkpt>
      <trkpt lat="45.829499373212457" lon="7.716406797990203">
        <ele>1711.2841796875</ele>
        <time>2004-08-08T13:49:33Z</time>
      </trkpt>
      <trkpt lat="45.829469365999103" lon="7.716278051957488">
        <ele>1712.72607421875</ele>
        <time>2004-08-08T13:49:40Z</time>
      </trkpt>
      <trkpt lat="45.829437766224146" lon="7.716145450249314">
        <ele>1714.648681640625</ele>
        <time>2004-08-08T13:49:47Z</time>
      </trkpt>
      <trkpt lat="45.82940817810595" lon="7.716017374768853">
        <ele>1714.16796875</ele>
        <time>2004-08-08T13:49:54Z</time>
      </trkpt>
      <trkpt lat="45.829373728483915" lon="7.715876223519445">
        <ele>1715.12939453125</ele>
        <time>2004-08-08T13:50:01Z</time>
      </trkpt>
      <trkpt lat="45.829344559460878" lon="7.715740436688066">
        <ele>1716.090576171875</ele>
        <time>2004-08-08T13:50:08Z</time>
      </trkpt>
      <trkpt lat="45.829316396266222" lon="7.715612361207604">
        <ele>1717.052001953125</ele>
        <time>2004-08-08T13:50:15Z</time>
      </trkpt>
      <trkpt lat="45.829282784834504" lon="7.715477580204606">
        <ele>1717.532470703125</ele>
        <time>2004-08-08T13:50:23Z</time>
      </trkpt>
      <trkpt lat="45.829245988279581" lon="7.715336093679071">
        <ele>1718.01318359375</ele>
        <time>2004-08-08T13:50:31Z</time>
      </trkpt>
      <trkpt lat="45.829216986894608" lon="7.715202318504453">
        <ele>1718.493896484375</ele>
        <time>2004-08-08T13:50:39Z</time>
      </trkpt>
      <trkpt lat="45.829188907518983" lon="7.715068627148867">
        <ele>1719.455322265625</ele>
        <time>2004-08-08T13:50:47Z</time>
      </trkpt>
      <trkpt lat="45.829154876992106" lon="7.7149339299649">
        <ele>1721.377685546875</ele>
        <time>2004-08-08T13:50:56Z</time>
      </trkpt>
      <trkpt lat="45.829123109579086" lon="7.714798729866743">
        <ele>1720.897216796875</ele>
        <time>2004-08-08T13:51:05Z</time>
      </trkpt>
      <trkpt lat="45.829092347994447" lon="7.714666798710823">
        <ele>1722.339111328125</ele>
        <time>2004-08-08T13:51:14Z</time>
      </trkpt>
      <trkpt lat="45.829060412943363" lon="7.714535370469093">
        <ele>1722.81982421875</ele>
        <time>2004-08-08T13:51:23Z</time>
      </trkpt>
      <trkpt lat="45.829030154272914" lon="7.714407714083791">
        <ele>1724.261962890625</ele>
        <time>2004-08-08T13:51:32Z</time>
      </trkpt>
      <trkpt lat="45.828999727964401" lon="7.714277878403664">
        <ele>1724.74267578125</ele>
        <time>2004-08-08T13:51:41Z</time>
      </trkpt>
      <trkpt lat="45.828973660245538" lon="7.714156173169613">
        <ele>1725.22314453125</ele>
        <time>2004-08-08T13:51:49Z</time>
      </trkpt>
      <trkpt lat="45.828943736851215" lon="7.714030696079135">
        <ele>1725.703857421875</ele>
        <time>2004-08-08T13:51:57Z</time>
      </trkpt>
      <trkpt lat="45.828913142904639" lon="7.713904213160276">
        <ele>1726.1845703125</ele>
        <time>2004-08-08T13:52:05Z</time>
      </trkpt>
      <trkpt lat="45.828882213681936" lon="7.713777143508196">
        <ele>1727.14599609375</ele>
        <time>2004-08-08T13:52:13Z</time>
      </trkpt>
      <trkpt lat="45.828874669969082" lon="7.713649654760957">
        <ele>1728.587890625</ele>
        <time>2004-08-08T13:52:21Z</time>
      </trkpt>
      <trkpt lat="45.828883219510317" lon="7.713519735261798">
        <ele>1729.068359375</ele>
        <time>2004-08-08T13:52:29Z</time>
      </trkpt>
      <trkpt lat="45.82890928722918" lon="7.713384870439768">
        <ele>1730.510498046875</ele>
        <time>2004-08-08T13:52:36Z</time>
      </trkpt>
      <trkpt lat="45.828923117369413" lon="7.71325059235096">
        <ele>1730.02978515625</ele>
        <time>2004-08-08T13:52:43Z</time>
      </trkpt>
      <trkpt lat="45.828920435160398" lon="7.713115308433771">
        <ele>1731.4716796875</ele>
        <time>2004-08-08T13:52:50Z</time>
      </trkpt>
      <trkpt lat="45.828886656090617" lon="7.712986813858151">
        <ele>1731.952392578125</ele>
        <time>2004-08-08T13:52:58Z</time>
      </trkpt>
      <trkpt lat="45.828838795423508" lon="7.712863180786371">
        <ele>1733.394287109375</ele>
        <time>2004-08-08T13:53:06Z</time>
      </trkpt>
      <trkpt lat="45.828784229233861" lon="7.71274633705616">
        <ele>1733.875</ele>
        <time>2004-08-08T13:53:14Z</time>
      </trkpt>
      <trkpt lat="45.828728405758739" lon="7.712621027603746">
        <ele>1735.31689453125</ele>
        <time>2004-08-08T13:53:22Z</time>
      </trkpt>
      <trkpt lat="45.828676018863916" lon="7.712510554119945">
        <ele>1736.7587890625</ele>
        <time>2004-08-08T13:53:29Z</time>
      </trkpt>
      <trkpt lat="45.828626565635204" lon="7.712399661540985">
        <ele>1737.239501953125</ele>
        <time>2004-08-08T13:53:36Z</time>
      </trkpt>
      <trkpt lat="45.828577196225524" lon="7.712291618809104">
        <ele>1737.239501953125</ele>
        <time>2004-08-08T13:53:43Z</time>
      </trkpt>
      <trkpt lat="45.828524390235543" lon="7.712184078991413">
        <ele>1738.681640625</ele>
        <time>2004-08-08T13:53:51Z</time>
      </trkpt>
      <trkpt lat="45.828474266454577" lon="7.712076371535659">
        <ele>1739.642822265625</ele>
        <time>2004-08-08T13:53:59Z</time>
      </trkpt>
      <trkpt lat="45.828424394130707" lon="7.711950726807118">
        <ele>1740.604248046875</ele>
        <time>2004-08-08T13:54:07Z</time>
      </trkpt>
      <trkpt lat="45.828370414674282" lon="7.711838744580746">
        <ele>1741.565673828125</ele>
        <time>2004-08-08T13:54:15Z</time>
      </trkpt>
      <trkpt lat="45.828322302550077" lon="7.711721481755376">
        <ele>1742.527099609375</ele>
        <time>2004-08-08T13:54:23Z</time>
      </trkpt>
      <trkpt lat="45.82827016711235" lon="7.711603129282594">
        <ele>1743.007568359375</ele>
        <time>2004-08-08T13:54:31Z</time>
      </trkpt>
      <trkpt lat="45.828209146857262" lon="7.711483938619494">
        <ele>1744.449462890625</ele>
        <time>2004-08-08T13:54:39Z</time>
      </trkpt>
      <trkpt lat="45.82815726287663" lon="7.711360221728683">
        <ele>1745.8916015625</ele>
        <time>2004-08-08T13:54:47Z</time>
      </trkpt>
      <trkpt lat="45.828102277591825" lon="7.711242791265249">
        <ele>1745.8916015625</ele>
        <time>2004-08-08T13:54:55Z</time>
      </trkpt>
      <trkpt lat="45.828053494915366" lon="7.71112896502018">
        <ele>1747.814208984375</ele>
        <time>2004-08-08T13:55:02Z</time>
      </trkpt>
      <trkpt lat="45.828005131334066" lon="7.711015893146396">
        <ele>1748.775390625</ele>
        <time>2004-08-08T13:55:09Z</time>
      </trkpt>
      <trkpt lat="45.82797990180552" lon="7.710880776867271">
        <ele>1749.73681640625</ele>
        <time>2004-08-08T13:55:17Z</time>
      </trkpt>
      <trkpt lat="45.827962551265955" lon="7.710743565112352">
        <ele>1749.73681640625</ele>
        <time>2004-08-08T13:55:25Z</time>
      </trkpt>
      <trkpt lat="45.827946709468961" lon="7.71060417406261">
        <ele>1749.73681640625</ele>
        <time>2004-08-08T13:55:32Z</time>
      </trkpt>
      <trkpt lat="45.827960455790162" lon="7.71047274582088">
        <ele>1751.659423828125</ele>
        <time>2004-08-08T13:55:38Z</time>
      </trkpt>
      <trkpt lat="45.827941512688994" lon="7.710332600399852">
        <ele>1752.139892578125</ele>
        <time>2004-08-08T13:55:46Z</time>
      </trkpt>
      <trkpt lat="45.827860878780484" lon="7.710266970098019">
        <ele>1752.139892578125</ele>
        <time>2004-08-08T13:55:53Z</time>
      </trkpt>
      <trkpt lat="45.827747471630573" lon="7.710245344787836">
        <ele>1753.101318359375</ele>
        <time>2004-08-08T13:56:00Z</time>
      </trkpt>
      <trkpt lat="45.827654097229242" lon="7.710185665637255">
        <ele>1752.62060546875</ele>
        <time>2004-08-08T13:56:06Z</time>
      </trkpt>
      <trkpt lat="45.827592322602868" lon="7.710081730037928">
        <ele>1753.101318359375</ele>
        <time>2004-08-08T13:56:11Z</time>
      </trkpt>
      <trkpt lat="45.82753817550838" lon="7.709966395050287">
        <ele>1752.139892578125</ele>
        <time>2004-08-08T13:56:16Z</time>
      </trkpt>
      <trkpt lat="45.827489728108048" lon="7.709856005385518">
        <ele>1752.62060546875</ele>
        <time>2004-08-08T13:56:21Z</time>
      </trkpt>
      <trkpt lat="45.827438179403543" lon="7.709743184968829">
        <ele>1751.659423828125</ele>
        <time>2004-08-08T13:56:27Z</time>
      </trkpt>
      <trkpt lat="45.827388558536768" lon="7.709632376208901">
        <ele>1751.659423828125</ele>
        <time>2004-08-08T13:56:31Z</time>
      </trkpt>
      <trkpt lat="45.827319407835603" lon="7.709496421739459">
        <ele>1751.659423828125</ele>
        <time>2004-08-08T13:56:35Z</time>
      </trkpt>
      <trkpt lat="45.827267188578844" lon="7.70940070040524">
        <ele>1752.139892578125</ele>
        <time>2004-08-08T13:56:38Z</time>
      </trkpt>
      <trkpt lat="45.827216980978847" lon="7.709283856675029">
        <ele>1751.659423828125</ele>
        <time>2004-08-08T13:56:42Z</time>
      </trkpt>
      <trkpt lat="45.827168198302388" lon="7.709166929125786">
        <ele>1751.1787109375</ele>
        <time>2004-08-08T13:56:46Z</time>
      </trkpt>
      <trkpt lat="45.82710575312376" lon="7.70905083976686">
        <ele>1750.697998046875</ele>
        <time>2004-08-08T13:56:50Z</time>
      </trkpt>
      <trkpt lat="45.827053785324097" lon="7.708942461758852">
        <ele>1750.697998046875</ele>
        <time>2004-08-08T13:56:54Z</time>
      </trkpt>
      <trkpt lat="45.82699385471642" lon="7.708803992718458">
        <ele>1750.697998046875</ele>
        <time>2004-08-08T13:56:59Z</time>
      </trkpt>
      <trkpt lat="45.826942306011915" lon="7.708644066005945">
        <ele>1750.697998046875</ele>
        <time>2004-08-08T13:57:03Z</time>
      </trkpt>
      <trkpt lat="45.826906934380531" lon="7.708504172042012">
        <ele>1751.1787109375</ele>
        <time>2004-08-08T13:57:06Z</time>
      </trkpt>
      <trkpt lat="45.826875669881701" lon="7.708378275856376">
        <ele>1751.1787109375</ele>
        <time>2004-08-08T13:57:09Z</time>
      </trkpt>
      <trkpt lat="45.826836694031954" lon="7.708221785724163">
        <ele>1751.659423828125</ele>
        <time>2004-08-08T13:57:13Z</time>
      </trkpt>
      <trkpt lat="45.826799897477031" lon="7.708067558705807">
        <ele>1750.217529296875</ele>
        <time>2004-08-08T13:57:17Z</time>
      </trkpt>
      <trkpt lat="45.826756143942475" lon="7.707916852086783">
        <ele>1751.1787109375</ele>
        <time>2004-08-08T13:57:21Z</time>
      </trkpt>
      <trkpt lat="45.826730914413929" lon="7.707779388874769">
        <ele>1749.73681640625</ele>
        <time>2004-08-08T13:57:24Z</time>
      </trkpt>
      <trkpt lat="45.826695039868355" lon="7.707644691690803">
        <ele>1749.73681640625</ele>
        <time>2004-08-08T13:57:27Z</time>
      </trkpt>
      <trkpt lat="45.826636701822281" lon="7.707505971193314">
        <ele>1750.697998046875</ele>
        <time>2004-08-08T13:57:30Z</time>
      </trkpt>
      <trkpt lat="45.826569478958845" lon="7.707375381141901">
        <ele>1750.217529296875</ele>
        <time>2004-08-08T13:57:33Z</time>
      </trkpt>
      <trkpt lat="45.826498903334141" lon="7.707257950678468">
        <ele>1750.217529296875</ele>
        <time>2004-08-08T13:57:36Z</time>
      </trkpt>
      <trkpt lat="45.826416425406933" lon="7.707163402810693">
        <ele>1749.73681640625</ele>
        <time>2004-08-08T13:57:39Z</time>
      </trkpt>
      <trkpt lat="45.826344424858689" lon="7.707085451111198">
        <ele>1750.217529296875</ele>
        <time>2004-08-08T13:57:42Z</time>
      </trkpt>
      <trkpt lat="45.826304694637656" lon="7.707036081701517">
        <ele>1749.73681640625</ele>
        <time>2004-08-08T14:03:23Z</time>
      </trkpt>
      <trkpt lat="45.826214589178562" lon="7.706943545490503">
        <ele>1749.256103515625</ele>
        <time>2004-08-08T14:03:43Z</time>
      </trkpt>
      <trkpt lat="45.826133200898767" lon="7.706866851076484">
        <ele>1750.217529296875</ele>
        <time>2004-08-08T14:03:47Z</time>
      </trkpt>
      <trkpt lat="45.826052818447351" lon="7.706790240481496">
        <ele>1749.256103515625</ele>
        <time>2004-08-08T14:03:50Z</time>
      </trkpt>
      <trkpt lat="45.825963215902448" lon="7.70669711753726">
        <ele>1749.256103515625</ele>
        <time>2004-08-08T14:03:53Z</time>
      </trkpt>
      <trkpt lat="45.825863890349865" lon="7.706598378717899">
        <ele>1750.217529296875</ele>
        <time>2004-08-08T14:03:56Z</time>
      </trkpt>
      <trkpt lat="45.82576397806406" lon="7.706489162519574">
        <ele>1750.217529296875</ele>
        <time>2004-08-08T14:03:59Z</time>
      </trkpt>
      <trkpt lat="45.825652163475752" lon="7.70638782531023">
        <ele>1749.73681640625</ele>
        <time>2004-08-08T14:04:02Z</time>
      </trkpt>
      <trkpt lat="45.825533559545875" lon="7.706301491707563">
        <ele>1750.217529296875</ele>
        <time>2004-08-08T14:04:05Z</time>
      </trkpt>
      <trkpt lat="45.825423421338201" lon="7.706216415390372">
        <ele>1750.217529296875</ele>
        <time>2004-08-08T14:04:08Z</time>
      </trkpt>
      <trkpt lat="45.82533054985106" lon="7.706144833937287">
        <ele>1749.73681640625</ele>
        <time>2004-08-08T14:04:11Z</time>
      </trkpt>
      <trkpt lat="45.825243042781949" lon="7.706072246655822">
        <ele>1750.217529296875</ele>
        <time>2004-08-08T14:04:15Z</time>
      </trkpt>
      <trkpt lat="45.825159810483456" lon="7.705966215580702">
        <ele>1749.73681640625</ele>
        <time>2004-08-08T14:04:20Z</time>
      </trkpt>
      <trkpt lat="45.825110860168934" lon="7.705861022695899">
        <ele>1750.697998046875</ele>
        <time>2004-08-08T14:04:24Z</time>
      </trkpt>
      <trkpt lat="45.825066855177283" lon="7.705737724900246">
        <ele>1750.217529296875</ele>
        <time>2004-08-08T14:04:28Z</time>
      </trkpt>
      <trkpt lat="45.825024107471108" lon="7.705585258081555">
        <ele>1750.217529296875</ele>
        <time>2004-08-08T14:04:32Z</time>
      </trkpt>
      <trkpt lat="45.824989238753915" lon="7.705444525927305">
        <ele>1749.256103515625</ele>
        <time>2004-08-08T14:04:36Z</time>
      </trkpt>
      <trkpt lat="45.82494892179966" lon="7.705304967239499">
        <ele>1750.217529296875</ele>
        <time>2004-08-08T14:04:40Z</time>
      </trkpt>
      <trkpt lat="45.824904581531882" lon="7.70518384873867">
        <ele>1750.217529296875</ele>
        <time>2004-08-08T14:04:44Z</time>
      </trkpt>
      <trkpt lat="45.824863342568278" lon="7.705055689439178">
        <ele>1750.217529296875</ele>
        <time>2004-08-08T14:04:48Z</time>
      </trkpt>
      <trkpt lat="45.824819253757596" lon="7.704934319481254">
        <ele>1749.73681640625</ele>
        <time>2004-08-08T14:04:52Z</time>
      </trkpt>
      <trkpt lat="45.824781702831388" lon="7.704808255657554">
        <ele>1749.73681640625</ele>
        <time>2004-08-08T14:04:56Z</time>
      </trkpt>
      <trkpt lat="45.824741553515196" lon="7.704659560695291">
        <ele>1749.73681640625</ele>
        <time>2004-08-08T14:05:00Z</time>
      </trkpt>
      <trkpt lat="45.824692603200674" lon="7.704508015885949">
        <ele>1749.73681640625</ele>
        <time>2004-08-08T14:05:04Z</time>
      </trkpt>
      <trkpt lat="45.824657902121544" lon="7.704345406964421">
        <ele>1750.217529296875</ele>
        <time>2004-08-08T14:05:08Z</time>
      </trkpt>
      <trkpt lat="45.82465773448348" lon="7.704181456938386">
        <ele>1749.73681640625</ele>
        <time>2004-08-08T14:05:12Z</time>
      </trkpt>
      <trkpt lat="45.824696710333228" lon="7.70404533483088">
        <ele>1749.73681640625</ele>
        <time>2004-08-08T14:05:16Z</time>
      </trkpt>
      <trkpt lat="45.824746331200004" lon="7.703931340947747">
        <ele>1749.73681640625</ele>
        <time>2004-08-08T14:05:20Z</time>
      </trkpt>
      <trkpt lat="45.824799807742238" lon="7.703824387863278">
        <ele>1750.217529296875</ele>
        <time>2004-08-08T14:05:24Z</time>
      </trkpt>
      <trkpt lat="45.824851021170616" lon="7.703703939914703">
        <ele>1749.256103515625</ele>
        <time>2004-08-08T14:05:28Z</time>
      </trkpt>
      <trkpt lat="45.824908437207341" lon="7.703570164740086">
        <ele>1749.73681640625</ele>
        <time>2004-08-08T14:05:33Z</time>
      </trkpt>
      <trkpt lat="45.824960237368941" lon="7.703455751761794">
        <ele>1749.73681640625</ele>
        <time>2004-08-08T14:05:37Z</time>
      </trkpt>
      <trkpt lat="45.825014468282461" lon="7.70333337597549">
        <ele>1750.697998046875</ele>
        <time>2004-08-08T14:05:41Z</time>
      </trkpt>
      <trkpt lat="45.825057635083795" lon="7.703209659084678">
        <ele>1750.217529296875</ele>
        <time>2004-08-08T14:05:45Z</time>
      </trkpt>
      <trkpt lat="45.825058557093143" lon="7.703057192265987">
        <ele>1751.1787109375</ele>
        <time>2004-08-08T14:05:50Z</time>
      </trkpt>
      <trkpt lat="45.825017150491476" lon="7.702927691861987">
        <ele>1752.139892578125</ele>
        <time>2004-08-08T14:05:55Z</time>
      </trkpt>
      <trkpt lat="45.824943808838725" lon="7.702829791232944">
        <ele>1752.139892578125</ele>
        <time>2004-08-08T14:06:00Z</time>
      </trkpt>
      <trkpt lat="45.824854960665107" lon="7.702771620824933">
        <ele>1753.101318359375</ele>
        <time>2004-08-08T14:06:05Z</time>
      </trkpt>
      <trkpt lat="45.824772650375962" lon="7.70271772518754">
        <ele>1753.101318359375</ele>
        <time>2004-08-08T14:06:10Z</time>
      </trkpt>
      <trkpt lat="45.824685478582978" lon="7.7026576269418">
        <ele>1753.58203125</ele>
        <time>2004-08-08T14:06:15Z</time>
      </trkpt>
      <trkpt lat="45.824587997049093" lon="7.702596103772521">
        <ele>1754.543212890625</ele>
        <time>2004-08-08T14:06:21Z</time>
      </trkpt>
      <trkpt lat="45.824505435302854" lon="7.702537178993225">
        <ele>1754.062744140625</ele>
        <time>2004-08-08T14:06:26Z</time>
      </trkpt>
      <trkpt lat="45.824408624321222" lon="7.702474063262343">
        <ele>1754.543212890625</ele>
        <time>2004-08-08T14:06:32Z</time>
      </trkpt>
      <trkpt lat="45.824313070625067" lon="7.70241572521627">
        <ele>1755.02392578125</ele>
        <time>2004-08-08T14:06:38Z</time>
      </trkpt>
      <trkpt lat="45.824213996529579" lon="7.702355207875371">
        <ele>1755.504638671875</ele>
        <time>2004-08-08T14:06:44Z</time>
      </trkpt>
      <trkpt lat="45.824127914384007" lon="7.702302653342485">
        <ele>1755.985107421875</ele>
        <time>2004-08-08T14:06:49Z</time>
      </trkpt>
      <trkpt lat="45.824047615751624" lon="7.702240291982889">
        <ele>1756.466064453125</ele>
        <time>2004-08-08T14:06:54Z</time>
      </trkpt>
      <trkpt lat="45.823955833911896" lon="7.702170135453343">
        <ele>1757.427490234375</ele>
        <time>2004-08-08T14:07:00Z</time>
      </trkpt>
      <trkpt lat="45.823879726231098" lon="7.702090842649341">
        <ele>1757.908203125</ele>
        <time>2004-08-08T14:07:05Z</time>
      </trkpt>
      <trkpt lat="45.823811078444123" lon="7.701997887343168">
        <ele>1758.388671875</ele>
        <time>2004-08-08T14:07:10Z</time>
      </trkpt>
      <trkpt lat="45.823743771761656" lon="7.701898813247681">
        <ele>1759.83056640625</ele>
        <time>2004-08-08T14:07:15Z</time>
      </trkpt>
      <trkpt lat="45.823682500049472" lon="7.701790099963546">
        <ele>1760.311279296875</ele>
        <time>2004-08-08T14:07:20Z</time>
      </trkpt>
      <trkpt lat="45.823625084012747" lon="7.701692618429661">
        <ele>1760.7919921875</ele>
        <time>2004-08-08T14:07:25Z</time>
      </trkpt>
      <trkpt lat="45.823568338528275" lon="7.701585665345192">
        <ele>1760.7919921875</ele>
        <time>2004-08-08T14:07:30Z</time>
      </trkpt>
      <trkpt lat="45.823506396263838" lon="7.70147611387074">
        <ele>1761.272705078125</ele>
        <time>2004-08-08T14:07:35Z</time>
      </trkpt>
      <trkpt lat="45.823443783447146" lon="7.701364550739527">
        <ele>1760.7919921875</ele>
        <time>2004-08-08T14:07:40Z</time>
      </trkpt>
      <trkpt lat="45.823381589725614" lon="7.701256927102804">
        <ele>1761.272705078125</ele>
        <time>2004-08-08T14:07:45Z</time>
      </trkpt>
      <trkpt lat="45.823311936110258" lon="7.701140837743878">
        <ele>1761.75341796875</ele>
        <time>2004-08-08T14:07:50Z</time>
      </trkpt>
      <trkpt lat="45.82324706017971" lon="7.701027514412999">
        <ele>1761.75341796875</ele>
        <time>2004-08-08T14:07:55Z</time>
      </trkpt>
      <trkpt lat="45.823177825659513" lon="7.700910586863756">
        <ele>1762.23388671875</ele>
        <time>2004-08-08T14:08:00Z</time>
      </trkpt>
      <trkpt lat="45.823115631937981" lon="7.700807908549905">
        <ele>1762.714599609375</ele>
        <time>2004-08-08T14:08:05Z</time>
      </trkpt>
      <trkpt lat="45.823057293891907" lon="7.700699949637055">
        <ele>1763.1953125</ele>
        <time>2004-08-08T14:08:10Z</time>
      </trkpt>
      <trkpt lat="45.822997111827135" lon="7.70058779977262">
        <ele>1763.1953125</ele>
        <time>2004-08-08T14:08:15Z</time>
      </trkpt>
      <trkpt lat="45.822930810973048" lon="7.700488893315196">
        <ele>1763.1953125</ele>
        <time>2004-08-08T14:08:20Z</time>
      </trkpt>
      <trkpt lat="45.822854368016124" lon="7.700391747057438">
        <ele>1763.67578125</ele>
        <time>2004-08-08T14:08:25Z</time>
      </trkpt>
      <trkpt lat="45.822775242850184" lon="7.700299881398678">
        <ele>1764.156494140625</ele>
        <time>2004-08-08T14:08:30Z</time>
      </trkpt>
      <trkpt lat="45.822699721902609" lon="7.700217654928565">
        <ele>1764.156494140625</ele>
        <time>2004-08-08T14:08:35Z</time>
      </trkpt>
      <trkpt lat="45.822621015831828" lon="7.700134674087167">
        <ele>1764.156494140625</ele>
        <time>2004-08-08T14:08:40Z</time>
      </trkpt>
      <trkpt lat="45.822533927857876" lon="7.700051022693515">
        <ele>1765.117919921875</ele>
        <time>2004-08-08T14:08:45Z</time>
      </trkpt>
      <trkpt lat="45.822456898167729" lon="7.699968544766307">
        <ele>1766.0791015625</ele>
        <time>2004-08-08T14:08:50Z</time>
      </trkpt>
      <trkpt lat="45.822381125763059" lon="7.699891598895192">
        <ele>1765.5986328125</ele>
        <time>2004-08-08T14:08:55Z</time>
      </trkpt>
      <trkpt lat="45.822293786332011" lon="7.699810210615397">
        <ele>1766.559814453125</ele>
        <time>2004-08-08T14:09:01Z</time>
      </trkpt>
      <trkpt lat="45.822208626195788" lon="7.699733767658472">
        <ele>1767.04052734375</ele>
        <time>2004-08-08T14:09:07Z</time>
      </trkpt>
      <trkpt lat="45.822134613990784" lon="7.69965548068285">
        <ele>1767.52099609375</ele>
        <time>2004-08-08T14:09:13Z</time>
      </trkpt>
      <trkpt lat="45.822058087214828" lon="7.69957778044045">
        <ele>1768.001708984375</ele>
        <time>2004-08-08T14:09:18Z</time>
      </trkpt>
      <trkpt lat="45.821979884058237" lon="7.699499242007732">
        <ele>1768.001708984375</ele>
        <time>2004-08-08T14:09:23Z</time>
      </trkpt>
      <trkpt lat="45.821902099996805" lon="7.699420703575015">
        <ele>1768.482421875</ele>
        <time>2004-08-08T14:09:28Z</time>
      </trkpt>
      <trkpt lat="45.821820041164756" lon="7.699338309466839">
        <ele>1769.44384765625</ele>
        <time>2004-08-08T14:09:33Z</time>
      </trkpt>
      <trkpt lat="45.821753237396479" lon="7.699225237593055">
        <ele>1768.963134765625</ele>
        <time>2004-08-08T14:09:38Z</time>
      </trkpt>
      <trkpt lat="45.821728678420186" lon="7.699091713875532">
        <ele>1769.44384765625</ele>
        <time>2004-08-08T14:09:43Z</time>
      </trkpt>
      <trkpt lat="45.821721302345395" lon="7.698955843225122">
        <ele>1769.44384765625</ele>
        <time>2004-08-08T14:09:48Z</time>
      </trkpt>
      <trkpt lat="45.821713590994477" lon="7.69882625900209">
        <ele>1768.963134765625</ele>
        <time>2004-08-08T14:09:53Z</time>
      </trkpt>
      <trkpt lat="45.821707220748067" lon="7.698679659515619">
        <ele>1769.44384765625</ele>
        <time>2004-08-08T14:09:59Z</time>
      </trkpt>
      <trkpt lat="45.821701353415847" lon="7.698526186868548">
        <ele>1769.92431640625</ele>
        <time>2004-08-08T14:10:05Z</time>
      </trkpt>
      <trkpt lat="45.821681823581457" lon="7.698377827182412">
        <ele>1770.405029296875</ele>
        <time>2004-08-08T14:10:11Z</time>
      </trkpt>
      <trkpt lat="45.82165215164423" lon="7.698234496638179">
        <ele>1770.8857421875</ele>
        <time>2004-08-08T14:10:17Z</time>
      </trkpt>
      <trkpt lat="45.821608398109674" lon="7.698096027597785">
        <ele>1770.8857421875</ele>
        <time>2004-08-08T14:10:23Z</time>
      </trkpt>
      <trkpt lat="45.821573110297322" lon="7.697974741458893">
        <ele>1771.3662109375</ele>
        <time>2004-08-08T14:10:28Z</time>
      </trkpt>
      <trkpt lat="45.821537571027875" lon="7.697834512218833">
        <ele>1771.846923828125</ele>
        <time>2004-08-08T14:10:34Z</time>
      </trkpt>
      <trkpt lat="45.82150848582387" lon="7.697701659053564">
        <ele>1771.846923828125</ele>
        <time>2004-08-08T14:10:40Z</time>
      </trkpt>
      <trkpt lat="45.821494488045573" lon="7.697572158649564">
        <ele>1772.327880859375</ele>
        <time>2004-08-08T14:10:46Z</time>
      </trkpt>
      <trkpt lat="45.821482418105006" lon="7.697434611618519">
        <ele>1772.80859375</ele>
        <time>2004-08-08T14:10:52Z</time>
      </trkpt>
      <trkpt lat="45.82148308865726" lon="7.697290694341064">
        <ele>1772.80859375</ele>
        <time>2004-08-08T14:10:57Z</time>
      </trkpt>
      <trkpt lat="45.82149239256978" lon="7.697131186723709">
        <ele>1772.80859375</ele>
        <time>2004-08-08T14:11:02Z</time>
      </trkpt>
      <trkpt lat="45.821530697867274" lon="7.696979139000177">
        <ele>1772.80859375</ele>
        <time>2004-08-08T14:11:07Z</time>
      </trkpt>
      <trkpt lat="45.821592137217522" lon="7.696864474564791">
        <ele>1773.289306640625</ele>
        <time>2004-08-08T14:11:11Z</time>
      </trkpt>
      <trkpt lat="45.821666484698653" lon="7.696751989424229">
        <ele>1773.289306640625</ele>
        <time>2004-08-08T14:11:15Z</time>
      </trkpt>
      <trkpt lat="45.821741670370102" lon="7.696649730205536">
        <ele>1773.769775390625</ele>
        <time>2004-08-08T14:11:19Z</time>
      </trkpt>
      <trkpt lat="45.821816017851233" lon="7.696551326662302">
        <ele>1773.769775390625</ele>
        <time>2004-08-08T14:11:23Z</time>
      </trkpt>
      <trkpt lat="45.821888688951731" lon="7.696459125727415">
        <ele>1773.769775390625</ele>
        <time>2004-08-08T14:11:27Z</time>
      </trkpt>
      <trkpt lat="45.821968149393797" lon="7.696361560374498">
        <ele>1773.289306640625</ele>
        <time>2004-08-08T14:11:31Z</time>
      </trkpt>
      <trkpt lat="45.822050124406815" lon="7.696264078840613">
        <ele>1773.769775390625</ele>
        <time>2004-08-08T14:11:35Z</time>
      </trkpt>
      <trkpt lat="45.822108965367079" lon="7.696165423840284">
        <ele>1774.25048828125</ele>
        <time>2004-08-08T14:11:39Z</time>
      </trkpt>
      <trkpt lat="45.822178032249212" lon="7.696033995598555">
        <ele>1774.25048828125</ele>
        <time>2004-08-08T14:11:44Z</time>
      </trkpt>
      <trkpt lat="45.822221953421831" lon="7.695904411375523">
        <ele>1774.731201171875</ele>
        <time>2004-08-08T14:11:48Z</time>
      </trkpt>
      <trkpt lat="45.822259839624166" lon="7.695769043639302">
        <ele>1774.731201171875</ele>
        <time>2004-08-08T14:11:52Z</time>
      </trkpt>
      <trkpt lat="45.822302587330341" lon="7.695632753893733">
        <ele>1774.731201171875</ele>
        <time>2004-08-08T14:11:56Z</time>
      </trkpt>
      <trkpt lat="45.822338126599789" lon="7.695489088073373">
        <ele>1775.211669921875</ele>
        <time>2004-08-08T14:12:00Z</time>
      </trkpt>
      <trkpt lat="45.822361595928669" lon="7.69536579027772">
        <ele>1775.211669921875</ele>
        <time>2004-08-08T14:12:04Z</time>
      </trkpt>
      <trkpt lat="45.822401326149702" lon="7.695221873000264">
        <ele>1775.6923828125</ele>
        <time>2004-08-08T14:12:09Z</time>
      </trkpt>
      <trkpt lat="45.822441726922989" lon="7.695081308484078">
        <ele>1776.173095703125</ele>
        <time>2004-08-08T14:12:13Z</time>
      </trkpt>
      <trkpt lat="45.822483384981751" lon="7.694945186376572">
        <ele>1775.6923828125</ele>
        <time>2004-08-08T14:12:17Z</time>
      </trkpt>
      <trkpt lat="45.822519091889262" lon="7.694806549698114">
        <ele>1776.173095703125</ele>
        <time>2004-08-08T14:12:21Z</time>
      </trkpt>
      <trkpt lat="45.822519930079579" lon="7.694677887484431">
        <ele>1776.173095703125</ele>
        <time>2004-08-08T14:12:25Z</time>
      </trkpt>
      <trkpt lat="45.822487575933337" lon="7.694571185857058">
        <ele>1776.65380859375</ele>
        <time>2004-08-08T14:12:32Z</time>
      </trkpt>
      <trkpt lat="45.822393279522657" lon="7.694460963830352">
        <ele>1775.6923828125</ele>
        <time>2004-08-08T14:13:09Z</time>
      </trkpt>
      <trkpt lat="45.822284482419491" lon="7.694387370720506">
        <ele>1775.211669921875</ele>
        <time>2004-08-08T14:13:13Z</time>
      </trkpt>
      <trkpt lat="45.822196220979095" lon="7.694330541417003">
        <ele>1776.65380859375</ele>
        <time>2004-08-08T14:13:16Z</time>
      </trkpt>
      <trkpt lat="45.822100918740034" lon="7.694273376837373">
        <ele>1776.65380859375</ele>
        <time>2004-08-08T14:13:19Z</time>
      </trkpt>
      <trkpt lat="45.821994300931692" lon="7.694199616089463">
        <ele>1776.65380859375</ele>
        <time>2004-08-08T14:13:22Z</time>
      </trkpt>
      <trkpt lat="45.821873098611832" lon="7.694147145375609">
        <ele>1777.614990234375</ele>
        <time>2004-08-08T14:13:25Z</time>
      </trkpt>
      <trkpt lat="45.821752063930035" lon="7.694125100970268">
        <ele>1777.134521484375</ele>
        <time>2004-08-08T14:13:28Z</time>
      </trkpt>
      <trkpt lat="45.821629604324698" lon="7.694120658561587">
        <ele>1777.134521484375</ele>
        <time>2004-08-08T14:13:31Z</time>
      </trkpt>
      <trkpt lat="45.82150555215776" lon="7.694104816764593">
        <ele>1777.134521484375</ele>
        <time>2004-08-08T14:13:34Z</time>
      </trkpt>
      <trkpt lat="45.821395330131054" lon="7.694032313302159">
        <ele>1776.65380859375</ele>
        <time>2004-08-08T14:13:37Z</time>
      </trkpt>
      <trkpt lat="45.821305308490992" lon="7.693904154002667">
        <ele>1776.173095703125</ele>
        <time>2004-08-08T14:13:40Z</time>
      </trkpt>
      <trkpt lat="45.821243114769459" lon="7.693802397698164">
        <ele>1776.65380859375</ele>
        <time>2004-08-08T14:13:42Z</time>
      </trkpt>
      <trkpt lat="45.821179831400514" lon="7.693700976669788">
        <ele>1776.65380859375</ele>
        <time>2004-08-08T14:13:44Z</time>
      </trkpt>
      <trkpt lat="45.821114787831903" lon="7.693608021363616">
        <ele>1776.65380859375</ele>
        <time>2004-08-08T14:13:46Z</time>
      </trkpt>
      <trkpt lat="45.821017641574144" lon="7.693487238138914">
        <ele>1776.173095703125</ele>
        <time>2004-08-08T14:13:49Z</time>
      </trkpt>
      <trkpt lat="45.820915885269642" lon="7.693383218720555">
        <ele>1776.173095703125</ele>
        <time>2004-08-08T14:13:52Z</time>
      </trkpt>
      <trkpt lat="45.820792922750115" lon="7.693277187645435">
        <ele>1775.6923828125</ele>
        <time>2004-08-08T14:13:55Z</time>
      </trkpt>
      <trkpt lat="45.820698877796531" lon="7.693201918154955">
        <ele>1775.6923828125</ele>
        <time>2004-08-08T14:13:57Z</time>
      </trkpt>
      <trkpt lat="45.820599216967821" lon="7.693127151578665">
        <ele>1775.211669921875</ele>
        <time>2004-08-08T14:13:59Z</time>
      </trkpt>
      <trkpt lat="45.820500394329429" lon="7.693039476871491">
        <ele>1774.25048828125</ele>
        <time>2004-08-08T14:14:01Z</time>
      </trkpt>
      <trkpt lat="45.820397632196546" lon="7.692957166582346">
        <ele>1774.25048828125</ele>
        <time>2004-08-08T14:14:03Z</time>
      </trkpt>
      <trkpt lat="45.820290930569172" lon="7.692876029759646">
        <ele>1774.731201171875</ele>
        <time>2004-08-08T14:14:05Z</time>
      </trkpt>
      <trkpt lat="45.820181714370847" lon="7.692802352830768">
        <ele>1774.731201171875</ele>
        <time>2004-08-08T14:14:07Z</time>
      </trkpt>
      <trkpt lat="45.820070151239634" lon="7.692744014784694">
        <ele>1774.731201171875</ele>
        <time>2004-08-08T14:14:09Z</time>
      </trkpt>
      <trkpt lat="45.819949703291059" lon="7.692805454134941">
        <ele>1774.25048828125</ele>
        <time>2004-08-08T14:14:11Z</time>
      </trkpt>
      <trkpt lat="45.819829925894737" lon="7.692881477996707">
        <ele>1774.25048828125</ele>
        <time>2004-08-08T14:14:13Z</time>
      </trkpt>
      <trkpt lat="45.819715093821287" lon="7.69297250546515">
        <ele>1774.25048828125</ele>
        <time>2004-08-08T14:14:15Z</time>
      </trkpt>
      <trkpt lat="45.819613253697753" lon="7.693084152415395">
        <ele>1774.25048828125</ele>
        <time>2004-08-08T14:14:17Z</time>
      </trkpt>
      <trkpt lat="45.81952222622931" lon="7.693205522373319">
        <ele>1773.769775390625</ele>
        <time>2004-08-08T14:14:19Z</time>
      </trkpt>
      <trkpt lat="45.81942985765636" lon="7.693323455750942">
        <ele>1773.769775390625</ele>
        <time>2004-08-08T14:14:21Z</time>
      </trkpt>
      <trkpt lat="45.819343524053693" lon="7.693433007225394">
        <ele>1773.289306640625</ele>
        <time>2004-08-08T14:14:23Z</time>
      </trkpt>
      <trkpt lat="45.81924662925303" lon="7.693513808771968">
        <ele>1773.769775390625</ele>
        <time>2004-08-08T14:14:25Z</time>
      </trkpt>
      <trkpt lat="45.819142609834671" lon="7.693542474880815">
        <ele>1773.769775390625</ele>
        <time>2004-08-08T14:14:27Z</time>
      </trkpt>
      <trkpt lat="45.819034650921822" lon="7.693525291979313">
        <ele>1773.289306640625</ele>
        <time>2004-08-08T14:14:29Z</time>
      </trkpt>
      <trkpt lat="45.818927614018321" lon="7.693476676940918">
        <ele>1772.80859375</ele>
        <time>2004-08-08T14:14:31Z</time>
      </trkpt>
      <trkpt lat="45.818811608478427" lon="7.693433677777648">
        <ele>1772.327880859375</ele>
        <time>2004-08-08T14:14:33Z</time>
      </trkpt>
      <trkpt lat="45.818695519119501" lon="7.693386068567634">
        <ele>1771.3662109375</ele>
        <time>2004-08-08T14:14:35Z</time>
      </trkpt>
      <trkpt lat="45.818578423932195" lon="7.693336615338922">
        <ele>1770.8857421875</ele>
        <time>2004-08-08T14:14:37Z</time>
      </trkpt>
      <trkpt lat="45.818459903821349" lon="7.693288084119558">
        <ele>1770.405029296875</ele>
        <time>2004-08-08T14:14:39Z</time>
      </trkpt>
      <trkpt lat="45.818340461701155" lon="7.693239385262132">
        <ele>1770.405029296875</ele>
        <time>2004-08-08T14:14:41Z</time>
      </trkpt>
      <trkpt lat="45.818218840286136" lon="7.693191021680832">
        <ele>1769.92431640625</ele>
        <time>2004-08-08T14:14:43Z</time>
      </trkpt>
      <trkpt lat="45.818095877766609" lon="7.693140311166644">
        <ele>1769.92431640625</ele>
        <time>2004-08-08T14:14:45Z</time>
      </trkpt>
      <trkpt lat="45.817972831428051" lon="7.693085744976997">
        <ele>1768.963134765625</ele>
        <time>2004-08-08T14:14:47Z</time>
      </trkpt>
      <trkpt lat="45.817846767604351" lon="7.693026149645448">
        <ele>1769.44384765625</ele>
        <time>2004-08-08T14:14:49Z</time>
      </trkpt>
      <trkpt lat="45.817722799256444" lon="7.692947275936604">
        <ele>1768.482421875</ele>
        <time>2004-08-08T14:14:51Z</time>
      </trkpt>
      <trkpt lat="45.817601010203362" lon="7.692861445248127">
        <ele>1768.482421875</ele>
        <time>2004-08-08T14:14:53Z</time>
      </trkpt>
      <trkpt lat="45.817502941936255" lon="7.692694393917918">
        <ele>1767.52099609375</ele>
        <time>2004-08-08T14:14:55Z</time>
      </trkpt>
      <trkpt lat="45.817413087934256" lon="7.692517032846808">
        <ele>1767.04052734375</ele>
        <time>2004-08-08T14:14:57Z</time>
      </trkpt>
      <trkpt lat="45.81732289865613" lon="7.692311257123947">
        <ele>1766.0791015625</ele>
        <time>2004-08-08T14:14:59Z</time>
      </trkpt>
      <trkpt lat="45.817229691892862" lon="7.692095842212439">
        <ele>1765.117919921875</ele>
        <time>2004-08-08T14:15:01Z</time>
      </trkpt>
      <trkpt lat="45.817183088511229" lon="7.691985368728638">
        <ele>1765.5986328125</ele>
        <time>2004-08-08T14:15:02Z</time>
      </trkpt>
      <trkpt lat="45.817087450996041" lon="7.691758973523974">
        <ele>1764.156494140625</ele>
        <time>2004-08-08T14:15:04Z</time>
      </trkpt>
      <trkpt lat="45.816987454891205" lon="7.691531991586089">
        <ele>1762.714599609375</ele>
        <time>2004-08-08T14:15:06Z</time>
      </trkpt>
      <trkpt lat="45.816879998892546" lon="7.691274415701628">
        <ele>1761.75341796875</ele>
        <time>2004-08-08T14:15:08Z</time>
      </trkpt>
      <trkpt lat="45.816826606169343" lon="7.691143993288279">
        <ele>1761.75341796875</ele>
        <time>2004-08-08T14:15:09Z</time>
      </trkpt>
      <trkpt lat="45.816717389971018" lon="7.690879376605153">
        <ele>1759.83056640625</ele>
        <time>2004-08-08T14:15:11Z</time>
      </trkpt>
      <trkpt lat="45.816662153229117" lon="7.690749708563089">
        <ele>1759.83056640625</ele>
        <time>2004-08-08T14:15:12Z</time>
      </trkpt>
      <trkpt lat="45.816602222621441" lon="7.690578801557422">
        <ele>1757.908203125</ele>
        <time>2004-08-08T14:15:14Z</time>
      </trkpt>
      <trkpt lat="45.816648909822106" lon="7.690552650019527">
        <ele>1750.217529296875</ele>
        <time>2004-08-08T14:17:20Z</time>
      </trkpt>
    </trkseg>
  </trk>

</gpx>
